[[{"header":{"parameterUnit":"m.s-1","parameterCategory":1,"la1":30.6,"la2":28.766,"lo1":-90.7593,"lo2":-88.6598,"dy":0.0162,"dx":0.0183,"nx":116,"ny":114,"refTime":"2024-02-20T06:00:00:Z","depth":0,"parameterNumber":2,"parameterNumberName":"U-component_of_WINDS"},"data":[0.0,0.0,0.0,0.0,0.0,0.0,0.0,0.0,0.0,0.0,0.0,0.0,0.0,0.0,0.0,0.0,0.0,0.0,0.0,0.0,0.0,0.0,0.0,0.0,0.0,0.0,0.0,0.0,0.0,0.0,0.0,0.0,0.0,0.0,0.0,0.0,0.0,0.0,0.0,0.0,0.0,0.0,0.0,0.0,0.0,0.0,0.0,0.0,0.0,0.0,0.0,0.0,0.0,0.0,0.0,0.0,0.0,0.0,0.0,0.0,0.0,0.0,0.0,0.0,0.0,0.0,0.0,0.0,0.0,0.0,0.0,0.0,0.0,0.0,0.0,0.0,0.0,0.0,0.0,0.0,0.0,0.0,0.0,0.0,0.0,0.0,0.0,0.0,0.0,0.0,0.0,0.0,0.0,0.0,0.0,0.0,0.0,0.0,0.0,0.0,0.0,0.0,0.0,0.0,0.0,0.0,0.0,0.0,0.0,0.0,0.0,0.0,0.0,0.0,0.0,0.0,0.0,0.0,0.0,0.0,0.0,0.0,0.0,0.0,0.0,0.0,0.0,0.0,0.0,0.0,0.0,0.0,0.0,0.0,0.0,0.0,0.0,0.0,0.0,0.0,0.0,0.0,0.0,0.0,0.0,0.0,0.0,0.0,0.0,0.0,0.0,0.0,0.0,0.0,0.0,0.0,0.0,0.0,0.0,0.0,0.0,0.0,0.0,0.0,0.0,0.0,0.0,0.0,0.0,0.0,0.0,0.0,0.0,0.0,0.0,0.0,0.0,0.0,0.0,0.0,0.0,0.0,0.0,0.0,0.0,0.0,0.0,0.0,0.0,0.0,0.0,0.0,0.0,0.0,0.0,0.0,0.0,0.0,0.0,0.0,0.0,0.0,0.0,0.0,0.0,0.0,0.0,0.0,0.0,0.0,0.0,0.0,0.0,0.0,0.0,0.0,0.0,0.0,0.0,0.0,0.0,0.0,0.0,0.0,0.0,0.0,0.0,0.0,0.0,0.0,0.0,0.0,0.0,0.0,0.0,0.0,0.0,0.0,0.0,0.0,0.0,0.0,0.0,0.0,0.0,0.0,0.0,0.0,0.0,0.0,0.0,0.0,0.0,0.0,0.0,0.0,0.0,0.0,0.0,0.0,0.0,0.0,0.0,0.0,0.0,0.0,0.0,0.0,0.0,0.0,0.0,0.0,0.0,0.0,0.0,0.0,0.0,0.0,0.0,0.0,0.0,0.0,0.0,0.0,0.0,0.0,0.0,0.0,0.0,0.0,0.0,0.0,0.0,0.0,0.0,0.0,0.0,0.0,0.0,0.0,0.0,0.0,0.0,0.0,0.0,0.0,0.0,0.0,0.0,0.0,0.0,0.0,0.0,0.0,0.0,0.0,0.0,0.0,0.0,0.0,0.0,0.0,0.0,0.0,0.0,0.0,0.0,0.0,0.0,0.0,0.0,0.0,0.0,0.0,0.0,0.0,0.0,0.0,0.0,0.0,0.0,0.0,0.0,0.0,0.0,0.0,0.0,0.0,0.0,0.0,0.0,0.0,0.0,0.0,0.0,0.0,0.0,0.0,0.0,0.0,0.0,0.0,0.0,0.0,0.0,0.0,0.0,0.0,0.0,0.0,0.0,0.0,0.0,0.0,0.0,0.0,0.0,0.0,0.0,0.0,0.0,0.0,0.0,0.0,0.0,0.0,0.0,0.0,0.0,0.0,0.0,0.0,0.0,0.0,0.0,0.0,0.0,0.0,0.0,0.0,0.0,0.0,0.0,0.0,0.0,0.0,0.0,0.0,0.0,0.0,0.0,0.0,0.0,0.0,0.0,0.0,0.0,0.0,0.0,0.0,0.0,0.0,0.0,0.0,0.0,0.0,0.0,0.0,0.0,0.0,0.0,0.0,0.0,0.0,0.0,0.0,0.0,0.0,0.0,0.0,0.0,0.0,0.0,0.0,0.0,0.0,0.0,0.0,0.0,0.0,0.0,0.0,0.0,0.0,0.0,0.0,0.0,0.0,0.0,0.0,0.0,0.0,0.0,0.0,0.0,0.0,0.0,0.0,0.0,0.0,0.0,0.0,0.0,0.0,0.0,0.0,0.0,0.0,0.0,0.0,0.0,0.0,0.0,0.0,0.0,0.0,0.0,0.0,0.0,0.0,0.0,0.0,0.0,0.0,0.0,0.0,0.0,0.0,0.0,0.0,0.0,0.0,0.0,0.0,0.0,0.0,0.0,0.0,0.0,0.0,0.0,0.0,0.0,0.0,0.0,0.0,0.0,0.0,0.0,0.0,0.0,0.0,0.0,0.0,0.0,0.0,0.0,0.0,0.0,0.0,0.0,0.0,0.0,0.0,0.0,0.0,0.0,0.0,0.0,0.0,0.0,0.0,0.0,0.0,0.0,0.0,0.0,0.0,0.0,0.0,0.0,0.0,0.0,0.0,0.0,0.0,0.0,0.0,0.0,0.0,0.0,0.0,0.0,0.0,0.0,0.0,0.0,0.0,0.0,0.0,0.0,0.0,0.0,0.0,0.0,0.0,0.0,0.0,0.0,0.0,0.0,0.0,0.0,0.0,0.0,0.0,0.0,0.0,0.0,0.0,0.0,0.0,0.0,0.0,0.0,0.0,0.0,0.0,0.0,0.0,0.0,0.0,0.0,0.0,0.0,0.0,0.0,0.0,0.0,0.0,0.0,0.0,0.0,0.0,0.0,0.0,0.0,0.0,0.0,0.0,0.0,0.0,0.0,0.0,0.0,0.0,0.0,0.0,0.0,0.0,0.0,0.0,0.0,0.0,0.0,0.0,0.0,0.0,0.0,0.0,0.0,0.0,0.0,0.0,0.0,0.0,0.0,0.0,0.0,0.0,0.0,0.0,0.0,0.0,0.0,0.0,0.0,0.0,0.0,0.0,0.0,0.0,0.0,0.0,0.0,0.0,0.0,0.0,0.0,0.0,0.0,0.0,0.0,0.0,0.0,0.0,0.0,0.0,0.0,0.0,0.0,0.0,0.0,0.0,0.0,0.0,0.0,0.0,0.0,0.0,0.0,0.0,0.0,0.0,0.0,0.0,0.0,0.0,0.0,0.0,0.0,0.0,0.0,0.0,0.0,0.0,0.0,0.0,0.0,0.0,0.0,0.0,0.0,0.0,0.0,0.0,0.0,0.0,0.0,0.0,0.0,0.0,0.0,0.0,0.0,0.0,0.0,0.0,0.0,0.0,0.0,0.0,0.0,0.0,0.0,0.0,0.0,0.0,0.0,0.0,0.0,0.0,0.0,0.0,0.0,0.0,0.0,0.0,0.0,0.0,0.0,0.0,0.0,0.0,0.0,0.0,0.0,0.0,0.0,0.0,0.0,0.0,0.0,0.0,0.0,0.0,0.0,0.0,0.0,0.0,0.0,0.0,0.0,0.0,0.0,0.0,0.0,0.0,0.0,0.0,0.0,0.0,0.0,0.0,0.0,0.0,0.0,0.0,0.0,0.0,0.0,0.0,0.0,0.0,0.0,0.0,0.0,0.0,0.0,0.0,0.0,0.0,0.0,0.0,0.0,0.0,0.0,0.0,0.0,0.0,0.0,0.0,0.0,0.0,0.0,0.0,0.0,0.0,0.0,0.0,0.0,0.0,0.0,0.0,0.0,0.0,0.0,0.0,0.0,0.0,0.0,0.0,0.0,0.0,0.0,0.0,0.0,0.0,0.0,0.0,0.0,0.0,0.0,0.0,0.0,0.0,0.0,0.0,0.0,0.0,0.0,0.0,0.0,0.0,0.0,0.0,0.0,0.0,0.0,0.0,0.0,0.0,0.0,0.0,0.0,0.0,0.0,0.0,0.0,0.0,0.0,0.0,0.0,0.0,0.0,0.0,0.0,0.0,0.0,0.0,0.0,0.0,0.0,0.0,0.0,0.0,0.0,0.0,0.0,0.0,0.0,0.0,0.0,0.0,0.0,0.0,0.0,0.0,0.0,0.0,0.0,0.0,0.0,0.0,0.0,0.0,0.0,0.0,0.0,0.0,0.0,0.0,0.0,0.0,0.0,0.0,0.0,0.0,0.0,0.0,0.0,0.0,0.0,0.0,0.0,0.0,0.0,0.0,0.0,0.0,0.0,0.0,0.0,0.0,0.0,0.0,0.0,0.0,0.0,0.0,0.0,0.0,0.0,0.0,0.0,0.0,0.0,0.0,0.0,0.0,0.0,0.0,0.0,0.0,0.0,0.0,0.0,0.0,0.0,0.0,0.0,0.0,0.0,0.0,0.0,0.0,0.0,0.0,0.0,0.0,0.0,0.0,0.0,0.0,0.0,0.0,0.0,0.0,0.0,0.0,0.0,0.0,0.0,0.0,0.0,0.0,0.0,0.0,0.0,0.0,0.0,0.0,0.0,0.0,0.0,0.0,0.0,0.0,0.0,0.0,0.0,0.0,0.0,0.0,0.0,0.0,0.0,0.0,0.0,0.0,0.0,0.0,0.0,0.0,0.0,0.0,0.0,0.0,0.0,0.0,0.0,0.0,0.0,0.0,0.0,0.0,0.0,0.0,0.0,0.0,0.0,0.0,0.0,0.0,0.0,0.0,0.0,0.0,0.0,0.0,0.0,0.0,0.0,0.0,0.0,0.0,0.0,0.0,0.0,0.0,0.0,0.0,0.0,0.0,0.0,0.0,0.0,0.0,0.0,0.0,0.0,0.0,0.0,0.0,0.0,0.0,0.0,0.0,0.0,0.0,0.0,0.0,0.0,0.0,0.0,0.0,0.0,0.0,0.0,0.0,0.0,0.0,0.0,0.0,0.0,0.0,0.0,0.0,0.0,0.0,0.0,0.0,0.0,0.0,0.0,0.0,0.0,0.0,0.0,0.0,0.0,0.0,0.0,0.0,0.0,0.0,0.0,0.0,0.0,0.0,0.0,0.0,0.0,0.0,0.0,0.0,0.0,0.0,0.0,0.0,0.0,0.0,0.0,0.0,0.0,0.0,0.0,0.0,0.0,0.0,0.0,0.0,0.0,0.0,0.0,0.0,0.0,0.0,0.0,0.0,0.0,0.0,0.0,0.0,0.0,0.0,0.0,0.0,0.0,0.0,0.0,0.0,0.0,0.0,0.0,0.0,0.0,0.0,0.0,0.0,0.0,0.0,0.0,0.0,0.0,0.0,0.0,0.0,0.0,0.0,0.0,0.0,0.0,0.0,0.0,0.0,0.0,0.0,0.0,0.0,0.0,0.0,0.0,0.0,0.0,0.0,0.0,0.0,0.0,0.0,0.0,0.0,0.0,0.0,0.0,0.0,0.0,0.0,0.0,0.0,0.0,0.0,0.0,0.0,0.0,0.0,0.0,0.0,0.0,0.0,0.0,0.0,0.0,0.0,0.0,0.0,0.0,0.0,0.0,0.0,0.0,0.0,0.0,0.0,0.0,0.0,0.0,0.0,0.0,0.0,0.0,0.0,0.0,0.0,0.0,0.0,0.0,0.0,0.0,0.0,0.0,0.0,0.0,0.0,0.0,0.0,0.0,0.0,0.0,0.0,0.0,0.0,0.0,0.0,0.0,0.0,0.0,0.0,0.0,0.0,0.0,0.0,0.0,0.0,0.0,0.0,0.0,0.0,0.0,0.0,0.0,0.0,0.0,0.0,0.0,0.0,0.0,0.0,0.0,0.0,0.0,0.0,0.0,0.0,0.0,0.0,0.0,0.0,0.0,0.0,0.0,0.0,0.0,0.0,0.0,0.0,0.0,0.0,0.0,0.0,0.0,0.0,0.0,0.0,0.0,0.0,0.0,0.0,0.0,0.0,0.0,0.0,0.0,0.0,0.0,0.0,0.0,0.0,0.0,0.0,0.0,0.0,0.0,0.0,0.0,0.0,0.0,0.0,0.0,0.0,0.0,0.0,0.0,0.0,0.0,0.0,0.0,0.0,0.0,0.0,0.0,0.0,0.0,0.0,0.0,0.0,0.0,0.0,0.0,0.0,0.0,0.0,0.0,0.0,0.0,0.0,0.0,0.0,0.0,0.0,0.0,0.0,0.0,0.0,0.0,0.0,0.0,0.0,0.0,0.0,0.0,0.0,0.0,0.0,0.0,0.0,0.0,0.0,0.0,0.0,2.263,0.0,0.0,0.0,0.0,0.0,0.0,0.0,0.0,0.0,0.0,0.0,0.0,0.0,0.0,0.0,0.0,0.0,0.0,0.0,0.0,0.0,0.0,0.0,0.0,0.0,0.0,0.0,-0.7117,-0.0525,0.5016,1.0944,1.6972,2.3145,2.3671,2.3937,2.4209,2.4284,2.4375,2.4513,2.1369,1.8073,1.4766,1.813,1.9795,2.008,0.0,0.0,0.0,0.0,0.0,0.0,0.0,0.0,0.0,0.0,0.0,0.0,0.0,0.0,0.0,0.0,0.0,0.0,0.0,0.0,0.0,0.0,0.0,0.0,0.0,0.0,0.0,0.0,0.0,0.0,0.0,0.0,0.0,0.0,0.0,0.0,0.0,0.0,0.0,0.0,0.0,0.0,0.0,0.0,0.0,0.0,0.0,0.0,0.0,0.0,0.0,0.0,0.0,0.0,0.0,0.0,0.0,0.0,0.0,0.0,0.0,0.0,0.0,0.0,0.0,0.0,0.0,0.0,0.0,0.0,0.0,2.3003,0.0,0.0,0.0,0.0,0.0,0.0,0.0,0.0,0.0,0.0,0.0,0.0,0.0,0.0,0.0,0.0,0.0,0.0,0.0,0.0,0.0,0.0,0.0,0.0,-1.3569,-1.4061,-1.1909,-0.6608,0.2609,0.4645,1.032,2.1071,2.199,2.2808,2.4075,2.421,2.3731,2.2588,1.5034,1.124,1.1123,1.2102,1.2706,0.0,0.0,0.0,0.0,0.0,0.0,0.0,0.0,0.0,0.0,0.0,0.0,0.0,0.0,0.0,0.0,0.0,0.0,0.0,0.0,0.0,0.0,0.0,0.0,0.0,0.0,0.0,0.0,0.0,0.0,0.0,0.0,0.0,0.0,0.0,0.0,0.0,0.0,0.0,0.0,0.0,0.0,0.0,0.0,0.0,0.0,0.0,0.0,0.0,0.0,0.0,0.0,0.0,0.0,0.0,0.0,0.0,0.0,0.0,0.0,0.0,0.0,0.0,0.0,0.0,2.4876,2.4944,2.5269,2.505,2.4688,2.4298,2.4331,2.4116,2.3753,2.4154,0.0,0.0,0.0,0.0,0.0,0.0,0.0,0.0,0.0,0.0,0.0,0.0,0.0,0.0,0.0,0.0,0.0,0.0,0.0,0.0,0.0,-1.4419,-1.4305,-1.4411,-0.9134,-0.5013,-0.312,0.1868,0.8052,1.5463,1.5856,1.8468,2.3983,2.4172,2.144,1.5774,0.3479,-0.2643,-0.2658,0.2974,0.0,0.0,0.0,0.0,0.0,0.0,0.0,0.0,0.0,0.0,0.0,0.0,0.0,0.0,0.0,0.0,0.0,0.0,0.0,0.0,0.0,0.0,0.0,0.0,0.0,0.0,0.0,0.0,0.0,0.0,0.0,0.0,0.0,0.0,0.0,0.0,0.0,0.0,0.0,0.0,0.0,0.0,0.0,0.0,0.0,0.0,2.3094,2.2905,0.0,0.0,0.0,0.0,0.0,0.0,0.0,0.0,0.0,0.0,0.0,0.0,0.0,2.523,2.4718,2.4637,2.476,2.5096,2.508,2.538,2.598,2.5911,2.5876,2.5789,2.5468,0.0,2.3032,2.3087,0.0,0.0,0.0,0.0,0.0,0.0,0.0,0.0,0.0,0.0,0.0,0.0,0.0,0.0,0.0,0.0,0.0,0.0,0.0,0.0,0.0,-1.5849,-1.5695,-1.5991,-1.2573,-0.9025,-0.5773,-0.2339,0.3894,1.3722,1.454,1.7716,2.408,2.0551,1.3576,0.3194,-0.2791,-0.5564,-0.5214,-0.2667,0.0,0.0,0.0,0.0,2.4336,2.4586,0.0,0.0,0.0,0.0,0.0,0.0,0.0,0.0,0.0,0.0,0.0,0.0,0.0,0.0,0.0,0.0,0.0,0.0,0.0,0.0,0.0,0.0,0.0,0.0,0.0,0.0,0.0,0.0,0.0,0.0,0.0,0.0,0.0,0.0,0.0,0.0,0.0,0.0,0.0,2.3424,2.3183,2.3093,2.362,2.3999,0.0,0.0,0.0,0.0,0.0,0.0,0.0,0.0,0.0,2.5113,2.5802,2.5948,2.5514,2.605,2.6455,2.6621,2.7093,2.7444,2.7746,2.7746,2.7621,2.7383,2.7196,2.6399,2.5243,2.4936,2.4917,2.5107,0.0,0.0,0.0,0.0,2.511,2.5041,0.0,0.0,0.0,0.0,0.0,0.0,0.0,0.0,0.0,0.0,0.0,0.0,-1.7652,-1.7128,-1.6994,-1.7289,-1.5911,-1.3336,-0.9299,-0.756,-0.1946,0.856,0.9828,1.3868,2.1547,1.4933,0.5631,-0.6119,-0.8072,-0.8632,0.0,0.0,0.0,0.0,0.0,0.0,0.0,2.133,2.2246,0.0,0.0,0.0,0.0,0.0,0.0,0.0,0.0,0.0,0.0,0.0,0.0,0.0,0.0,0.0,0.0,0.0,0.0,0.0,0.0,0.0,0.0,0.0,0.0,0.0,0.0,0.0,0.0,0.0,0.0,0.0,0.0,0.0,0.0,0.0,0.0,0.0,0.0,2.3305,2.333,2.3337,2.4048,2.4523,0.0,0.0,0.0,0.0,0.0,0.0,2.5603,2.5959,2.6152,2.6116,2.6876,2.7128,2.6847,2.7683,2.8112,2.8129,2.8704,2.9011,2.8991,2.8901,2.8699,2.8417,2.8417,2.7914,2.7037,2.6482,2.6036,2.5832,2.6023,2.6156,2.6191,2.5799,2.5615,2.554,0.0,0.0,0.0,0.0,0.0,0.0,0.0,0.0,0.0,0.0,0.0,-1.8726,-1.7531,-1.7638,-1.7783,-1.7679,-1.6566,-1.5787,-1.5727,-1.385,-1.0021,-0.3947,-0.2604,0.3234,1.4457,0.7339,-0.0112,-0.748,0.0,0.0,0.0,0.0,0.0,0.0,0.0,0.0,0.0,0.0,0.0,1.613,0.0,0.0,0.0,0.0,0.0,0.0,0.0,0.0,0.0,0.0,0.0,0.0,0.0,0.0,0.0,0.0,0.0,0.0,0.0,0.0,0.0,0.0,0.0,0.0,0.0,0.0,0.0,0.0,0.0,0.0,0.0,0.0,0.0,0.0,0.0,0.0,0.0,0.0,0.0,2.3482,2.41,0.0,0.0,0.0,0.0,2.5627,2.5556,2.6084,2.7483,2.7619,2.8044,2.8789,2.8856,2.8856,2.8856,2.8907,2.8924,2.8924,2.8958,2.9011,2.8975,2.8607,2.8417,2.8417,2.8417,2.7914,2.7042,2.6338,2.6036,2.6013,2.5385,2.5443,2.5783,2.5307,2.513,2.5052,0.0,0.0,0.0,0.0,0.0,0.0,0.0,0.0,-1.9859,-1.9651,-2.0024,-1.9924,-1.8977,-1.9302,-1.9462,-1.9177,-1.8387,-1.7638,-1.7085,-1.5213,-0.9321,0.1495,-0.0959,-0.1319,0.1354,-0.2096,-0.7488,-1.4806,0.0,0.0,0.0,0.0,0.0,0.0,0.0,0.0,0.0,0.0,0.0,0.0,0.0,1.8775,0.0,0.0,0.0,0.0,0.0,0.0,0.0,0.0,0.0,0.0,0.0,0.0,0.0,0.0,0.0,0.0,0.0,0.0,0.0,0.0,0.0,0.0,0.0,0.0,0.0,0.0,0.0,0.0,0.0,0.0,0.0,0.0,0.0,0.0,0.0,0.0,0.0,2.4419,2.494,0.0,2.5323,2.6177,2.6758,2.6927,2.7311,2.7796,2.839,2.8533,2.8687,2.8975,2.9011,2.9011,2.9011,2.9922,3.0412,3.0412,3.1376,3.1833,3.1833,3.1695,3.1614,3.158,3.1133,3.041,2.944,2.8281,2.7348,2.6683,2.643,2.6443,2.6509,2.6083,2.5944,2.5901,0.0,0.0,0.0,0.0,0.0,0.0,0.0,0.0,-2.0465,-2.0602,-2.1007,-2.1038,-2.0335,-2.0585,-2.0616,-2.0185,-1.9376,-1.8602,-1.7963,-1.6268,-1.133,-0.2382,-0.3581,-0.6404,-1.0429,-0.9437,-1.24,0.0,0.0,0.0,0.0,0.0,0.0,0.0,0.0,0.0,0.0,0.0,0.0,0.0,0.0,0.0,1.6352,0.0,0.0,0.0,0.0,0.0,0.0,0.0,0.0,0.0,0.0,0.0,0.0,0.0,0.0,0.0,0.0,0.0,0.0,0.0,0.0,0.0,0.0,0.0,0.0,0.0,0.0,0.0,0.0,0.0,0.0,0.0,0.0,0.0,0.0,0.0,2.4961,2.5506,2.5975,2.6354,2.6624,2.7518,2.8,2.7868,2.8356,2.8896,2.9458,2.9606,2.9918,3.0463,3.048,3.048,3.048,3.1444,3.1935,3.1952,3.2933,3.3406,3.3406,3.3406,3.3305,3.31,3.2597,3.1874,3.089,2.9958,2.9019,2.8045,2.7152,2.6792,2.6748,2.6454,2.638,2.638,0.0,0.0,0.0,0.0,0.0,0.0,0.0,-2.1687,-2.1086,-2.1371,-2.1831,-2.1933,-2.146,-2.1401,-2.1146,-2.0481,-1.9398,-1.8697,-1.8699,-1.7378,-1.6669,-1.691,-1.1618,-1.2238,-1.9874,-1.4449,0.0,0.0,0.0,0.0,0.0,0.0,0.0,0.0,0.0,0.0,0.0,0.0,0.0,0.0,0.0,0.0,1.608,0.0,0.0,0.0,0.0,0.0,0.0,0.0,0.0,0.0,0.0,0.0,0.0,0.0,0.0,0.0,0.0,0.0,0.0,0.0,0.0,0.0,0.0,0.0,0.0,0.0,0.0,0.0,0.0,0.0,0.0,0.0,0.0,0.0,2.4863,2.5178,2.5747,2.664,2.7069,2.7616,2.8405,2.8483,2.8478,2.8478,2.855,2.9315,3.0855,3.1043,3.178,3.3355,3.3406,3.3406,3.3406,3.3423,3.344,3.344,3.3457,3.3474,3.3474,3.3474,3.3201,3.2685,3.2652,3.2087,3.1176,3.116,3.0876,3.0166,2.7534,2.6503,2.6503,2.6472,2.6472,2.6503,0.0,0.0,0.0,0.0,0.0,0.0,0.0,-2.2716,-2.218,-2.2253,-2.2607,-2.2582,-2.1987,-2.1616,-2.125,-2.0863,-2.0028,-1.9266,-1.8755,-1.8214,-1.7791,-1.7361,-1.3003,0.0,-2.0602,0.0,0.0,0.0,0.0,0.0,0.0,0.0,0.0,0.0,0.0,0.0,0.0,0.0,0.0,0.0,0.0,0.0,0.8931,0.0,0.0,0.0,0.0,0.0,0.0,0.0,0.0,0.0,0.0,0.0,0.0,0.0,0.0,0.0,0.0,0.0,0.0,0.0,0.0,0.0,0.0,0.0,0.0,0.0,0.0,0.0,0.0,0.0,0.0,0.0,2.5983,2.6033,2.5326,2.6031,2.6753,2.7097,2.7686,2.818,2.8395,2.9317,2.9971,3.0052,3.1091,3.19,3.2412,3.253,3.2799,3.3246,3.3364,3.3406,3.3406,3.3931,3.4201,3.4201,3.4742,3.5013,3.5013,3.5013,3.4712,3.4203,3.4052,3.3396,3.245,3.2343,3.1757,3.0864,2.9732,2.9319,2.9319,2.9304,2.9304,2.9319,0.0,0.0,0.0,0.0,0.0,0.0,0.0,-2.3244,-2.2863,-2.3094,-2.3285,-2.3244,-2.2858,-2.2262,-2.1759,-2.1427,-2.0787,-2.0191,-1.9696,-1.9737,0.0,0.0,0.0,0.0,0.0,0.0,0.0,0.0,0.0,0.0,0.0,0.0,0.0,0.0,0.0,0.0,0.0,0.0,0.0,0.0,0.0,0.0,0.5868,1.4467,2.0076,2.3711,2.612,2.702,2.6958,2.6274,0.0,0.0,0.0,0.0,0.0,0.0,0.0,0.0,0.0,0.0,0.0,0.0,0.0,0.0,0.0,0.0,0.0,0.0,0.0,0.0,0.0,0.0,0.0,0.0,2.6617,2.6754,2.6482,2.6918,2.748,2.8103,2.8646,2.9165,2.9715,3.0547,3.1205,3.1523,3.232,3.2979,3.3412,3.356,3.3799,3.4162,3.425,3.4336,3.4336,3.4759,3.5131,3.5453,3.5571,3.5791,3.6096,3.5774,3.5316,0.0,3.4664,3.4187,3.3437,3.3303,3.2885,0.0,0.0,0.0,0.0,0.0,3.0603,3.0428,0.0,0.0,0.0,0.0,0.0,0.0,0.0,-2.3538,-2.3392,-2.3828,-2.3906,-2.3906,-2.3908,-2.3218,-2.2528,-2.2055,-2.165,-2.1366,-2.1346,0.0,0.0,0.0,0.0,0.0,0.0,0.0,0.0,0.0,0.0,0.0,0.0,0.0,0.0,0.0,0.0,0.0,0.0,0.0,0.0,0.0,0.0,0.0,0.3965,0.5838,1.1131,1.8524,2.5887,2.8228,2.7727,2.7117,0.0,0.0,0.0,0.0,0.0,0.0,0.0,0.0,0.0,0.0,0.0,0.0,0.0,0.0,0.0,0.0,0.0,0.0,0.0,0.0,0.0,0.0,0.0,0.0,2.7229,2.7352,2.8046,2.7946,2.8255,2.9386,2.9809,3.0456,3.1626,3.1978,3.2294,3.2812,3.2895,3.3305,3.4189,0.0,0.0,0.0,0.0,3.583,3.583,3.583,3.6231,3.6907,3.6214,3.6231,3.6891,3.6197,3.5585,3.5081,3.5129,3.484,3.4379,3.4429,3.4429,3.4133,3.2285,3.1496,3.1496,3.1446,3.1111,3.0695,0.0,0.0,0.0,0.0,0.0,0.0,0.0,-2.4284,-2.4302,-2.451,-2.4526,-2.4572,-2.4693,-2.3969,-2.3244,-2.2676,-2.2592,-2.2866,0.0,0.0,0.0,0.0,0.0,0.0,0.0,0.0,0.0,0.0,0.0,0.0,0.0,0.0,0.0,0.0,0.0,0.0,0.0,0.0,0.0,0.0,0.0,0.0,-0.5477,0.843,1.4939,1.7662,2.5342,2.8288,2.8417,2.7809,2.767,2.7736,2.7537,0.0,0.0,0.0,0.0,0.0,0.0,0.0,0.0,0.0,0.0,0.0,0.0,0.0,0.0,0.0,0.0,0.0,0.0,0.0,0.0,2.7311,2.768,2.8356,2.9426,2.9758,2.9996,3.0194,3.1238,3.2093,3.2464,3.3053,3.3482,3.3574,3.4137,3.48,3.5577,3.5849,3.6296,3.6919,3.7275,3.7418,3.7306,3.7418,3.7533,3.7686,0.0,0.0,3.7686,3.7533,3.7146,3.6688,3.7097,3.7,3.6521,3.6951,3.6886,3.6323,3.4232,3.3482,3.3416,3.2958,3.2751,3.261,0.0,0.0,0.0,0.0,0.0,0.0,0.0,-2.4704,-2.4719,-2.4794,-2.4734,-2.4738,-2.4794,-2.4169,-2.3628,-2.3315,-2.3724,0.0,0.0,0.0,0.0,0.0,0.0,0.0,0.0,0.0,0.0,0.0,0.0,0.0,0.0,0.0,0.0,0.0,0.0,0.0,0.0,0.0,0.0,0.0,0.0,0.0,-1.5579,0.2956,1.2657,1.7562,2.6347,2.9432,2.9258,2.8645,2.8509,2.8485,2.8085,2.7951,2.7841,0.0,0.0,0.0,0.0,0.0,0.0,0.0,0.0,0.0,0.0,0.0,0.0,0.0,0.0,2.7227,2.7363,0.0,2.7466,2.7958,2.8621,2.9419,3.0324,3.1283,3.1765,3.1468,3.2158,3.2812,3.3197,3.3656,3.42,3.4866,3.5247,3.5777,3.6522,3.6753,3.6969,3.7303,3.7616,3.7761,3.7696,3.7858,3.8091,3.8447,3.8091,3.8091,3.8447,3.8075,3.7745,3.7533,3.7793,3.7745,3.7533,3.781,3.7745,3.7417,3.6339,3.5629,3.5088,3.4828,3.4526,3.4218,0.0,0.0,0.0,0.0,0.0,0.0,0.0,-2.4902,-2.4915,-2.4942,-2.4847,-2.4794,-2.4823,-2.4383,-2.4099,-2.4147,-2.4639,0.0,0.0,0.0,0.0,0.0,0.0,0.0,0.0,0.0,0.0,0.0,0.0,0.0,0.0,0.0,0.0,0.0,0.0,0.0,0.0,0.0,0.0,0.0,0.0,0.0,-2.2935,-0.3251,0.8207,1.5312,2.6845,3.054,2.9874,2.9447,2.9337,2.925,2.8666,2.8404,2.8281,2.8111,2.7987,0.0,0.0,0.0,0.0,0.0,0.0,0.0,0.0,0.0,2.785,2.7252,2.7147,2.7229,2.7379,2.7564,2.7982,2.8858,2.9686,3.0449,3.1218,3.2414,3.311,3.2886,3.3014,3.3437,3.4157,3.4366,3.4955,3.6109,3.6224,3.6539,3.7284,3.7419,3.7552,3.7685,3.7986,3.8117,3.8068,3.8231,3.8633,3.9191,3.8616,3.8633,3.9191,3.8599,3.8328,3.8328,3.8328,3.8328,3.8328,3.8328,3.8328,3.8328,3.8328,3.7786,3.697,3.6393,3.5937,3.5443,0.0,0.0,0.0,0.0,0.0,0.0,0.0,0.0,-2.4936,-2.5049,-2.5061,-2.5103,-2.5222,-2.5163,-2.5171,-2.5297,0.0,0.0,0.0,0.0,0.0,0.0,0.0,0.0,0.0,0.0,0.0,0.0,0.0,0.0,0.0,0.0,0.0,0.0,0.0,0.0,0.0,0.0,0.0,0.0,0.0,0.0,-2.2498,-0.3422,0.4139,0.6829,2.4569,3.0396,2.9769,2.9994,3.0163,3.0247,3.0233,3.0167,2.9979,2.9245,0.0,2.8677,2.7912,2.77,2.773,2.7797,2.7897,2.7653,0.0,0.0,2.6838,2.5977,2.6504,2.704,2.683,2.805,2.9247,2.9702,3.0344,3.1283,3.2659,3.2983,3.3372,3.404,3.4219,3.4677,3.5645,3.5778,3.6142,3.6936,3.6986,3.7317,3.8046,3.8218,3.8517,3.906,3.9443,3.9597,3.9495,3.9733,3.9884,3.9952,3.9868,3.9884,3.9952,3.9868,3.9834,3.9834,3.9834,3.9834,3.9834,3.9834,3.9834,3.9834,3.9834,3.9767,3.9396,3.7085,3.6136,3.6029,0.0,0.0,0.0,0.0,0.0,0.0,0.0,0.0,0.0,-2.5222,-2.5149,-2.5126,-2.5171,-2.5115,-2.5285,0.0,0.0,0.0,0.0,0.0,0.0,0.0,0.0,0.0,0.0,0.0,0.0,0.0,0.0,0.0,0.0,0.0,0.0,0.0,0.0,0.0,0.0,0.0,0.0,0.0,0.0,0.0,-2.4118,-0.821,-0.0138,0.5142,2.3824,2.7524,0.0,0.0,3.0231,3.0501,3.0511,3.0443,3.0355,3.0098,2.9832,0.0,2.8537,2.8287,2.8182,2.7857,2.7771,2.7607,2.692,2.6822,2.6826,2.6517,2.6808,2.7268,2.7835,2.8674,2.9568,0.0,3.1089,3.1915,3.2951,3.3437,3.3989,3.4854,3.5086,3.535,3.5828,3.634,3.6953,3.7698,3.7748,3.8063,3.8791,3.8877,3.9063,3.9309,3.9625,3.9781,3.9677,3.9986,4.007,4.007,4.007,4.007,4.007,4.007,4.007,4.007,4.007,4.007,4.007,4.007,4.007,4.007,4.007,4.007,3.9952,3.8457,3.7978,3.7855,0.0,0.0,0.0,0.0,0.0,0.0,0.0,0.0,0.0,0.0,-2.5222,-2.516,-2.516,-2.5043,0.0,0.0,0.0,0.0,0.0,0.0,0.0,0.0,0.0,0.0,0.0,0.0,0.0,0.0,0.0,0.0,0.0,0.0,0.0,0.0,0.0,0.0,0.0,0.0,0.0,0.0,0.0,0.0,-2.4997,-1.2052,-0.4237,0.2211,2.0738,2.5015,0.0,0.0,3.0221,3.0523,3.0554,3.0505,3.0444,3.0598,3.041,2.9969,2.9191,2.8839,2.8536,2.7956,2.7683,2.7504,2.7172,2.7139,2.7199,2.7094,2.7561,2.8141,2.8829,2.9338,3.0071,3.1157,3.1702,3.2319,3.3242,3.3793,3.4426,3.5242,3.5673,3.6022,3.6337,3.6984,3.7715,3.8444,3.851,3.8725,3.9239,3.9272,3.9272,3.9272,3.9573,3.9677,3.9677,3.9986,4.007,4.007,4.007,4.007,4.007,4.007,4.007,4.007,4.007,4.007,4.007,4.007,4.007,4.007,4.007,4.007,4.007,3.9592,3.9365,3.9152,0.0,0.0,0.0,0.0,0.0,0.0,0.0,0.0,0.0,0.0,0.0,0.0,0.0,0.0,0.0,0.0,0.0,0.0,0.0,0.0,0.0,0.0,0.0,0.0,0.0,0.0,0.0,0.0,0.0,0.0,0.0,0.0,0.0,0.0,0.0,0.0,0.0,0.0,0.0,0.0,0.0,0.0,-2.4123,-1.2978,-0.801,-0.4628,1.3674,0.0,0.0,0.0,3.0183,3.035,3.0605,3.0604,0.0,3.0662,3.0518,3.0203,2.9779,2.9289,2.8805,2.846,2.7926,2.743,2.7158,2.7552,2.7807,2.7226,2.8699,2.9918,2.9376,3.0102,3.1149,3.227,3.2213,3.2481,3.3874,3.4084,3.4376,3.5104,3.6062,3.6937,0.0,3.8005,3.8477,3.9189,3.9239,3.9255,3.9272,3.9272,3.9272,3.9272,3.9573,3.9677,3.9677,3.9986,4.007,4.007,4.007,4.007,4.007,4.007,4.007,4.007,4.007,4.007,4.007,4.007,4.007,4.007,4.007,4.007,4.007,4.007,3.9696,3.9206,0.0,0.0,0.0,0.0,0.0,0.0,0.0,0.0,0.0,0.0,0.0,0.0,0.0,0.0,0.0,0.0,0.0,0.0,0.0,0.0,0.0,0.0,0.0,0.0,0.0,0.0,0.0,0.0,0.0,0.0,0.0,0.0,0.0,0.0,0.0,0.0,0.0,0.0,0.0,0.0,0.0,0.0,-2.387,-1.714,-0.8609,0.0794,0.0,0.0,0.0,0.0,0.0,0.0,3.0546,3.056,3.0574,3.0563,3.0492,3.029,2.9623,2.9174,2.8782,2.8254,2.8344,2.8486,2.8219,2.862,2.9094,2.9141,2.9945,3.0623,3.051,3.1057,3.1764,3.2513,3.2455,3.2765,3.3956,3.4101,3.4605,3.5909,3.6424,0.0,0.0,0.0,0.0,3.9255,3.9272,3.9272,3.9272,3.9272,3.9451,3.9782,3.9625,3.9764,4.017,4.002,3.9986,4.007,4.007,4.007,4.007,4.007,4.007,4.007,4.007,4.007,4.007,4.007,4.0138,4.0238,4.0238,4.0238,4.0238,4.0238,4.007,3.9969,0.0,0.0,0.0,0.0,0.0,0.0,0.0,0.0,0.0,0.0,0.0,0.0,0.0,0.0,0.0,0.0,0.0,0.0,0.0,0.0,0.0,0.0,0.0,0.0,0.0,0.0,0.0,0.0,0.0,0.0,0.0,0.0,0.0,0.0,0.0,0.0,0.0,0.0,0.0,0.0,0.0,0.0,-2.2903,-1.6398,-0.6529,0.0,0.0,0.0,0.0,0.0,0.0,3.0412,3.0474,3.0552,3.0621,3.0567,3.0528,3.0364,2.9718,2.9326,2.9092,2.893,2.9098,2.934,2.9491,2.9964,3.0361,3.0382,3.1029,3.1549,3.1312,3.1625,3.2165,3.2967,3.2911,3.3131,3.4186,3.4382,3.4955,3.6339,3.6623,3.7301,0.0,0.0,0.0,3.9272,3.9272,3.9272,3.9272,3.9272,3.9504,4.0003,3.9885,4.0087,4.0625,4.0514,4.0434,4.0353,4.0171,4.007,4.007,4.007,4.007,4.007,4.007,4.007,4.007,4.007,4.0138,4.0238,4.0305,4.0288,4.0238,4.0305,4.0355,4.0387,0.0,0.0,0.0,0.0,0.0,0.0,0.0,0.0,0.0,0.0,0.0,0.0,0.0,0.0,0.0,0.0,0.0,0.0,0.0,0.0,0.0,0.0,0.0,0.0,0.0,0.0,0.0,0.0,0.0,0.0,0.0,0.0,0.0,0.0,0.0,0.0,0.0,0.0,0.0,0.0,0.0,0.0,-2.1133,-1.1187,0.0,0.0,0.0,0.0,0.0,0.0,0.0,3.0247,3.0458,3.0594,3.0683,3.0623,3.056,3.0443,3.0094,2.9794,2.9719,3.0358,3.0186,3.0079,3.0894,3.1448,3.1613,3.0941,3.1954,3.2663,0.0,0.0,3.2366,3.363,3.3529,3.3631,3.4572,3.4833,3.5363,0.0,0.0,0.0,0.0,0.0,0.0,3.9272,0.0,3.9272,3.9272,3.9272,3.9504,4.0003,4.0252,4.0625,4.1122,4.1393,4.1276,4.0849,4.0353,4.0171,4.0171,4.0121,4.0121,4.0121,4.0121,4.007,4.007,4.007,4.0138,4.0121,4.0238,4.0238,4.0138,4.0288,4.0387,4.0485,0.0,0.0,0.0,0.0,0.0,0.0,0.0,0.0,0.0,0.0,0.0,0.0,0.0,0.0,0.0,0.0,0.0,0.0,0.0,0.0,0.0,0.0,0.0,0.0,0.0,0.0,0.0,0.0,0.0,0.0,0.0,0.0,0.0,0.0,0.0,0.0,0.0,0.0,0.0,0.0,0.0,0.0,-1.9876,0.0,0.0,0.0,0.0,0.0,0.0,0.0,0.0,0.0,3.0632,3.075,3.076,3.0689,3.0587,3.0432,3.0088,3.033,3.0714,3.077,3.1452,3.209,3.2104,3.2528,3.2787,3.241,3.2883,3.3237,0.0,0.0,0.0,3.4082,3.3594,0.0,3.4541,3.448,0.0,3.6443,0.0,3.7354,3.9069,3.9272,0.0,0.0,3.9272,3.9272,3.9272,3.9272,3.9713,4.0563,4.0252,4.0625,4.1692,4.1587,4.1437,4.1321,4.0832,4.0784,4.1139,4.0434,4.0303,4.0628,4.0254,4.007,4.007,4.007,4.0221,4.037,4.0436,4.0436,4.0419,4.0551,4.0551,4.0534,0.0,0.0,0.0,0.0,0.0,0.0,0.0,0.0,0.0,0.0,0.0,0.0,0.0,0.0,0.0,0.0,0.0,0.0,0.0,0.0,0.0,0.0,0.0,0.0,0.0,0.0,0.0,0.0,0.0,0.0,0.0,0.0,0.0,0.0,0.0,0.0,0.0,0.0,0.0,0.0,0.0,0.0,0.0,0.0,0.0,0.0,0.0,0.0,0.0,0.0,0.0,3.0368,3.0703,3.0792,3.0749,3.0637,3.0556,3.043,3.0158,3.0605,3.1199,3.1487,3.2327,3.3119,3.3343,3.3623,3.3784,3.3488,3.3773,0.0,3.3515,3.3281,0.0,0.0,0.0,0.0,3.4376,3.4634,3.5167,0.0,3.6753,0.0,3.899,3.9408,3.9592,0.0,3.9415,3.9272,3.9272,3.9272,3.9747,4.0754,4.0607,4.1105,4.2338,4.199,4.1803,4.1803,4.1321,4.123,4.1481,4.0955,4.0879,4.1111,0.0,4.0402,4.0402,4.0171,4.0171,4.037,4.0628,4.058,4.037,4.0836,4.0741,4.0534,0.0,0.0,0.0,0.0,0.0,0.0,0.0,0.0,0.0,0.0,0.0,0.0,0.0,0.0,0.0,0.0,0.0,0.0,0.0,0.0,0.0,0.0,0.0,0.0,0.0,0.0,0.0,0.0,0.0,0.0,0.0,0.0,0.0,0.0,0.0,0.0,0.0,0.0,0.0,0.0,0.0,0.0,0.0,0.0,0.0,0.0,0.0,0.0,0.0,0.0,3.0174,3.028,3.0691,3.0767,3.0696,3.0575,3.0513,3.0485,3.0414,3.0895,3.1604,3.2422,3.3072,3.3688,3.4402,3.4593,3.4532,3.424,0.0,3.4574,3.3857,3.3542,3.3491,3.3812,0.0,3.434,3.4213,3.5009,3.5643,3.5762,3.6883,3.7976,3.8899,3.9662,4.0053,4.0003,3.9696,3.9415,3.9325,3.9379,3.9833,4.0849,4.1168,4.181,4.2844,4.2458,4.2279,4.2297,4.1803,4.1613,4.17,4.1569,4.1525,4.1569,4.1019,0.0,4.0754,4.0303,4.0121,4.0221,4.0784,4.0659,4.0271,4.0972,4.0943,4.0534,0.0,0.0,0.0,0.0,0.0,0.0,0.0,0.0,0.0,0.0,-2.5406,0.0,0.0,0.0,0.0,0.0,0.0,0.0,0.0,0.0,0.0,0.0,0.0,0.0,0.0,0.0,0.0,0.0,0.0,0.0,0.0,0.0,0.0,0.0,0.0,0.0,0.0,0.0,0.0,0.0,0.0,0.0,0.0,0.0,0.0,0.0,0.0,0.0,0.0,0.0,3.0266,3.0347,3.0754,3.0875,3.0831,3.0704,3.06,3.0625,3.1207,3.1928,3.2722,3.3525,3.4179,3.4661,3.4869,3.4735,0.0,0.0,3.4734,3.4713,3.448,3.4067,3.3862,3.4101,3.4129,3.4315,3.4795,3.4953,3.5492,0.0,3.728,3.8072,3.9345,4.0212,0.0,0.0,0.0,4.0187,3.9325,3.9696,4.0334,4.1338,4.2008,4.2454,4.2649,4.2729,4.2768,4.275,4.2279,4.2279,4.2616,4.1828,4.1717,4.2032,4.1157,0.0,4.0754,4.0303,4.0221,4.0419,4.0566,4.0517,4.0468,4.0853,4.0758,4.0534,0.0,0.0,0.0,0.0,0.0,0.0,0.0,0.0,0.0,0.0,-2.535,-2.5255,0.0,0.0,0.0,0.0,0.0,0.0,0.0,0.0,0.0,0.0,0.0,0.0,0.0,0.0,0.0,0.0,0.0,0.0,0.0,0.0,0.0,0.0,0.0,0.0,0.0,0.0,0.0,0.0,0.0,0.0,0.0,0.0,0.0,0.0,0.0,0.0,0.0,0.0,3.0158,3.0316,3.0755,3.0899,3.0871,3.0749,3.0652,3.0773,3.1507,3.2261,3.305,3.3876,3.4604,3.5122,3.5136,0.0,0.0,0.0,3.5157,3.5089,3.4811,3.4723,0.0,3.4407,3.4729,3.5039,3.5157,3.542,0.0,3.6473,3.7713,3.8735,0.0,4.0495,0.0,0.0,0.0,4.0368,3.9379,4.0037,4.0672,4.1168,4.2092,4.2649,4.2688,4.2824,4.2882,4.29,4.2673,4.2673,4.2882,4.244,4.236,4.2555,4.1846,0.0,4.1139,4.0659,4.0402,4.037,4.0926,4.0849,4.0468,4.1265,4.1146,4.0631,0.0,0.0,0.0,0.0,0.0,0.0,0.0,-2.5484,-2.5448,-2.5339,-2.5226,-2.4996,-2.4511,-2.4488,0.0,0.0,0.0,0.0,0.0,0.0,0.0,0.0,0.0,0.0,0.0,0.0,0.0,0.0,0.0,0.0,0.0,0.0,0.0,0.0,0.0,0.0,0.0,0.0,0.0,0.0,0.0,0.0,0.0,0.0,0.0,0.0,0.0,0.0,0.0,0.0,3.0018,3.0242,3.0658,3.0843,3.0868,3.0733,3.083,3.1129,3.1895,3.2657,3.3412,3.4256,3.4897,3.533,3.533,3.533,0.0,3.5412,3.546,3.5403,3.5037,3.5337,3.5408,0.0,3.5477,3.5985,3.5609,3.6029,3.6367,0.0,3.8139,0.0,3.9435,4.0768,0.0,0.0,0.0,0.0,3.9799,4.0417,4.0926,4.1196,4.2092,4.2649,4.2745,4.2862,4.2882,4.2882,4.2882,4.2882,4.2882,4.2882,4.2882,4.2882,4.2418,0.0,0.0,4.1139,4.0754,4.0531,4.1481,4.1321,4.0789,4.1821,4.1622,4.0853,0.0,0.0,0.0,0.0,0.0,0.0,0.0,-2.5456,-2.5464,-2.5401,-2.5018,-2.4544,-2.4019,-2.427,0.0,0.0,0.0,0.0,0.0,0.0,0.0,0.0,0.0,0.0,0.0,0.0,0.0,0.0,0.0,0.0,0.0,0.0,0.0,0.0,0.0,0.0,0.0,0.0,0.0,0.0,0.0,0.0,0.0,0.0,0.0,0.0,0.0,0.0,0.0,0.0,0.0,3.0158,3.0366,3.0645,3.0862,3.0739,0.0,0.0,3.285,3.3646,3.4438,3.5198,3.5434,3.5476,3.5468,0.0,3.5412,3.5493,3.5493,3.5432,3.5209,3.5647,3.5838,3.5236,0.0,3.6654,3.6433,3.6503,3.6776,3.7374,0.0,0.0,3.9797,4.1301,0.0,0.0,0.0,0.0,4.1293,4.0972,4.122,4.2145,4.2432,4.2609,4.2609,4.2824,4.2882,4.2882,4.2882,4.2882,4.2882,4.2882,4.2882,4.2882,4.2418,0.0,0.0,4.163,4.1499,4.1578,4.1778,4.1839,4.1796,4.2074,4.1803,4.1276,0.0,0.0,0.0,0.0,0.0,0.0,0.0,-2.5484,-2.5456,-2.5348,-2.5137,-2.4693,-2.3861,-2.3916,-2.3684,0.0,0.0,0.0,0.0,0.0,0.0,0.0,0.0,0.0,0.0,0.0,0.0,0.0,0.0,0.0,0.0,0.0,0.0,0.0,0.0,0.0,0.0,0.0,0.0,0.0,0.0,0.0,0.0,0.0,0.0,0.0,0.0,0.0,0.0,0.0,0.0,0.0,3.0177,3.0488,0.0,0.0,3.1348,3.2231,3.3093,3.3907,3.471,3.5496,3.5592,3.5523,3.5558,0.0,3.5412,3.5493,3.5493,3.5432,3.5242,3.6083,3.6635,0.0,0.0,0.0,3.7444,3.747,3.7523,3.7577,3.895,0.0,0.0,0.0,0.0,0.0,0.0,0.0,4.1472,4.1338,4.1383,4.1813,4.2351,4.2609,4.2609,4.2786,4.2882,4.2882,4.2882,4.2882,4.2882,4.2882,4.2882,4.2882,4.2711,0.0,0.0,4.1973,4.1803,4.163,4.2098,4.2115,4.1966,4.2418,4.2279,4.1874,0.0,0.0,0.0,0.0,0.0,0.0,-2.5511,-2.5511,-2.5476,-2.5376,-2.5186,-2.4739,-2.3879,-2.3646,-2.3285,-2.2508,0.0,0.0,0.0,0.0,0.0,0.0,0.0,0.0,0.0,0.0,0.0,-1.9788,-1.9236,0.0,0.0,0.0,0.0,0.0,0.0,0.0,0.0,0.0,0.0,0.0,0.0,0.0,0.0,0.0,0.0,0.0,0.0,0.0,0.0,0.0,0.0,0.0,0.0,0.0,0.0,0.0,3.1537,3.2616,3.3239,3.4187,3.5154,3.5683,3.5718,3.5631,0.0,0.0,3.5463,3.5488,3.5493,3.5465,3.5304,3.6406,3.7187,0.0,0.0,3.8455,3.8267,3.8219,3.8101,0.0,0.0,0.0,0.0,0.0,0.0,0.0,0.0,0.0,4.1727,4.1727,4.1727,4.1727,4.2292,4.2609,4.2609,4.2786,4.2882,4.2882,4.2882,4.2882,4.2882,4.2882,4.2882,4.2882,4.2882,0.0,0.0,4.2418,4.2239,4.2015,4.2501,4.2519,4.2374,4.3136,4.3054,4.2561,0.0,0.0,0.0,0.0,0.0,0.0,0.0,-2.5511,-2.5511,-2.5511,-2.5048,-2.4516,-2.4038,-2.359,-2.3106,-2.2642,0.0,0.0,0.0,0.0,0.0,0.0,0.0,0.0,0.0,0.0,0.0,-1.8822,-1.8425,-1.8202,-1.8202,-1.8293,0.0,0.0,0.0,0.0,0.0,0.0,0.0,0.0,0.0,0.0,0.0,0.0,0.0,0.0,0.0,0.0,0.0,0.0,0.0,0.0,0.0,0.0,0.0,0.0,3.1929,3.3397,3.3397,3.4677,3.5965,3.5904,3.5908,3.5833,0.0,0.0,3.5593,3.5515,3.5493,3.5493,3.5493,3.6478,3.7312,3.7272,0.0,0.0,3.8792,3.8541,0.0,0.0,0.0,0.0,0.0,0.0,0.0,0.0,0.0,0.0,4.2287,4.2287,4.2287,4.2287,4.249,4.2609,4.2609,4.2786,4.2882,4.2882,4.2882,4.2882,4.2882,4.2882,4.2882,0.0,0.0,0.0,0.0,4.2938,4.2956,4.3104,4.3178,4.3196,4.3306,4.4326,4.41,4.3405,0.0,0.0,0.0,0.0,0.0,0.0,0.0,-2.544,-2.5476,-2.5376,-2.5216,-2.4834,-2.4072,-2.386,-2.3466,-2.2668,0.0,0.0,0.0,0.0,0.0,0.0,0.0,0.0,0.0,0.0,-1.8372,-1.8461,-1.8319,-1.8121,-1.7841,-1.7922,-1.7773,0.0,0.0,0.0,0.0,0.0,0.0,0.0,0.0,0.0,0.0,0.0,0.0,0.0,0.0,0.0,0.0,0.0,0.0,0.0,0.0,0.0,0.0,3.0537,3.1857,3.3339,3.3333,3.4609,3.5934,3.5911,3.5836,3.5745,3.5687,0.0,3.5541,3.5488,3.5493,3.5493,3.5493,3.6478,3.7312,3.7312,3.8247,0.0,0.0,0.0,0.0,3.7487,0.0,0.0,0.0,0.0,0.0,0.0,0.0,0.0,4.177,4.2086,4.2346,4.2445,4.253,4.2649,4.2745,4.2824,4.2882,4.2882,4.2882,4.2882,4.2882,4.2882,4.2882,0.0,0.0,0.0,0.0,4.3049,4.3086,4.3178,4.3305,4.3688,4.42,4.4546,4.4653,4.4682,0.0,0.0,0.0,0.0,0.0,0.0,0.0,-2.5448,-2.5448,-2.533,-2.5178,-2.4841,-2.4076,-2.3859,-2.3422,-2.2588,0.0,0.0,0.0,0.0,0.0,0.0,0.0,0.0,0.0,-1.8214,-1.8055,-1.8108,-1.7948,-1.776,-1.7516,-1.7421,-1.6002,-1.3636,-1.5835,0.0,0.0,0.0,0.0,0.0,0.0,0.0,2.6311,0.0,0.0,0.0,0.0,0.0,0.0,0.0,0.0,0.0,0.0,0.0,0.0,0.0,3.1817,3.3294,3.3302,3.4589,3.5934,3.5934,3.5869,3.576,3.5702,0.0,3.5534,3.5507,3.5493,3.5603,3.5911,3.6705,3.7406,3.7728,3.8527,0.0,0.0,0.0,0.0,3.8233,0.0,0.0,0.0,0.0,0.0,0.0,0.0,0.0,4.1813,4.2163,4.2445,4.2526,4.2588,4.2649,4.2783,4.2862,4.2882,4.2882,4.2882,4.2882,4.2882,4.2882,4.2882,0.0,0.0,0.0,0.0,4.3104,4.316,4.3286,4.3359,4.3888,4.4638,4.5022,4.5367,4.5717,0.0,0.0,0.0,0.0,0.0,0.0,0.0,0.0,0.0,0.0,-2.5026,-2.4633,-2.4099,-2.368,-2.317,0.0,0.0,0.0,0.0,0.0,0.0,0.0,0.0,0.0,0.0,-1.7868,-1.7679,-1.776,-1.7352,-1.7157,-1.7144,-1.638,-1.3076,-0.7983,-1.2775,0.0,0.0,0.0,0.0,0.0,2.1716,2.545,0.0,0.0,0.0,0.0,0.0,0.0,0.0,0.0,0.0,0.0,0.0,0.0,0.0,0.0,0.0,0.0,0.0,3.4629,3.5994,3.5994,3.5942,3.5846,3.5729,0.0,0.0,0.0,0.0,3.5757,3.6546,3.7029,3.7595,3.8469,3.8865,3.8989,0.0,3.8713,0.0,0.0,0.0,0.0,0.0,0.0,0.0,0.0,0.0,0.0,4.2328,4.2445,4.2526,4.2609,4.2609,4.2688,4.2822,4.2862,4.2882,4.2882,4.2882,4.2882,4.2882,4.2882,4.2882,0.0,0.0,0.0,0.0,4.3123,4.3215,4.3429,4.3449,4.3961,4.4785,4.5663,4.6207,4.6595,0.0,0.0,0.0,0.0,0.0,0.0,0.0,0.0,0.0,0.0,0.0,-2.5011,-2.4501,-2.4099,0.0,0.0,0.0,0.0,0.0,0.0,0.0,0.0,0.0,0.0,0.0,-1.7516,-1.7323,-1.7365,-1.6976,-1.6808,-1.6714,-1.1788,-0.8758,-0.7275,-0.4085,0.0,0.0,0.0,0.0,0.0,2.1293,2.4896,0.0,0.0,0.0,0.0,2.8815,2.9048,0.0,0.0,0.0,0.0,0.0,0.0,0.0,0.0,3.187,3.3297,3.3305,0.0,3.5915,3.5862,3.5802,3.5729,0.0,0.0,0.0,0.0,0.0,0.0,0.0,3.7029,3.7595,3.8469,3.8738,3.8773,3.851,0.0,0.0,0.0,0.0,0.0,0.0,0.0,0.0,0.0,0.0,4.2328,4.2463,4.2463,4.2526,4.2609,4.2706,4.2765,4.2862,4.2882,4.2882,4.2882,4.2882,4.2882,4.2882,4.2882,4.2882,0.0,0.0,0.0,4.3214,4.3178,4.3286,4.3536,4.4141,4.4893,4.5682,4.6507,4.7028,4.7355,0.0,0.0,0.0,0.0,0.0,0.0,0.0,0.0,0.0,0.0,0.0,0.0,0.0,0.0,0.0,0.0,0.0,0.0,0.0,0.0,0.0,0.0,0.0,0.0,-1.7557,-1.4463,-1.4246,-1.6976,-1.1185,-0.9726,-1.2246,-0.5948,-0.1547,0.1319,0.7406,0.0,0.0,0.0,0.0,1.6895,2.2259,0.0,0.0,0.0,0.0,0.0,2.8863,2.9112,0.0,2.9549,2.9682,2.9841,0.0,0.0,0.0,0.0,3.1884,3.3308,3.3302,3.4589,3.593,3.5899,3.5846,3.5772,3.5669,0.0,0.0,0.0,0.0,0.0,0.0,0.0,0.0,0.0,3.8794,0.0,0.0,0.0,0.0,0.0,0.0,0.0,0.0,0.0,0.0,0.0,0.0,4.2445,4.2566,4.2606,4.2645,4.2688,4.2804,4.2862,4.2882,4.2882,4.2882,4.2882,4.2882,4.2882,4.2882,4.2882,4.2882,0.0,0.0,0.0,4.3214,4.3214,4.3304,4.3571,4.4397,4.5186,4.5993,4.6819,4.7456,4.7897,0.0,0.0,0.0,0.0,0.0,0.0,0.0,0.0,0.0,0.0,0.0,0.0,0.0,0.0,0.0,0.0,0.0,0.0,0.0,0.0,0.0,0.0,0.0,-1.8327,-1.7282,-1.1045,-1.0312,-1.5398,-0.3976,-0.0977,-0.5722,0.059,0.6656,1.2567,1.8012,1.7609,0.0,0.0,2.0846,2.1479,2.3634,0.0,0.0,0.0,0.0,0.0,0.0,0.0,0.0,2.9588,2.9701,2.9841,3.008,0.0,0.0,0.0,0.0,0.0,3.33,3.4628,3.5991,3.5958,3.5909,3.5833,3.5696,0.0,0.0,0.0,0.0,0.0,0.0,3.7275,0.0,0.0,0.0,0.0,0.0,0.0,0.0,0.0,0.0,0.0,0.0,0.0,0.0,0.0,0.0,4.2566,4.2609,4.2745,4.2783,4.2783,4.288,4.2882,4.2882,4.2882,4.2882,4.2882,4.2882,4.2882,4.2882,4.2938,4.2938,4.2938,0.0,0.0,4.3251,4.3251,4.3358,4.3589,4.4525,4.5296,4.6012,4.6948,4.7719,4.8306,0.0,0.0,0.0,0.0,0.0,0.0,0.0,0.0,0.0,0.0,0.0,0.0,0.0,0.0,0.0,0.0,0.0,0.0,0.0,0.0,0.0,0.0,-1.8507,-1.7828,-1.7475,-1.1105,-0.8374,-0.9496,-0.1771,0.1527,0.0786,0.706,1.3155,1.8927,2.0397,2.056,1.9798,2.1207,2.1807,2.1969,2.4132,0.0,0.0,0.0,0.0,0.0,0.0,0.0,0.0,2.9682,2.979,2.9855,3.0234,0.0,0.0,0.0,0.0,0.0,3.3305,3.4628,3.5958,3.5788,3.5745,3.5696,0.0,0.0,0.0,0.0,0.0,0.0,0.0,3.7296,3.7672,0.0,0.0,0.0,0.0,0.0,0.0,0.0,0.0,0.0,0.0,0.0,0.0,0.0,0.0,4.2667,4.2745,4.2783,4.2783,4.2783,4.288,4.2882,4.2882,4.2882,4.2882,4.2882,4.2882,4.2882,4.2882,4.3012,4.3067,4.3049,0.0,4.3251,4.3376,4.3376,4.3411,4.3644,4.5131,4.5792,4.6085,4.7572,4.8196,4.8306,0.0,0.0,0.0,0.0,0.0,0.0,0.0,0.0,0.0,0.0,0.0,0.0,0.0,0.0,0.0,0.0,0.0,0.0,0.0,0.0,0.0,-1.9525,-1.8196,-1.585,-1.233,-0.6009,-0.2715,-0.2643,0.7145,1.0278,0.7266,1.3692,1.8157,2.0829,2.1409,2.1648,2.1589,2.1864,2.2327,2.2999,0.0,0.0,0.0,0.0,0.0,0.0,0.0,0.0,0.0,0.0,2.9823,2.9918,3.0283,0.0,0.0,0.0,0.0,0.0,3.3294,3.4599,3.5915,3.5735,3.5755,3.5764,0.0,0.0,0.0,0.0,0.0,0.0,0.0,0.0,3.7729,3.8199,0.0,0.0,0.0,0.0,0.0,0.0,0.0,0.0,0.0,0.0,0.0,0.0,0.0,0.0,4.2842,4.2824,4.2824,4.2824,4.29,4.2882,4.2882,4.2882,4.2882,4.2882,4.2882,4.2882,4.2882,4.3049,4.3104,4.3104,0.0,4.3305,4.3394,4.3394,4.3446,4.3644,4.5259,4.5902,4.6085,4.7719,4.8306,4.8306,0.0,0.0,0.0,0.0,0.0,0.0,0.0,0.0,0.0,0.0,0.0,0.0,0.0,0.0,0.0,0.0,0.0,0.0,0.0,0.0,-1.9287,-1.9221,-1.7933,-1.4264,-0.8023,-0.1709,0.2345,0.4089,1.499,1.801,1.3691,1.8814,2.1227,2.1334,2.1978,2.2201,2.2135,2.2405,2.3089,2.4069,0.0,0.0,0.0,0.0,0.0,0.0,0.0,0.0,0.0,0.0,0.0,0.0,0.0,0.0,0.0,3.0889,3.2027,3.3269,3.3515,3.4722,3.5873,3.5756,0.0,0.0,0.0,0.0,0.0,0.0,0.0,0.0,0.0,0.0,0.0,3.7789,0.0,0.0,0.0,0.0,0.0,0.0,0.0,0.0,0.0,0.0,0.0,0.0,0.0,0.0,4.29,4.2882,4.2882,4.2882,4.2882,4.2882,4.2882,4.2882,4.2882,4.2882,4.2882,4.2938,4.2938,4.3086,4.3141,4.3178,4.3251,4.3322,4.3411,4.3411,4.3446,4.3644,4.5259,4.6122,4.6617,4.7847,4.8306,4.8306,0.0,0.0,0.0,0.0,0.0,0.0,0.0,0.0,0.0,0.0,0.0,0.0,0.0,0.0,0.0,0.0,0.0,0.0,0.0,0.0,-1.9119,-1.8517,-1.7639,-1.4387,-0.8316,-0.1819,0.4276,0.997,1.6923,2.0249,2.0135,2.0863,2.1381,2.1694,2.2424,2.2729,2.2807,2.3936,2.4551,2.4931,2.6426,0.0,0.0,0.0,0.0,0.0,0.0,0.0,0.0,0.0,0.0,0.0,0.0,0.0,3.0665,3.1568,3.2472,3.3375,3.4192,3.5143,3.5875,3.5815,3.5744,0.0,3.5547,3.5507,0.0,3.5258,0.0,0.0,0.0,3.7569,0.0,0.0,0.0,0.0,0.0,0.0,0.0,0.0,0.0,0.0,0.0,0.0,0.0,0.0,0.0,0.0,4.2882,4.2882,4.2882,4.2882,4.2882,4.2882,4.2882,4.2882,4.2882,4.2882,4.2882,4.2956,4.3104,4.3142,4.3251,4.3394,4.3463,4.3479,4.3497,4.3497,4.3497,4.3644,4.5259,4.6819,4.8141,4.8269,4.8306,4.8306,0.0,0.0,0.0,0.0,0.0,0.0,0.0,0.0,0.0,0.0,0.0,0.0,0.0,0.0,0.0,0.0,0.0,0.0,0.0,0.0,-1.9302,-1.909,-1.7973,-1.2619,-0.2371,0.023,0.6479,1.6627,1.9485,2.0828,2.0744,2.1576,2.191,2.1874,2.2993,2.3432,2.3431,2.4524,2.5262,2.5772,2.6525,2.712,0.0,0.0,0.0,0.0,0.0,0.0,0.0,0.0,2.9996,2.9973,0.0,0.0,3.0675,3.1574,3.2471,3.3394,3.4301,3.5159,3.5799,3.5856,3.5741,0.0,0.0,3.5327,3.5193,3.5354,3.6119,0.0,0.0,0.0,0.0,0.0,0.0,0.0,0.0,0.0,0.0,0.0,0.0,0.0,0.0,0.0,0.0,0.0,0.0,0.0,4.2882,4.2882,4.2882,4.2882,4.2882,4.2882,4.2882,4.2882,4.2882,4.2882,4.2882,4.2994,4.3104,4.3178,4.3251,4.3394,4.3463,4.3497,4.3497,4.3497,4.3497,4.3644,4.5259,4.6874,4.8306,4.8306,4.8306,4.8306,0.0,0.0,0.0,0.0,0.0,0.0,0.0,0.0,0.0,0.0,0.0,0.0,0.0,0.0,0.0,0.0,0.0,0.0,0.0,-2.0097,-1.936,-1.9163,-1.8092,-1.1549,0.1225,0.1449,0.7605,2.0304,2.0812,2.1007,2.0876,2.1857,2.2343,2.2445,2.3405,2.395,2.4244,2.5125,2.5882,2.6492,2.6926,2.7483,0.0,0.0,0.0,0.0,0.0,0.0,0.0,0.0,2.9962,0.0,0.0,0.0,0.0,0.0,3.2832,3.3741,3.47,3.5343,3.578,3.5849,0.0,0.0,3.5592,3.5299,3.5131,3.5602,3.6535,0.0,0.0,0.0,0.0,0.0,0.0,0.0,0.0,0.0,0.0,0.0,0.0,0.0,0.0,0.0,0.0,0.0,0.0,0.0,0.0,4.3124,4.305,4.305,4.2957,4.2882,4.2882,4.2882,4.2938,4.2938,4.2938,4.3031,4.3123,4.3178,4.3286,4.3446,4.3463,4.3497,4.3497,4.3497,4.3791,4.436,4.5461,4.6874,4.8306,4.8306,4.8306,4.8306,0.0,0.0,0.0,0.0,0.0,0.0,0.0,0.0,0.0,0.0,0.0,0.0,0.0,0.0,0.0,0.0,0.0,0.0,0.0,-1.9858,-1.9148,-1.844,-1.7841,-1.1549,0.1225,0.1436,0.7585,2.0304,2.0628,2.0958,2.1198,2.1836,2.2598,2.3494,2.3652,2.4278,2.5255,2.5929,2.6503,2.7067,2.7799,2.8446,2.898,0.0,0.0,0.0,0.0,0.0,0.0,0.0,2.9832,0.0,0.0,0.0,0.0,0.0,3.3634,3.441,3.5426,3.5802,3.5872,0.0,0.0,0.0,3.5605,3.5392,3.5372,3.5989,0.0,3.8135,3.8952,0.0,0.0,0.0,0.0,0.0,0.0,0.0,0.0,0.0,0.0,0.0,0.0,0.0,0.0,0.0,0.0,0.0,0.0,4.359,4.3406,4.3406,4.3087,4.2882,4.2882,4.2882,4.2956,4.3104,4.3104,4.3123,4.3214,4.3214,4.3304,4.3497,4.3497,4.3497,4.3497,4.3497,4.4433,4.5883,4.5902,4.6874,4.8288,4.8306,4.8306,4.8306,0.0,0.0,0.0,0.0,0.0,0.0,0.0,0.0,0.0,0.0,0.0,0.0,0.0,0.0,0.0,0.0,0.0,0.0,-2.1339,-2.0169,-1.9453,-1.9396,-1.8341,-1.1808,0.1021,0.9973,1.6368,2.015,2.0975,2.1244,2.1007,2.2382,2.3151,2.3422,2.4489,2.5238,2.5756,2.6653,2.7148,2.7327,2.7875,2.821,2.842,0.0,0.0,0.0,0.0,0.0,0.0,0.0,0.0,0.0,0.0,0.0,0.0,3.3281,3.3949,3.4425,3.5489,3.5723,0.0,3.5846,0.0,0.0,0.0,3.5388,0.0,0.0,3.7464,3.8308,3.898,0.0,0.0,0.0,0.0,0.0,0.0,0.0,0.0,0.0,0.0,0.0,0.0,0.0,0.0,0.0,0.0,0.0,0.0,4.3818,4.3656,4.3406,4.3301,4.3142,4.2882,4.2882,4.2938,4.2938,4.3049,4.3178,4.334,4.334,4.3411,4.3497,4.3497,4.3497,4.3497,4.3497,4.4103,4.5112,4.5681,4.6581,4.7666,4.8142,4.8363,4.8457,0.0,0.0,0.0,0.0,0.0,0.0,0.0,0.0,0.0,0.0,-2.3021,-2.2849,0.0,0.0,0.0,0.0,0.0,0.0,-2.1694,-2.0635,-1.9928,-1.9803,-1.8864,-1.2268,0.0711,1.3552,2.0065,1.9975,2.091,2.1197,2.0942,2.2524,2.3405,2.3776,2.4989,2.5875,2.6547,2.7151,2.7509,2.7683,2.7869,2.8129,2.8438,0.0,0.0,0.0,0.0,0.0,0.0,0.0,0.0,0.0,0.0,0.0,0.0,3.373,3.4388,3.4903,3.5635,3.58,0.0,3.5806,3.5708,3.5659,3.5963,0.0,0.0,0.0,0.0,3.8802,3.9044,3.895,0.0,0.0,0.0,0.0,0.0,0.0,0.0,0.0,0.0,0.0,0.0,0.0,0.0,0.0,0.0,0.0,0.0,4.4184,4.4016,4.3844,4.367,4.3523,4.3318,4.3178,4.316,4.3196,4.3178,4.3233,4.3446,4.3411,4.3446,4.3497,4.3497,4.3497,4.3497,4.3497,4.3975,4.4782,4.559,4.647,4.739,4.8106,4.8419,4.8494,0.0,0.0,-2.4154,-2.3699,0.0,0.0,0.0,0.0,0.0,0.0,-2.2569,-2.2525,0.0,0.0,0.0,-2.1811,-2.1738,-2.1708,-2.1724,-2.1007,-2.0369,-1.9873,-1.8688,-1.2181,0.0408,1.2854,1.9416,1.9797,2.0614,2.0974,2.1005,2.2439,2.3622,2.4565,2.5324,2.6309,2.7434,2.7434,2.7654,2.8047,2.7829,2.8165,2.8791,2.8594,0.0,0.0,0.0,0.0,0.0,0.0,0.0,0.0,0.0,0.0,3.3922,3.4128,3.4846,3.5606,3.5829,0.0,0.0,3.5753,3.5754,0.0,3.6658,3.7309,3.787,3.8278,0.0,3.9427,3.9165,0.0,0.0,0.0,0.0,0.0,0.0,0.0,0.0,0.0,0.0,0.0,0.0,0.0,0.0,0.0,0.0,0.0,0.0,4.461,4.4465,4.4493,4.4136,4.3955,4.4016,4.3638,4.3542,4.3726,4.3461,4.341,4.3582,4.3446,4.3446,4.3497,4.3497,4.3497,4.3497,4.3497,4.392,4.469,4.5553,4.6434,4.7316,4.8181,4.8513,4.8532,0.0,0.0,-2.4171,-2.3739,0.0,0.0,0.0,0.0,0.0,0.0,0.0,0.0,0.0,0.0,0.0,-2.1738,-2.1724,-2.1708,-2.1768,-2.0505,-1.9858,-2.0112,-1.4259,-0.7319,0.052,0.8377,1.4846,1.9797,2.0563,2.1164,2.1652,2.3096,2.4441,2.5595,2.6345,2.7026,2.7642,2.7642,2.7683,2.78,2.7915,2.8037,2.8228,2.8547,2.8707,0.0,0.0,0.0,0.0,0.0,0.0,0.0,3.2919,3.3428,3.3897,3.4649,3.5084,3.5359,3.5728,3.5839,0.0,0.0,3.6099,3.6691,3.7541,3.8343,3.8898,3.8804,3.9161,3.9483,3.9408,0.0,0.0,0.0,0.0,0.0,0.0,0.0,0.0,0.0,0.0,0.0,0.0,0.0,0.0,0.0,0.0,0.0,4.4895,4.4827,4.4707,4.4519,4.4438,4.428,4.4087,4.3979,4.3967,0.0,4.4035,4.4084,4.4114,4.3664,4.3497,4.3497,4.3497,4.3497,4.3497,4.3497,4.3589,4.3901,4.5477,4.621,4.6594,4.8034,4.866,4.8751,0.0,0.0,0.0,0.0,0.0,0.0,0.0,0.0,0.0,0.0,0.0,0.0,0.0,-2.2068,0.0,0.0,-2.1738,-2.1768,-2.1797,-2.107,-2.052,-2.0265,-1.2877,-0.5832,0.0522,0.6981,1.3398,1.9762,2.0292,2.1009,0.0,0.0,0.0,2.5945,2.6681,2.7276,2.7701,2.7701,2.776,2.7829,2.7818,2.8027,2.8388,2.8879,2.9239,2.9503,3.0008,0.0,0.0,0.0,0.0,0.0,0.0,0.0,3.4535,3.5081,3.529,3.5417,3.5754,0.0,0.0,3.5718,0.0,3.693,3.7796,3.8661,3.9377,3.9627,3.9659,3.9609,0.0,0.0,0.0,0.0,0.0,0.0,0.0,0.0,0.0,0.0,0.0,0.0,0.0,0.0,0.0,0.0,0.0,4.4895,4.4895,4.4895,4.487,4.4789,4.4764,4.4695,4.4624,4.4447,4.4364,4.4411,4.4346,4.425,4.4151,4.386,4.3649,4.3479,4.3513,4.3566,4.3548,4.36,4.3634,4.3763,4.5049,4.5854,4.6403,4.7661,4.8399,4.8787,0.0,0.0,0.0,0.0,0.0,0.0,0.0,0.0,0.0,0.0,0.0,0.0,0.0,-2.2027,-2.1911,0.0,0.0,0.0,-2.1797,-2.1675,-2.1149,-2.0162,-1.3914,-0.7038,0.034,0.5837,1.2217,1.9617,2.0122,0.0,0.0,0.0,0.0,2.607,0.0,2.7244,2.7642,2.7701,2.7771,2.7933,2.7829,2.8127,2.8737,2.9412,2.9917,3.0362,3.1121,3.1747,3.2166,3.1994,0.0,0.0,0.0,0.0,3.5203,3.5335,3.5438,3.5533,3.5806,0.0,3.5851,3.5896,3.6416,0.0,3.8027,3.8907,3.9715,4.0389,4.0176,0.0,0.0,0.0,0.0,0.0,0.0,0.0,0.0,0.0,0.0,0.0,0.0,0.0,0.0,0.0,0.0,0.0,0.0,4.4919,4.4919,4.4919,4.4986,4.5125,4.5038,4.508,4.5213,4.4887,4.4789,4.487,4.4629,4.4365,4.4121,4.4109,4.386,4.3479,4.3548,4.3582,4.3615,4.3753,4.3804,4.3878,4.469,4.5534,4.6416,4.7302,4.8136,4.8822,0.0,0.0,0.0,0.0,0.0,0.0,0.0,0.0,0.0,0.0,-2.2487,-2.236,-2.1969,-2.1969,-2.194,-2.1797,-2.1781,-2.1797,-2.1797,0.0,0.0,-1.9287,-1.7921,-1.1783,-0.0155,0.1288,0.7573,1.9176,0.0,0.0,0.0,0.0,0.0,2.6539,0.0,2.7166,2.7465,2.7612,2.7672,2.7682,2.8254,2.8502,2.8652,2.9899,3.0409,3.0525,3.1151,3.1893,3.2557,3.2752,3.353,0.0,0.0,0.0,3.5126,3.5281,3.5355,3.5463,0.0,0.0,3.5821,0.0,3.7302,3.8046,0.0,0.0,4.0457,0.0,0.0,0.0,0.0,0.0,0.0,0.0,0.0,0.0,0.0,0.0,0.0,0.0,0.0,0.0,0.0,0.0,0.0,0.0,4.4943,4.501,4.501,4.501,4.5057,4.517,4.5125,4.5148,4.5297,4.5235,4.5213,4.5235,4.5192,4.5,4.4676,4.4438,4.4042,4.3479,4.3548,4.3582,4.3615,4.3753,4.3804,4.3878,4.4739,4.5601,4.6397,4.7352,4.8187,4.8874,0.0,0.0,0.0,0.0,0.0,0.0,0.0,0.0,0.0,0.0,0.0,-2.2158,-2.1969,-2.1928,-2.1869,-2.1827,-2.1797,-2.184,-2.1928,-2.0862,-2.0078,-1.9838,-1.8983,-1.2687,-0.0272,0.038,0.669,1.9101,0.0,0.0,0.0,2.3483,2.4743,0.0,0.0,0.0,0.0,0.0,2.7831,2.8143,2.8442,2.8888,2.9502,3.0497,3.1141,3.1578,3.2237,3.2918,3.3512,3.3634,3.4027,3.4529,3.4753,0.0,0.0,0.0,3.5297,0.0,3.5599,3.5644,3.5819,0.0,3.7463,3.8219,3.9095,0.0,4.0588,4.0598,0.0,0.0,0.0,0.0,0.0,0.0,0.0,0.0,0.0,0.0,0.0,0.0,0.0,0.0,0.0,0.0,0.0,0.0,4.4967,4.5033,4.5038,4.5057,4.5103,4.5192,4.517,4.5192,4.5297,4.5297,4.5297,4.5297,4.5297,4.5132,4.4849,4.4726,4.4383,4.3828,4.3734,4.3734,4.3767,4.3865,4.3897,4.3966,4.4332,4.5259,4.6446,4.6903,4.7813,4.8909,0.0,0.0,0.0,0.0,0.0,0.0,0.0,0.0,0.0,0.0,0.0,-2.1969,-2.194,0.0,0.0,0.0,-2.1797,-2.1869,-2.1998,-2.0943,-2.0351,-2.0418,-1.9229,-1.2753,-0.0272,0.038,0.6763,0.0,0.0,0.0,2.3195,2.3834,2.5017,0.0,2.6842,2.6989,0.0,0.0,0.0,2.8535,2.8949,2.9549,3.0354,0.0,3.1974,3.2495,3.3208,3.3716,3.4099,3.4099,3.4279,3.4529,3.4733,3.4771,0.0,0.0,0.0,0.0,0.0,0.0,3.5888,3.692,3.7641,3.8348,0.0,0.0,4.064,0.0,0.0,0.0,0.0,0.0,0.0,0.0,0.0,0.0,0.0,0.0,0.0,0.0,0.0,0.0,0.0,0.0,0.0,0.0,4.5033,4.5038,4.5125,4.5125,4.5148,4.5213,4.5213,4.5235,4.5297,4.5297,4.5297,4.5297,4.5317,4.5216,4.5026,4.4962,4.4726,4.4346,4.4048,4.3961,4.4005,4.4005,4.4005,4.4005,4.4005,4.5026,4.6494,4.6494,4.7516,4.8909,0.0,0.0,0.0,0.0,0.0,0.0,0.0,0.0,0.0,0.0,0.0,-2.1928,-2.1738,-2.1768,-2.1797,-2.1797,-2.1797,-2.1869,-2.1998,-2.1164,-2.0585,-2.0418,-1.9398,0.0,-0.0272,0.038,0.0,0.0,0.0,0.0,2.3866,2.4523,2.5486,2.6606,2.6742,2.6808,2.6892,0.0,0.0,2.8622,3.0161,3.0734,3.0837,0.0,0.0,0.0,0.0,3.3788,3.3815,3.3815,3.4136,3.4508,3.4529,3.4773,3.5108,0.0,0.0,0.0,0.0,3.5646,0.0,3.7566,3.8113,0.0,0.0,0.0,0.0,0.0,0.0,0.0,0.0,0.0,0.0,0.0,0.0,0.0,0.0,0.0,0.0,0.0,0.0,0.0,0.0,0.0,0.0,0.0,4.5057,4.5125,4.5192,4.5192,4.5233,4.5297,4.5235,4.5235,4.5297,4.5297,4.5297,4.5297,4.5359,4.5398,4.5359,4.5094,4.5007,4.503,4.4493,4.4279,4.426,4.4079,4.4005,4.4005,4.4005,4.5026,4.6494,4.6494,4.7516,4.8909,0.0,0.0,0.0,0.0,0.0,0.0,0.0,0.0,0.0,0.0,0.0,0.0,0.0,-2.1135,-2.1166,-2.1214,-2.1276,-2.1323,-2.1462,-2.0649,-2.0108,-2.0093,-1.9169,-1.2934,-0.0717,0.0318,0.0,0.0,0.0,2.2531,2.3913,2.4586,2.5422,2.6345,2.6657,2.6979,2.7384,2.8182,0.0,2.9551,3.0455,3.115,3.1672,0.0,0.0,0.0,0.0,0.0,0.0,0.0,0.0,0.0,0.0,0.0,0.0,0.0,0.0,0.0,0.0,0.0,0.0,3.7703,3.8174,3.868,0.0,4.0834,0.0,0.0,0.0,0.0,0.0,0.0,0.0,0.0,0.0,0.0,0.0,0.0,0.0,0.0,0.0,0.0,0.0,0.0,0.0,0.0,0.0,4.5148,4.5275,4.5256,4.5275,4.5297,4.5275,4.5275,4.5297,4.5297,4.5297,4.5297,4.5378,4.5399,4.54,4.5361,4.5362,4.54,4.5052,4.4776,4.4599,4.4346,4.425,4.425,4.4079,4.5026,4.6494,4.6494,4.7516,4.8909,0.0,0.0,0.0,0.0,0.0,-2.2158,0.0,0.0,0.0,0.0,0.0,0.0,0.0,0.0,-2.0877,-2.0926,-2.1023,-2.1071,-2.1039,-2.0348,-1.9914,-1.9728,-1.7119,-1.0805,-0.0406,0.0,0.0,0.0,0.0,0.0,0.0,2.4681,2.5422,2.6362,2.6756,2.7125,0.0,0.0,0.0,3.0057,3.0741,3.1389,3.2037,0.0,0.0,0.0,0.0,0.0,0.0,0.0,0.0,0.0,0.0,0.0,0.0,0.0,0.0,0.0,3.5387,0.0,0.0,0.0,0.0,3.8726,4.048,0.0,0.0,0.0,0.0,0.0,0.0,0.0,0.0,0.0,0.0,0.0,0.0,0.0,0.0,0.0,0.0,0.0,0.0,0.0,0.0,0.0,0.0,0.0,4.5297,4.5297,4.5297,4.5297,4.5297,4.5317,4.5338,4.5338,4.5319,4.5339,4.54,4.5438,4.5438,4.5495,4.5568,4.5586,4.5419,4.518,4.4915,4.4546,4.4383,4.4374,4.4091,4.5026,4.6494,4.6494,4.7516,4.8909,0.0,-2.2893,-2.2902,-2.307,-2.2608,-2.2023,0.0,0.0,0.0,0.0,0.0,0.0,0.0,0.0,0.0,-2.0975,-2.1087,-2.1055,-2.0716,-2.0449,-1.9958,-1.9133,-1.3267,-0.6501,0.0905,0.0,0.0,0.0,0.0,0.0,0.0,0.0,2.5497,2.6639,2.7005,2.7205,2.7271,0.0,2.8987,3.0087,0.0,3.1582,3.1893,0.0,0.0,0.0,3.3208,3.3455,0.0,3.3559,0.0,0.0,0.0,0.0,0.0,0.0,0.0,0.0,0.0,0.0,0.0,0.0,0.0,0.0,4.0447,0.0,4.0928,0.0,0.0,0.0,0.0,0.0,0.0,0.0,0.0,0.0,0.0,0.0,0.0,0.0,0.0,0.0,0.0,0.0,0.0,0.0,4.5302,4.5301,4.5317,4.5297,4.5297,4.5297,4.5297,4.5338,4.5398,4.5398,4.54,4.54,4.5476,4.5495,4.5495,4.5568,4.5586,4.5586,4.5586,4.5438,4.518,4.465,4.4411,4.4402,4.4121,4.5026,4.6494,4.6494,4.7516,4.8909,-2.2337,-2.232,-2.2392,-2.2624,-2.2686,-2.2368,0.0,0.0,0.0,0.0,0.0,0.0,0.0,0.0,-2.0342,-2.0361,-2.0478,-2.0527,-2.041,-2.0349,-1.7913,-1.254,-1.0618,-0.4307,0.0,0.0,0.0,0.0,0.0,0.0,0.0,0.0,0.0,0.0,2.6864,2.7346,2.8364,2.916,0.0,3.0439,3.1367,3.1858,0.0,0.0,0.0,0.0,0.0,3.3415,3.322,0.0,3.3743,3.4136,0.0,0.0,0.0,0.0,0.0,0.0,3.6979,0.0,0.0,0.0,0.0,0.0,4.0696,4.1003,4.1054,0.0,0.0,0.0,0.0,0.0,0.0,0.0,0.0,0.0,0.0,0.0,0.0,0.0,0.0,0.0,0.0,0.0,0.0,0.0,4.5418,4.5381,4.5437,4.5341,4.5297,4.5297,4.5338,4.5379,4.5398,4.54,4.54,4.54,4.5476,4.5495,4.5495,4.5568,4.5586,4.5586,4.5586,4.5568,4.5457,4.5118,4.4872,4.465,4.4402,4.5207,4.6494,4.6494,4.7516,4.8909,-2.2181,-2.2192,-2.2265,-2.2544,-2.2703,-2.2456,0.0,0.0,0.0,0.0,0.0,0.0,0.0,0.0,0.0,-2.0158,-2.0261,-2.0346,-2.0505,-1.7726,-1.4127,-0.978,-0.4341,0.2297,0.0,0.0,0.0,0.0,0.0,0.0,0.0,0.0,0.0,0.0,2.7308,2.783,2.8646,0.0,0.0,0.0,3.1376,0.0,0.0,3.2488,3.2555,0.0,0.0,0.0,3.3129,3.3232,3.3761,0.0,0.0,0.0,0.0,0.0,0.0,0.0,0.0,0.0,0.0,0.0,0.0,0.0,4.0784,4.1041,4.107,0.0,0.0,0.0,0.0,0.0,0.0,0.0,0.0,0.0,0.0,0.0,0.0,0.0,0.0,0.0,0.0,4.5529,4.5756,4.5737,4.5654,4.5591,4.549,4.5419,4.5361,4.5297,4.5378,4.5399,4.54,4.5438,4.5476,4.5495,4.5513,4.5531,4.5531,4.5586,4.5586,4.5586,4.5586,4.5586,4.5586,4.5438,4.514,4.4776,4.4493,4.5249,4.6494,4.6494,4.7516,4.8909,0.0,-2.222,-2.2303,-2.2554,-2.2607,0.0,0.0,0.0,0.0,0.0,0.0,0.0,0.0,0.0,0.0,0.0,-1.9686,-1.9347,-1.9711,-1.302,0.0,0.0,0.0,0.0,0.0,0.0,0.0,0.0,0.0,0.0,0.0,0.0,0.0,0.0,2.7913,2.8363,2.8562,0.0,0.0,3.0559,3.1206,3.164,0.0,0.0,3.242,3.2179,3.257,3.2862,3.3006,3.2983,3.396,0.0,0.0,0.0,0.0,0.0,3.7461,0.0,0.0,0.0,0.0,0.0,3.9605,0.0,4.0771,4.0958,4.0995,4.1116,0.0,0.0,0.0,0.0,0.0,0.0,0.0,0.0,0.0,0.0,0.0,0.0,0.0,0.0,4.4628,4.5415,4.5899,4.5922,4.5929,4.5802,4.5541,4.5524,4.5455,4.5339,4.5379,4.54,4.5419,4.5476,4.5531,4.5586,4.5586,4.5586,4.5586,4.5586,4.5586,4.5586,4.5586,4.5586,4.5586,4.5622,4.5302,4.4825,4.4599,4.5348,4.6573,4.6573,4.7582,4.8978,-2.1738,-2.1797,-2.184,-2.1957,0.0,0.0,0.0,0.0,0.0,0.0,0.0,0.0,0.0,0.0,0.0,0.0,0.0,-1.2604,-1.2984,0.0,0.0,0.0,0.0,0.0,0.0,0.0,0.0,0.0,0.0,0.0,0.0,0.0,0.0,0.0,2.7832,2.8227,2.8854,0.0,0.0,3.0666,3.1452,0.0,3.2073,3.2249,3.2336,3.2371,3.2669,3.2687,3.2696,3.3723,3.4812,3.5907,0.0,0.0,0.0,3.9078,0.0,0.0,0.0,0.0,0.0,0.0,0.0,0.0,4.0687,4.0754,4.0762,0.0,4.0838,0.0,0.0,0.0,0.0,0.0,0.0,0.0,0.0,0.0,0.0,0.0,0.0,0.0,4.4625,4.499,4.5379,4.6017,4.6008,4.5906,4.5756,4.5634,4.5571,4.5539,4.5512,4.5476,4.5495,4.555,4.5586,4.5586,4.5586,4.5586,4.5586,4.5586,4.5586,4.5586,4.5586,4.5586,4.5603,4.5657,4.5457,4.5118,4.5118,4.5892,4.6986,4.7043,4.801,4.9321,-2.1511,-2.1573,-2.1664,-2.1738,0.0,0.0,0.0,0.0,0.0,0.0,0.0,0.0,0.0,0.0,0.0,0.0,0.0,0.0,0.0,0.0,0.0,0.0,0.0,0.0,0.0,0.0,0.0,0.0,0.0,0.0,0.0,0.0,0.0,0.0,0.0,0.0,0.0,0.0,3.0097,3.0625,3.1376,0.0,3.2144,3.2267,3.2354,3.2475,3.2981,3.33,3.3723,3.483,3.5652,0.0,3.7627,3.8294,3.8756,0.0,3.9656,3.9816,0.0,0.0,0.0,4.0473,0.0,0.0,0.0,4.0746,4.0757,4.0745,4.0776,4.08,0.0,0.0,0.0,0.0,0.0,0.0,0.0,0.0,0.0,0.0,0.0,0.0,4.3479,4.4377,4.5253,4.6096,4.6127,4.6035,4.5906,4.5852,4.5744,4.56,4.561,4.5582,4.5495,4.5568,4.5586,4.5586,4.5586,4.5586,4.5586,4.5586,4.5586,4.5586,4.5586,4.5622,4.5657,4.5693,4.5603,4.5437,4.5343,4.6088,4.7257,4.7197,4.8211,4.9529,-2.1448,-2.1556,-2.1664,-2.1694,0.0,0.0,0.0,0.0,0.0,0.0,0.0,0.0,0.0,0.0,0.0,0.0,0.0,0.0,0.0,0.0,0.0,0.0,0.0,1.629,0.0,0.0,0.0,0.0,0.0,0.0,0.0,0.0,0.0,0.0,0.0,0.0,0.0,0.0,0.0,3.0502,0.0,3.1651,3.237,3.2459,3.2599,3.2809,3.3421,3.4176,3.5046,3.5869,3.649,3.7027,3.7709,3.8375,0.0,0.0,0.0,0.0,0.0,0.0,0.0,0.0,0.0,4.0679,0.0,0.0,0.0,0.0,0.0,0.0,0.0,0.0,0.0,0.0,0.0,0.0,0.0,0.0,0.0,0.0,0.0,0.0,0.0,4.3734,4.5014,4.5878,4.5969,4.5995,4.6044,4.6024,4.592,4.5684,4.5713,4.5677,4.5547,4.5586,4.5586,4.5586,4.5586,4.5586,4.5586,4.5586,4.5586,4.5586,4.5603,4.564,4.5709,4.5726,4.5722,4.57,4.5472,4.6261,4.7514,4.7409,4.8415,4.9811,-2.1781,-2.1811,-2.184,-2.1708,0.0,0.0,0.0,0.0,0.0,0.0,0.0,0.0,0.0,0.0,0.0,0.0,0.0,0.0,-1.545,0.0,0.0,0.0,0.0,0.0,1.9964,0.0,0.0,0.0,0.0,0.0,0.0,0.0,0.0,0.0,2.7494,0.0,0.0,0.0,2.9377,0.0,3.0418,3.1472,0.0,3.2876,3.327,3.3839,3.4038,3.4774,3.5784,0.0,3.7138,3.7855,0.0,3.9054,3.9137,3.9508,0.0,0.0,0.0,0.0,0.0,0.0,4.0214,0.0,0.0,0.0,4.0611,4.0543,0.0,0.0,0.0,0.0,0.0,0.0,0.0,0.0,0.0,0.0,0.0,0.0,0.0,0.0,0.0,4.3183,4.4117,4.4991,4.5099,4.5475,4.6236,4.6157,4.6064,4.6049,4.5891,4.5766,4.5771,4.5651,4.5586,4.5586,4.5586,4.5586,4.5586,4.5586,4.5586,4.5603,4.5657,4.5693,4.5709,4.577,4.58,4.58,4.5765,4.6692,4.801,4.7991,4.8989,5.032,-2.2752,-2.2668,-2.2785,-2.3036,0.0,0.0,0.0,0.0,0.0,0.0,0.0,0.0,0.0,0.0,0.0,0.0,0.0,-2.0671,0.0,0.0,0.0,0.0,0.0,0.0,0.0,0.0,0.0,0.0,2.4969,0.0,0.0,0.0,0.0,0.0,2.7488,0.0,2.7925,0.0,2.9737,0.0,0.0,0.0,0.0,3.2918,3.3527,3.476,3.4817,3.5558,3.6594,0.0,3.759,0.0,0.0,0.0,0.0,3.9401,0.0,0.0,0.0,0.0,0.0,0.0,0.0,0.0,4.0607,0.0,4.0598,0.0,0.0,0.0,0.0,0.0,0.0,0.0,4.0928,0.0,0.0,0.0,0.0,0.0,0.0,0.0,0.0,0.0,0.0,0.0,4.4968,4.5386,4.6245,4.6255,4.6181,4.6098,4.6016,4.5925,4.58,4.5742,4.5703,4.5657,4.5657,4.5673,4.5651,4.5651,4.5651,4.5651,4.5687,4.5719,4.5754,4.58,4.5795,4.5805,4.5805,4.6804,4.8263,4.8137,4.9144,5.0547,-2.4113,-2.3816,-2.3742,0.0,0.0,0.0,0.0,0.0,0.0,0.0,0.0,0.0,-2.4823,-2.4986,0.0,0.0,-2.5992,-2.6257,0.0,0.0,-1.351,0.0,0.0,0.0,0.0,0.0,0.0,0.0,0.0,0.0,0.0,0.0,0.0,0.0,0.0,2.7725,2.7985,0.0,2.9908,3.0386,3.1593,3.2883,3.3963,3.3465,3.4189,3.5439,3.5439,3.6105,3.7069,3.7703,3.7861,0.0,3.859,0.0,0.0,0.0,0.0,0.0,3.9599,0.0,0.0,0.0,0.0,0.0,0.0,0.0,0.0,0.0,0.0,0.0,0.0,0.0,0.0,0.0,0.0,4.0967,0.0,0.0,0.0,0.0,0.0,0.0,0.0,0.0,0.0,4.4438,4.461,4.5137,4.623,4.6296,4.6269,4.617,4.6112,4.6024,4.5879,4.5841,4.5794,4.5735,4.5735,4.5735,4.57,4.57,4.57,4.57,4.5715,4.5765,4.58,4.5795,4.5805,4.58,4.58,4.6864,4.8377,4.8243,4.9271,5.0718,-2.5872,-2.521,0.0,0.0,0.0,0.0,0.0,0.0,0.0,0.0,0.0,0.0,0.0,0.0,0.0,0.0,0.0,-2.9073,-2.8619,0.0,-2.4414,0.0,0.0,0.1574,0.0,0.0,0.0,0.0,0.0,0.0,0.0,0.0,0.0,0.0,0.0,2.7825,2.8232,2.8974,2.945,2.9808,3.1054,3.243,3.3918,0.0,3.5476,3.5856,3.5856,0.0,0.0,3.7703,3.7861,0.0,0.0,0.0,0.0,0.0,0.0,0.0,0.0,0.0,0.0,4.01,0.0,0.0,0.0,0.0,4.0593,0.0,0.0,0.0,0.0,0.0,0.0,0.0,0.0,0.0,0.0,0.0,0.0,0.0,0.0,0.0,0.0,0.0,0.0,4.3613,4.3737,4.4484,4.6202,4.63,4.63,4.63,4.6176,4.6098,4.6091,4.5969,4.5856,4.5796,4.5796,4.5761,4.57,4.57,4.57,4.5715,4.5765,4.58,4.5815,4.5805,4.58,4.58,4.58,4.6864,4.8392,4.8392,4.944,5.089,-2.6705,-2.6567,0.0,0.0,-2.6017,0.0,0.0,-2.5811,0.0,0.0,-2.5962,0.0,0.0,-2.7218,-2.7828,0.0,0.0,-2.8506,-2.8803,-2.3266,0.0,0.0,0.0,-0.156,0.0,0.0,0.0,0.0,0.0,0.0,0.0,0.0,0.0,0.0,0.0,2.8628,0.0,0.0,0.0,0.0,0.0,3.373,3.4843,0.0,0.0,3.5907,3.5907,3.6392,0.0,3.7431,3.7667,3.7897,3.8336,3.8683,3.8979,3.9073,3.9137,0.0,0.0,0.0,3.9395,3.9683,0.0,0.0,0.0,0.0,0.0,0.0,0.0,0.0,0.0,0.0,0.0,0.0,0.0,0.0,0.0,0.0,0.0,0.0,0.0,0.0,0.0,0.0,0.0,4.3574,4.37,4.4465,4.6202,4.63,4.63,4.63,4.6269,4.6181,4.6098,4.6052,4.5998,4.5925,4.5891,4.5887,4.5907,4.581,4.5771,4.5771,4.5786,4.5805,4.5805,4.58,4.58,4.5858,4.6438,4.7366,4.8392,4.8392,4.9455,5.0906,-2.6989,-2.7038,-2.7023,0.0,0.0,0.0,0.0,0.0,0.0,0.0,-2.7247,0.0,-2.7467,0.0,-2.8704,0.0,-2.8902,-2.9099,-2.9284,-2.401,0.0,-2.9588,-1.5739,-0.7954,0.0,0.0,0.0,0.0,0.0,2.6736,0.0,0.0,0.0,0.0,0.0,2.9448,3.0061,3.1014,3.129,0.0,0.0,3.4382,0.0,0.0,3.5424,3.6097,0.0,3.6392,3.7048,3.7337,3.7596,3.7913,3.8238,3.8652,3.8989,3.8979,3.9017,3.9101,3.9055,3.9137,0.0,3.9451,3.984,0.0,4.0457,0.0,0.0,0.0,0.0,0.0,0.0,0.0,0.0,0.0,0.0,0.0,0.0,4.0907,0.0,0.0,0.0,0.0,0.0,0.0,4.1793,4.3574,4.37,4.4465,0.0,0.0,4.63,4.63,4.63,4.6269,4.6176,4.6177,4.6135,4.6075,4.6026,4.6019,4.6027,4.593,4.5858,4.5858,4.5819,4.58,4.58,4.58,4.58,4.5877,4.6748,4.7637,4.843,4.8759,4.9726,5.0906,-2.6859,-2.6876,-2.6826,0.0,-2.6343,0.0,0.0,0.0,-2.7894,0.0,-2.8619,-2.8795,-2.9065,-2.9693,-3.0085,-3.0081,-3.0683,-3.0764,-3.006,-3.0274,0.0,0.0,-2.2026,-1.736,-1.6954,0.0,0.0,0.0,0.0,0.0,0.0,0.0,0.0,0.0,2.9674,0.0,3.052,3.1197,3.1459,3.1597,3.3355,3.4399,3.4899,3.4899,3.556,3.6402,3.6011,3.635,3.7009,3.7339,3.7632,3.7911,3.8267,3.8559,3.8762,3.8719,3.878,3.8881,3.8822,3.9017,3.9305,3.9427,0.0,0.0,0.0,0.0,4.0654,0.0,0.0,0.0,0.0,0.0,0.0,0.0,0.0,0.0,0.0,0.0,0.0,0.0,0.0,0.0,4.1,4.0992,4.1741,4.3554,4.37,4.4465,0.0,0.0,4.63,4.63,4.63,4.63,4.63,4.63,4.626,4.6203,4.6206,4.6176,4.6106,4.6035,4.6002,4.6007,4.5858,4.58,4.58,4.58,4.58,4.5877,4.6806,4.7715,4.8624,4.9455,5.0248,5.0906,-2.7487,-2.7657,-2.7857,0.0,-2.742,-2.7022,0.0,0.0,0.0,0.0,-2.9763,-3.0352,-3.04,-3.0913,-3.1155,-3.0828,-3.0699,0.0,0.0,0.0,0.0,-3.0526,-2.8222,-2.3688,-1.6771,-0.4939,0.4898,1.2516,0.0,0.0,2.7889,0.0,0.0,0.0,0.0,0.0,3.189,3.2074,3.2136,3.2206,3.3082,3.3919,0.0,0.0,3.5362,3.6011,3.5661,3.5985,3.665,3.6713,3.7034,3.7469,3.7844,3.8101,3.835,3.8627,3.864,3.8572,3.851,3.8766,3.9055,3.9055,3.9513,3.9979,0.0,0.0,0.0,0.0,0.0,0.0,0.0,0.0,0.0,0.0,0.0,0.0,0.0,0.0,0.0,4.0898,0.0,4.0964,4.0917,4.0967,4.1729,4.3498,4.3669,0.0,0.0,0.0,0.0,4.63,4.63,4.63,4.63,4.63,4.6296,4.6264,4.6223,4.6186,4.6179,4.6091,4.6074,4.6065,4.6046,4.5988,4.5949,4.5949,4.5877,4.5955,4.7463,4.8952,5.0287,5.0519,5.0732,5.0906,-2.8336,-2.8252,-2.8345,-2.8926,0.0,0.0,-2.8715,-2.8993,0.0,-3.008,-3.0854,0.0,-3.1271,-3.1689,-3.1714,-3.1162,-3.0885,0.0,-3.03,0.0,0.0,-3.0485,-3.0359,-2.7869,-2.2671,-1.3168,0.0,0.7092,0.0,0.0,2.8567,0.0,0.0,0.0,0.0,3.1824,3.2648,3.2617,3.2641,3.2803,3.3371,3.3935,0.0,3.4787,3.5148,3.5436,3.5241,3.5633,3.6241,3.6444,3.6719,3.7114,3.7632,3.7948,3.8234,3.8578,3.8658,3.8559,3.8415,3.8725,3.9017,3.8921,3.9383,3.9914,3.9914,4.0,4.012,0.0,0.0,0.0,0.0,0.0,0.0,0.0,0.0,0.0,0.0,0.0,0.0,0.0,4.0926,4.0935,4.0856,4.1305,4.2158,4.345,4.3962,0.0,0.0,0.0,0.0,4.63,4.6306,4.6293,4.6293,4.6303,4.63,4.63,4.6267,4.623,4.623,4.6175,4.6147,4.6146,4.6114,4.6072,4.6053,4.6028,4.6007,4.6104,4.7818,4.9491,5.0947,5.097,5.0961,5.0906,-2.9348,-2.8883,0.0,0.0,0.0,0.0,0.0,-2.9939,0.0,-3.1291,0.0,-3.1896,-3.1714,-3.1967,-3.186,-3.1162,0.0,-3.0764,-3.0103,-3.0359,-3.0443,-3.0274,-3.0373,-3.0405,-3.0356,-2.1175,-1.1017,0.0,0.0,0.0,0.0,0.0,0.0,0.0,0.0,0.0,0.0,3.2711,3.2788,3.3039,3.3713,3.3984,3.4034,3.4691,3.4899,3.4899,3.4899,3.5316,3.5907,3.6301,3.6557,3.6847,3.7578,3.7929,3.8198,3.8578,3.8707,3.8627,3.8465,3.8707,3.9017,3.8921,3.935,3.9826,3.9848,3.9979,4.012,4.0248,4.0247,4.03,0.0,0.0,0.0,0.0,0.0,0.0,0.0,0.0,0.0,0.0,0.0,0.0,4.082,4.1652,4.2565,4.3421,0.0,0.0,0.0,0.0,0.0,4.6303,4.6297,0.0,4.6303,0.0,4.6306,4.6306,4.6307,4.6308,4.6308,4.623,4.6211,4.6211,4.6147,4.6125,4.6118,4.6111,4.6235,4.6571,4.804,4.9596,5.1023,5.1092,5.1035,5.0928,-3.0351,-3.0383,0.0,0.0,0.0,-3.0836,-3.1206,-3.1202,-3.127,-3.138,-3.1674,-3.1802,-3.1714,-3.1452,-3.1261,-3.1123,-3.0781,0.0,0.0,0.0,0.0,-3.0609,-3.1291,-3.1318,-3.0545,-2.2504,-1.2397,0.0,0.0,0.0,0.0,0.0,0.0,0.0,0.0,0.0,3.2453,3.2247,0.0,3.1894,3.2949,3.3355,3.3459,3.4529,3.4899,3.4899,3.4899,3.5148,3.5543,3.5881,3.6182,3.6557,3.7505,3.7792,3.7897,3.8515,3.8609,3.8528,3.8415,3.8541,3.8707,3.8862,3.9101,3.9395,3.9607,3.9583,3.9642,3.9982,3.9964,4.0004,4.0422,0.0,0.0,0.0,0.0,0.0,0.0,0.0,0.0,0.0,0.0,4.0869,0.0,4.1024,4.1782,0.0,0.0,0.0,0.0,0.0,0.0,0.0,4.6305,0.0,0.0,0.0,4.6307,4.6307,4.6308,4.6308,4.6308,4.6289,4.6289,4.6289,4.6268,4.6226,4.6186,4.6177,4.6956,4.8191,4.8502,4.9646,5.1167,5.1174,5.1167,5.1128,-3.1215,0.0,0.0,0.0,0.0,0.0,0.0,-3.2076,-3.2101,-3.1385,-3.179,-3.2107,-3.1974,-3.2116,-3.2215,-3.2215,-3.1875,-3.1636,-3.1636,-3.1636,-3.1696,-3.1841,-3.2087,-3.1884,-3.1194,-2.7255,-1.7071,-0.0385,0.0,0.0,0.0,0.0,0.0,0.0,0.0,3.2272,0.0,0.0,0.0,3.2064,3.2879,3.3182,3.3339,3.4464,3.4899,3.4899,3.4899,3.4977,3.5195,3.5732,3.5968,3.6199,3.717,3.7577,3.7774,3.8252,3.8496,3.8559,3.8433,3.8541,3.8743,3.8862,3.9064,3.9283,3.9552,3.9552,3.9607,3.9941,3.9943,4.0042,4.0427,4.0495,0.0,0.0,0.0,0.0,0.0,0.0,4.063,0.0,0.0,0.0,0.0,0.0,0.0,0.0,0.0,0.0,0.0,0.0,0.0,0.0,0.0,0.0,0.0,0.0,0.0,4.6308,4.6308,4.6308,4.6308,4.6308,4.6307,4.6301,4.6301,4.6284,4.6288,4.6747,4.7604,4.8703,4.9192,5.0155,5.1246,5.1249,5.1258,5.1224,0.0,-3.1821,0.0,0.0,-3.1896,-3.1839,-3.2159,-3.2732,-3.2717,-3.1574,-3.2196,-3.2621,-3.2352,-3.2816,-3.3169,-3.3169,-3.2884,-3.268,-3.268,-3.2741,-3.2785,-3.2907,-3.2862,-3.2548,-3.1951,-3.1853,-2.2625,0.0,0.0,0.0,0.0,0.0,0.0,0.0,0.0,0.0,0.0,0.0,3.2094,3.2287,3.2933,3.3182,3.3339,3.4464,3.4899,3.4899,3.4899,3.4899,3.4977,3.5688,3.5881,3.5968,3.69,3.745,3.7756,3.8034,3.835,3.8609,3.8465,3.8559,3.8732,3.8803,3.8931,3.9129,3.9432,3.9483,3.957,3.9941,4.0062,4.0177,4.0449,4.0531,0.0,0.0,0.0,0.0,0.0,0.0,0.0,0.0,0.0,0.0,4.1293,0.0,0.0,0.0,0.0,0.0,0.0,0.0,0.0,0.0,0.0,4.6308,4.6308,0.0,4.6308,0.0,4.6308,4.6308,4.6308,4.6308,4.6305,4.63,4.63,4.629,4.636,4.7243,4.8047,4.8824,4.9742,5.0605,5.132,5.1328,5.1326,5.1313,0.0,0.0,0.0,0.0,0.0,0.0,-3.3406,-3.3154,-3.2771,-3.2263,-3.3019,-3.3362,-3.2713,-3.2719,-3.2768,-3.2768,-3.2724,-3.268,-3.268,-3.2829,-3.2873,-3.2917,-3.3762,-3.3736,-3.2724,-3.3369,-2.7713,0.0,0.0,0.5288,0.0,0.0,0.0,0.0,0.0,0.0,0.0,3.2053,3.1826,3.1682,3.2772,3.3182,3.3339,3.4464,3.4899,3.4899,3.4899,3.4899,3.4977,3.5688,3.5907,3.602,3.6921,3.7487,3.7827,3.8034,3.83,3.851,3.8415,3.8368,3.8387,3.851,3.8554,3.8676,3.9129,3.9129,3.9227,3.988,4.023,4.0457,4.0482,4.0449,4.043,0.0,0.0,0.0,0.0,0.0,4.0636,4.0986,0.0,0.0,0.0,4.2391,0.0,0.0,4.455,0.0,0.0,0.0,0.0,4.6211,0.0,4.6308,4.6308,4.6308,4.6308,4.6308,4.6308,4.6308,4.6308,4.6308,4.6305,4.63,4.63,4.629,4.638,4.7247,4.8108,4.8959,4.9785,5.0637,5.1385,5.1382,5.1382,5.1385,0.0,0.0,0.0,0.0,0.0,0.0,0.0,-3.4491,-3.4484,-3.4082,-3.4133,-3.3963,-3.3433,-3.3756,-3.4005,-3.4005,-3.4005,-3.4005,-3.4005,-3.416,-3.4205,-3.4205,-3.4442,-3.4215,-3.348,-3.3486,-2.5227,0.0,0.0,0.0,0.0,0.0,0.0,0.0,0.0,3.1321,3.1712,3.1712,3.164,3.1582,3.2367,3.2895,3.3303,3.4118,3.4594,3.4899,3.4899,3.4899,3.4977,3.5688,3.5907,3.6037,3.6713,3.7129,3.7432,3.7395,3.8097,3.8894,3.8773,3.9222,3.9758,3.9908,3.9922,4.0084,4.0531,4.0207,3.9918,4.0438,4.0285,4.0101,4.0196,4.0232,4.0286,0.0,0.0,0.0,0.0,0.0,0.0,4.181,0.0,4.2694,0.0,0.0,0.0,0.0,0.0,0.0,0.0,0.0,0.0,4.6191,0.0,4.6212,4.6308,4.6269,4.6269,4.6308,4.6308,4.6308,4.6308,4.6303,4.6297,4.6295,4.6306,4.6303,4.6407,4.7806,4.8568,4.8984,5.0344,5.1082,5.1394,5.1394,5.1394,5.1394,-3.3308,0.0,-3.4449,0.0,-3.457,-3.4834,-3.4896,-3.5367,-3.5632,-3.5349,-3.5087,-3.4783,-3.4363,-3.4662,-3.4899,-3.4899,-3.4899,-3.4899,-3.4899,-3.5041,-3.5152,-3.5152,-3.4883,0.0,-3.3933,-3.3475,-2.6101,-1.1549,-0.4304,0.0,0.0,0.0,0.0,0.0,3.0237,3.0673,3.1219,3.1409,3.1482,3.1524,3.2176,3.2749,3.3251,3.3866,3.4448,3.4899,3.4899,3.5032,3.5309,3.5983,3.6341,3.6583,3.6901,3.7224,3.7538,3.7694,3.8594,3.9517,3.9535,4.011,4.0722,4.0773,4.0789,4.0906,4.1396,4.1,4.068,4.1086,4.0904,4.0663,4.0726,4.0883,4.1014,4.1054,0.0,0.0,0.0,4.198,0.0,4.2659,4.3247,4.356,4.3366,4.4496,0.0,0.0,0.0,0.0,0.0,0.0,0.0,0.0,0.0,0.0,0.0,4.6207,4.6211,4.6269,4.6289,4.6308,4.6308,4.6295,4.6306,4.6297,4.6306,4.6456,4.6807,4.8271,4.8993,4.9325,5.0828,5.1394,5.1394,5.1394,5.1394,5.1394,-3.4783,-3.503,-3.5169,-3.5013,-3.4764,-3.4861,-3.5577,-3.5601,-3.552,-3.5593,-3.5776,-3.582,-3.5599,-3.5195,-3.4899,-3.4899,-3.4899,-3.4899,-3.4899,-3.5152,-3.5291,0.0,0.0,-3.4529,-3.4036,-3.3443,-3.3098,-3.2929,0.0,0.0,-0.1651,0.0,2.9407,2.9566,3.0208,3.0524,3.0584,3.1219,3.1482,3.1524,3.2176,3.2749,3.3251,3.3866,3.4448,3.4899,3.4899,3.5363,3.6073,3.6671,3.7347,3.7933,3.7811,3.7971,3.84,3.9462,3.9998,4.0366,4.0686,4.0739,4.0688,4.0564,4.051,4.0651,4.1199,4.1185,4.1261,4.1771,4.2299,4.2619,4.2495,4.2699,4.2868,4.2865,0.0,0.0,0.0,0.0,0.0,4.3497,4.3235,4.3595,4.5031,4.4829,0.0,0.0,0.0,0.0,0.0,0.0,0.0,4.5988,4.6066,0.0,4.6098,4.6162,4.6191,4.6191,4.6269,4.6308,4.6308,4.6295,4.63,4.63,4.63,4.6788,4.7647,4.8466,4.9306,5.0165,5.1063,5.1394,5.1394,5.1394,5.1394,5.1394,-3.5249,-3.5733,-3.6006,-3.5557,-3.5867,-3.6151,-3.6134,-3.622,-3.6225,-3.595,-3.5924,-3.5776,-3.5526,-3.5148,-3.4899,0.0,-3.4899,-3.4899,0.0,-3.5152,-3.5291,-3.5291,-3.4658,-3.4185,-3.3969,-3.3108,-2.9131,-2.1993,0.0,0.0,0.0,2.56,2.8789,2.8839,2.903,2.9656,3.0524,3.0718,3.1087,3.1524,3.2176,3.2749,3.3251,3.3866,3.4759,3.5644,3.5644,3.6125,3.6804,3.7034,3.7427,3.7967,3.8521,3.8629,3.8659,3.8911,3.977,4.0642,4.0778,4.1481,4.2177,4.214,4.214,4.2268,4.2757,4.2593,4.2192,4.1781,4.1819,4.1935,4.1969,4.2027,4.2157,4.2433,4.2759,0.0,0.0,0.0,4.3917,4.418,4.4084,4.4215,4.4669,4.4889,0.0,0.0,0.0,0.0,0.0,0.0,0.0,0.0,4.5932,0.0,4.6017,4.6105,4.6133,4.613,4.6247,4.6306,4.6305,4.629,4.63,4.6339,4.6924,4.7334,4.7705,4.9111,4.9852,5.0184,5.1063,5.1394,5.1394,5.1394,5.1394,5.1394,-3.6296,-3.6662,-3.6774,-3.6236,-3.6444,-3.6597,-3.6343,-3.6544,-3.6502,-3.5898,-3.5864,-3.5732,-3.5207,-3.5024,0.0,-3.4899,-3.4899,-3.4899,-3.4899,-3.5152,-3.5198,-3.4994,-3.435,-3.3935,-3.3716,-3.268,0.0,-1.7168,-0.3179,1.205,2.8105,2.8105,2.8105,2.8157,2.8417,2.898,2.978,3.0269,3.0718,3.1146,3.1781,3.2686,3.363,3.4046,3.508,3.6406,3.6406,3.6836,3.7329,3.7501,3.7819,3.8338,3.9191,3.9361,3.9284,3.9541,4.0359,4.1257,4.138,4.2139,4.2882,4.2882,4.2882,4.2995,4.3267,4.324,4.2946,4.2371,4.2463,4.2611,4.265,4.2717,4.2862,4.3175,4.3504,4.3804,4.4032,0.0,4.456,0.0,0.0,0.0,0.0,4.503,4.5264,0.0,0.0,0.0,0.0,0.0,0.0,4.5916,4.5838,0.0,4.5924,4.6028,4.6083,4.6062,4.6212,4.6295,4.6295,4.6306,4.63,4.6358,4.7217,4.7764,4.8154,4.954,5.0282,5.0633,5.1199,5.1394,5.1394,5.1394,5.1394,5.1394,-3.7735,-3.7632,-3.7358,0.0,-3.6557,0.0,-3.6301,-3.6502,-3.6377,-3.556,-3.5705,-3.5554,-3.4835,-3.4804,-3.4899,-3.4899,0.0,0.0,0.0,-3.5105,-3.4994,-3.4497,-3.4152,-3.3716,-3.3198,-3.2201,-2.6804,-1.6759,0.2016,1.6796,2.7523,2.7523,2.7523,2.7523,2.8157,2.8481,2.8597,2.9903,3.0478,3.0642,3.1337,3.2691,3.4304,3.4374,3.5481,3.7134,3.7134,3.7409,3.7826,3.8022,3.843,3.8952,3.9697,3.9952,4.0186,4.0984,4.1561,4.1924,4.2216,4.2555,4.2844,4.2844,4.2882,4.29,4.2882,4.3195,4.3471,4.3387,4.3849,4.425,4.4162,4.4318,4.4519,4.4726,4.465,4.4662,4.487,0.0,4.47,0.0,0.0,0.0,0.0,4.5185,4.5399,0.0,0.0,0.0,0.0,0.0,4.5727,4.58,4.58,4.5805,4.5781,4.5996,4.6056,4.6001,4.6197,4.6296,4.63,4.63,4.6339,4.6436,4.7292,4.8131,4.8954,4.9829,5.0668,5.1394,5.1394,5.1394,5.1394,5.1394,5.1394,5.1394,0.0,0.0,-3.7226,-3.6574,-3.6367,-3.6301,-3.6301,-3.6343,-3.6216,-3.5783,-3.5588,-3.5379,-3.5041,-3.4851,-3.4804,-3.4899,-3.4899,-3.4899,-3.4899,-3.4756,-3.4578,-3.4301,-3.3716,-3.3287,-3.3039,-3.2145,-2.3114,-0.5536,-0.0379,1.0842,2.7523,2.7523,2.7523,2.7523,2.7656,2.8039,2.8532,2.9393,3.0344,3.1372,3.2506,3.3495,3.4337,3.4823,3.5879,3.7178,3.7178,3.7758,3.8543,3.8394,3.8564,3.8843,3.9242,3.9645,4.0103,4.0693,4.1071,4.1373,4.1338,4.1864,4.2378,4.2378,4.2634,4.2844,4.2655,4.3032,4.3422,4.3406,4.3712,4.3974,4.3897,4.3828,4.398,4.4411,4.4374,4.4448,4.4846,4.477,0.0,0.0,4.456,4.456,4.456,4.5004,4.5263,0.0,0.0,0.0,0.0,4.575,4.5731,4.5795,4.5795,4.5781,4.5715,4.5874,4.5988,4.6079,4.6118,4.6206,4.63,4.63,4.6651,4.7331,4.8112,4.8956,4.9848,5.0628,5.1121,5.1394,5.1394,5.1394,5.1394,5.1394,5.1394,5.1394,-3.8402,-3.8418,-3.8404,-3.8011,-3.7617,-3.7353,-3.7353,-3.7353,-3.7161,-3.6603,-3.6464,-3.6245,-3.5844,-3.5762,-3.5762,-3.5909,-3.5086,-3.4546,-3.4546,-3.4267,-3.3935,-3.3563,-3.3355,-3.3039,-3.2749,-3.2048,-2.182,-0.1698,0.7529,1.7366,2.7523,2.7523,2.7523,2.7536,2.7798,2.8104,2.8519,2.9799,3.0814,3.1588,3.2901,3.3966,3.4814,3.5183,3.6299,3.7672,3.7576,3.8019,3.8544,3.8262,3.8343,3.8662,3.9098,3.9506,4.002,4.0468,4.0901,4.1146,4.0943,4.1366,4.1888,4.2032,4.2356,4.2552,4.2315,4.2696,4.3105,4.3087,4.3495,4.3818,4.3719,4.3634,4.373,4.4231,4.425,4.4336,4.4745,4.4764,0.0,4.4515,4.4515,4.4515,4.4515,4.4814,4.5074,4.5201,4.5494,0.0,4.575,4.5719,4.5719,4.575,4.5765,4.5735,4.5703,4.58,4.5914,4.6005,4.6005,4.6049,4.6131,4.6534,4.6982,4.7482,4.868,4.9487,5.0022,5.0852,5.1245,5.1302,5.1386,5.1394,5.1394,5.1394,5.1394,5.1394,-3.9634,-3.9751,-3.9878,-3.9722,-3.9066,-3.8594,-3.8594,-3.8594,-3.8351,-3.7564,-3.7515,-3.7385,-3.683,-3.683,-3.6949,-3.7102,-3.5377,-3.4274,-3.4313,-3.3781,-3.3287,-3.2841,-3.2986,-3.2841,-3.2398,-3.1838,-2.1785,-0.1698,1.512,2.4804,2.7667,2.7745,2.7798,2.7811,2.8294,2.8516,2.8681,3.0565,3.1443,3.166,3.3107,3.4379,3.5416,3.5416,3.6538,3.8051,3.7854,3.8017,3.8262,3.8001,3.8026,3.8311,3.8974,3.9401,3.9765,4.032,4.0758,4.1024,4.0754,4.1065,4.1543,4.1881,4.2086,4.2145,4.1934,4.236,4.2772,4.2693,4.3304,4.3753,4.3615,4.3566,4.3664,4.4162,4.4221,4.4327,4.4667,0.0,4.4659,4.4515,4.4515,4.4515,4.4515,4.4662,4.4896,4.5118,4.5322,4.5494,4.5648,4.5637,4.5654,4.5684,4.57,4.5703,4.5693,4.5746,4.5802,4.5878,4.5878,4.5966,4.6113,4.686,4.7345,4.7675,4.9128,4.9858,5.0037,5.0821,5.115,5.1187,5.1297,5.1333,5.1333,5.1362,5.1367,5.1367,-3.9797,-3.9789,-3.9682,-3.8912,-3.8666,-3.8594,-3.8594,-3.8594,-3.8442,-3.798,-3.7629,-3.7368,-3.7153,-3.6882,-3.6847,-3.7051,-3.5873,-3.5112,-3.5194,-3.3773,-3.2895,-3.2788,-3.2641,-3.2437,-3.2247,-3.1495,-2.1476,-0.1698,0.2226,1.2371,2.8255,2.8765,2.9013,2.9013,2.9104,2.9144,2.9285,3.0758,3.1763,3.2362,3.3785,3.479,3.5454,3.5454,3.6166,3.7131,3.7071,3.7445,3.7943,3.7943,3.7786,3.7801,3.8701,3.9082,3.9295,4.007,4.0387,4.0436,4.0271,4.0724,4.1418,4.2061,4.2103,4.1892,4.1675,4.2239,4.2772,4.2693,4.3304,4.3753,4.3615,4.3566,4.3697,4.4289,4.426,4.4355,4.4821,0.0,4.4659,4.4515,4.4515,4.4515,4.4515,4.4662,4.48,4.4849,4.5052,4.5243,4.5438,4.5381,4.5438,4.5603,4.5673,4.5709,4.5693,4.5637,4.568,4.5822,4.5822,4.6222,4.6996,4.7151,4.8006,4.9404,4.9548,5.0079,5.0821,5.0907,5.0972,5.1031,5.1053,5.1063,5.1074,5.1195,5.1218,5.1252,-4.0402,-4.0559,-4.0634,-4.0219,-3.9985,-3.9819,-3.9819,-3.9633,-3.933,-3.8923,-3.8504,-3.8212,-3.8071,-3.7912,-3.7929,-3.8278,-3.6819,-3.6007,-3.6158,-3.4469,-3.3433,-3.3433,-3.3506,-3.3521,-3.3464,-2.1765,-1.1247,-0.2175,0.9793,2.0222,2.8869,2.9157,2.9274,2.9287,2.9601,2.9745,2.983,3.1626,3.2539,3.2944,3.4463,3.522,3.5504,3.5504,3.6085,3.6906,3.6754,3.7222,3.7886,3.7727,3.7743,3.7943,3.8827,3.9135,3.9401,4.0171,4.0288,4.0221,4.0451,4.0819,4.13,4.1805,4.1892,4.1849,4.1648,4.2008,4.2342,4.2279,4.2846,4.3356,4.325,4.3358,4.3548,4.3899,4.3886,0.0,0.0,4.443,4.4421,4.4487,4.4515,4.4515,4.4515,4.4568,4.4662,4.4776,4.4862,4.4957,4.518,4.5074,4.5074,4.518,4.5476,4.564,4.564,4.5622,4.5637,4.57,4.6166,4.6619,4.7066,4.7975,4.8825,4.9598,5.0019,5.0441,5.0851,5.0887,5.0913,5.0945,5.1004,5.1008,5.102,5.115,5.1203,5.1211,-4.0996,-4.1261,-4.149,-4.1356,-4.1134,-4.0888,-4.0776,-4.0502,-4.007,-3.9506,-3.9169,-3.8969,-3.8805,-3.8805,-3.8914,-3.9272,-3.7809,-3.6867,-3.7013,-3.5525,-3.4545,-3.412,-3.4342,-3.4475,-3.4475,-1.8197,-0.7362,-0.2598,1.4215,2.4862,2.9483,2.9614,2.968,2.9693,3.0137,3.0393,3.0699,3.2469,3.3283,3.3561,3.4935,3.5504,3.5504,3.5439,3.6022,3.6799,3.6523,3.7013,3.7786,3.7583,3.7685,3.8042,3.8827,3.9135,3.9332,4.0154,4.0271,4.0221,4.0802,4.1036,4.1209,4.1675,4.1805,4.1805,4.1648,4.1813,4.199,4.1924,4.248,4.2995,4.292,4.3178,4.3446,4.3612,0.0,0.0,0.0,4.4121,4.4199,4.4487,4.4515,4.4515,4.4515,4.4515,4.456,4.4714,4.4648,4.47,4.4934,4.4795,4.4751,4.4872,4.5302,4.555,4.5586,4.5797,4.5893,4.5913,4.6778,4.7298,4.7528,4.8817,4.951,4.974,5.0394,5.0702,5.0702,5.0791,5.0841,5.0858,5.0903,5.0926,5.0953,5.1103,5.115,5.1187,-4.1367,-4.1375,-4.1401,-4.1012,-4.0918,-4.0776,-4.0387,-4.0305,-3.9986,-3.9169,-3.9023,-3.8969,-3.8805,-3.8805,-3.8914,-3.9272,-3.8613,-3.7914,-3.7408,-3.6961,-3.6024,-3.4522,-3.4475,-3.4475,-3.4475,-3.2027,-2.1481,-0.2598,0.0481,1.1598,3.0085,3.0607,3.0856,3.0856,3.0908,3.1328,3.2019,3.2847,3.3561,3.4312,3.5133,3.5504,3.5504,3.5294,3.5797,3.6476,3.6274,3.6785,3.7539,3.7539,3.7389,3.7476,3.8511,3.8717,3.8778,3.985,4.0138,4.0303,4.1213,4.1192,4.1152,4.2019,4.1934,4.1604,4.1604,4.1813,4.199,4.1924,4.248,4.2995,4.292,4.3178,4.3463,4.3726,0.0,0.0,4.4202,4.4181,4.4199,4.4487,4.4515,4.4515,4.4515,4.4515,4.4515,4.4524,4.4383,4.444,4.4693,4.453,4.465,4.514,4.5201,4.5342,4.5586,4.6394,4.6797,4.6817,4.7625,4.8432,4.9221,4.9336,4.9837,5.0606,5.0604,5.0643,5.0702,5.0643,5.0663,5.0721,5.0721,5.0721,5.0739,5.094,5.102,5.1053,-4.1053,-4.1071,-4.1088,-4.0918,-4.0995,-4.1024,-4.0884,-4.0434,-3.9986,-3.9662,-3.9061,-3.8655,-3.8805,-3.8805,-3.8914,-3.9272,-3.8717,-3.8238,-3.8141,-3.737,-3.6566,-3.5737,-3.5722,-3.5859,-3.604,-2.176,-1.0539,-0.2992,1.1857,2.3103,3.066,3.0882,3.0986,3.0986,3.0986,3.1394,3.2146,3.2861,3.363,3.438,3.5213,3.5504,3.5504,3.5294,3.5718,3.6492,3.6274,3.6708,3.7329,3.7329,3.715,3.7118,3.8367,3.8574,3.8613,3.9747,4.0037,4.0121,4.0767,4.0913,4.1105,4.1849,4.1805,4.156,4.1515,4.148,4.149,4.1408,4.2008,4.248,4.236,4.2826,4.3286,4.3339,0.0,4.3511,4.3886,4.403,4.4199,4.4487,4.4515,4.4515,4.4515,4.4515,4.4487,4.444,4.4344,4.4314,4.4401,4.4229,4.4402,4.4919,4.5475,4.5982,4.6413,4.674,4.7163,4.7663,4.8509,4.9086,4.9413,4.9952,5.0375,5.0702,5.0623,5.0603,5.0623,5.0582,5.0582,5.0643,5.0643,5.0663,5.0721,5.0926,5.1008,5.1042,-4.0728,-4.0823,-4.0888,-4.0888,-4.0995,-4.1071,-4.0931,-4.0385,-3.9935,-3.9749,-3.9044,-3.86,-3.886,-3.886,-3.8969,-3.9272,-3.8898,-3.8535,-3.8327,-3.7251,-3.6631,-3.6492,-3.6492,-3.6616,-3.6816,-2.1072,-0.9655,-0.3055,1.3021,2.4374,3.0986,3.0986,3.0986,3.0986,3.0986,3.1394,3.2146,3.2861,3.363,3.438,3.5213,3.5439,3.5359,3.5148,3.5653,3.6352,3.6196,3.6631,3.7254,3.7194,3.7013,3.6952,3.7994,3.8446,3.8794,3.9747,3.9986,3.9986,4.0319,4.0628,4.0948,4.1569,4.1675,4.156,4.1426,4.1318,4.1209,4.129,4.177,4.2198,4.2239,4.275,4.3178,4.3104,4.3123,4.3267,4.3545,4.3809,4.4079,4.4335,4.444,4.4487,4.4487,4.4487,4.4458,4.4354,4.4314,4.4226,4.4135,4.4315,4.4662,4.5174,4.6013,4.6862,4.7645,4.7664,4.7971,4.8529,4.9394,4.9798,4.9817,5.0433,5.0702,5.0702,5.0603,5.0582,5.0603,5.05,5.05,5.0582,5.0603,5.0623,5.0683,5.0889,5.0966,5.1042,-4.0485,-4.0728,-4.0888,-4.0888,-4.0888,-4.0776,-4.0355,-4.0104,-3.9729,-3.9259,-3.8952,-3.886,-3.8969,-3.9023,-3.9094,-3.9272,-3.9272,-3.8788,-3.7648,-3.6723,-3.6274,-3.6492,-3.6492,-3.6492,-3.6492,-3.526,-2.4195,-0.2825,-0.1571,0.9979,3.0986,3.0986,3.0986,3.0986,3.0986,3.1394,3.2146,3.2861,3.363,3.438,3.5213,3.5359,3.5148,3.5001,3.5429,3.6196,3.5991,3.6569,3.748,3.7254,3.7089,3.7044,3.7504,3.8334,3.9312,3.9781,3.9901,3.9952,4.0087,4.0353,4.0724,4.1237,4.1498,4.156,4.1426,4.1318,4.1283,4.1622,4.1948,4.2297,4.2616,4.2957,4.3178,4.3104,4.2994,4.2995,4.3267,4.3545,4.3809,4.406,4.4335,4.4487,4.4383,4.4383,4.4354,4.4314,4.4244,4.4153,4.4023,4.4841,4.5541,4.6089,4.6885,4.7962,4.9277,4.9356,4.9394,4.9413,5.0279,5.0702,5.0702,5.0702,5.0702,5.0683,5.0563,5.0542,5.0582,5.0457,5.0435,5.05,5.0582,5.0603,5.0604,5.0825,5.0906,5.1063,-4.0648,-4.0793,-4.0888,-4.0888,-4.1012,-4.1071,-4.0931,-4.0628,-4.022,-3.98,-3.9259,-3.8914,-3.886,-3.886,-3.8985,-3.9272,-3.9272,-3.886,-3.787,-3.7087,-3.6616,-3.6492,-3.6492,-3.6723,-3.7118,-2.0839,-0.9383,-0.3409,1.3215,2.4711,3.0986,3.0986,3.0986,3.0986,3.0986,3.169,3.2861,3.3073,3.3851,3.492,3.5213,3.5148,3.5001,3.5169,3.5688,3.6211,3.6274,3.6662,3.7121,3.6907,3.6785,3.6846,3.778,3.8518,3.9152,3.9729,3.9746,3.9642,3.9694,4.0054,4.0563,4.1007,4.1272,4.1408,4.1318,4.1198,4.1123,4.1134,4.1356,4.1674,4.2092,4.2418,4.2711,4.2938,4.3069,4.3196,4.3303,4.3545,4.3679,4.3609,4.3936,4.4097,4.3918,4.4158,4.4314,4.4244,4.4693,4.4947,4.4915,4.5677,4.6296,4.6638,4.74,4.8199,4.9003,4.9277,4.9683,5.0239,5.0548,5.0702,5.0702,5.0702,5.0663,5.0623,5.0542,5.0478,5.0457,5.0367,5.0371,5.0435,5.0457,5.0478,5.0621,5.1391,5.1669,5.1818,-4.0583,-4.0776,-4.0888,-4.0888,-4.0853,-4.0836,-4.0836,-4.0417,-3.9935,-3.9714,-3.9259,-3.8969,-3.8914,-3.8969,-3.9094,-3.9272,-3.9164,-3.875,-3.7943,-3.7401,-3.6921,-3.6492,-3.6631,-3.6862,-3.7194,-1.8723,-0.722,-0.3529,1.5361,2.6854,3.0986,3.0986,3.0986,3.0986,3.0986,3.169,3.2791,3.3073,3.3796,3.4787,3.5082,3.5133,3.5103,3.5234,3.5752,3.6336,3.6352,3.6677,3.6938,3.6785,3.66,3.6708,3.7895,3.8463,3.8827,3.9609,3.9694,3.9501,3.9448,3.9901,4.0466,4.0645,4.1041,4.1363,4.1255,4.1152,4.1093,4.1134,4.1202,4.1499,4.2068,4.2315,4.2516,4.2844,4.3032,4.3124,4.3124,4.3373,4.3477,4.3266,4.3712,4.3892,4.3642,4.3986,4.4375,4.4619,4.5337,4.5769,4.5769,4.6531,4.7071,4.7327,4.8084,4.8679,4.9098,4.9325,4.9816,5.0562,5.0603,5.0623,5.0623,5.0623,5.0603,5.0562,5.05,5.0435,5.039,5.0325,5.0325,5.0348,5.039,5.0645,5.1056,5.1664,5.2107,5.255,-4.0485,-4.0728,-4.0888,-4.0888,-4.06,-4.0337,-4.0337,-3.9747,-3.9259,-3.9259,-3.9115,-3.9023,-3.8969,-3.9148,-3.9272,-3.9272,-3.8914,-3.8455,-3.7943,-3.7535,-3.7058,-3.6492,-3.6816,-3.6552,-3.5523,-2.3591,-1.2251,-0.1689,1.0444,2.1375,3.0986,3.0986,3.0986,3.0986,3.0986,3.1468,3.2218,3.2932,3.3575,3.4221,3.4868,3.5184,3.5285,3.5264,3.5718,3.6429,3.6274,3.6538,3.6938,3.6723,3.66,3.6723,3.7895,3.8197,3.827,3.9345,3.959,3.9432,3.9379,3.985,4.0368,4.037,4.0853,4.1363,4.1209,4.1152,4.1169,4.1356,4.1321,4.1499,4.2292,4.2396,4.2418,4.2768,4.2882,4.2882,4.2882,4.3087,4.316,4.2958,4.36,4.392,4.3582,4.4077,4.4693,4.5342,4.6141,4.6605,4.6605,4.7367,4.7876,4.8078,4.8757,4.9196,4.9375,4.9416,4.9792,5.0438,5.0459,5.0459,5.05,5.05,5.05,5.05,5.0435,5.0412,5.039,5.0325,5.0359,5.0417,5.0463,5.1044,5.181,5.1874,5.2414,5.3267,-4.0485,-4.0728,-4.0888,-4.0888,-4.084,-4.0776,-4.0776,-4.0387,-3.9918,-3.9558,-3.9312,-3.9061,-3.886,-3.8969,-3.9148,-3.9272,-3.8311,-3.7738,-3.7886,-3.6876,-3.6336,-3.6492,-3.6816,-3.2879,-2.3978,-1.2504,-0.1158,0.9927,2.1764,2.8687,3.0986,3.0986,3.0986,3.0986,3.0986,3.175,3.2946,3.303,3.3673,3.4721,3.4817,3.475,3.4654,3.5365,3.5703,3.5958,3.6399,3.6662,3.6723,3.6616,3.6554,3.6662,3.7812,3.8042,3.8173,3.9255,3.9432,3.9379,3.9694,4.0104,4.0466,4.0628,4.096,4.1226,4.1123,4.1029,4.0935,4.0871,4.0758,4.0819,4.1248,4.1543,4.1846,4.2279,4.2673,4.2882,4.2882,4.2806,4.267,4.2472,4.3539,4.42,4.3905,4.5176,4.6081,4.6215,4.6995,4.7441,4.7441,4.8153,4.8579,4.8649,4.8621,4.8802,4.9085,4.9001,4.9314,5.0032,5.0087,5.0245,5.05,5.05,5.0478,5.0435,5.0412,5.0367,5.0325,5.0302,5.0703,5.1334,5.1314,5.1854,5.2638,5.3398,5.3785,5.4077,-4.0485,-4.068,-4.084,-4.0888,-4.0566,-4.0286,-4.0286,-3.9799,-3.9292,-3.9061,-3.8952,-3.886,-3.8711,-3.886,-3.9094,-3.9272,-3.8551,-3.8026,-3.7886,-3.7118,-3.6646,-3.6492,-3.6907,-2.9212,-1.2241,-0.6328,0.2173,1.362,2.5292,3.0986,3.0986,3.0986,3.0986,3.0986,3.1272,3.2055,3.3101,3.3311,3.3962,3.475,3.4549,3.4668,3.5052,3.5219,3.5672,3.6196,3.6476,3.66,3.66,3.6554,3.6414,3.6585,3.7754,3.7927,3.7969,3.9148,3.9395,3.9325,3.9537,3.9799,3.9935,4.0003,4.04,4.0819,4.1029,4.1,4.0888,4.0745,4.0583,4.0597,4.0943,4.1276,4.1656,4.2115,4.2595,4.3027,4.3407,4.3286,4.323,4.34,4.4288,4.4985,4.5168,4.6329,4.707,4.707,4.7813,4.8277,4.8277,4.8616,4.8787,4.8697,4.8569,4.855,4.8677,4.8605,4.8934,4.9627,4.9811,5.0081,5.0393,5.0393,5.039,5.0348,5.0348,5.0325,5.034,5.076,5.12,5.1639,5.2021,5.269,5.3473,5.3981,5.4426,5.4834,-4.0485,-4.0648,-4.0745,-4.0776,-4.0204,-3.9714,-3.9594,-3.8952,-3.8504,-3.8504,-3.856,-3.8616,-3.8616,-3.8821,-3.9023,-3.9148,-3.8788,-3.8327,-3.7754,-3.7342,-3.6952,-3.6492,-3.7074,-2.6525,-0.3305,-0.3416,0.2978,1.6554,2.6296,3.0986,3.0986,3.0986,3.0986,3.0986,3.1556,3.22,3.2974,3.352,3.4099,3.4563,3.4196,3.4572,3.5219,3.4876,3.54,3.6399,3.6352,3.6414,3.6507,3.6615,3.6583,3.6755,3.8014,3.828,3.838,3.9511,3.9761,3.9636,3.969,3.9694,3.9768,3.9731,4.017,4.0743,4.1315,4.1173,4.0875,4.0868,4.0788,4.0805,4.1181,4.1522,4.193,4.2381,4.2871,4.3439,4.4165,4.4057,4.408,4.451,4.5224,4.5937,4.6749,4.7482,4.7906,4.7906,4.8519,4.8909,4.8909,4.8804,4.8732,4.8587,4.8513,4.8401,4.8306,4.8306,4.8623,4.924,4.9483,4.9857,5.0302,5.0302,5.0302,5.0302,5.0455,5.0531,5.0588,5.1448,5.1888,5.2098,5.2766,5.355,5.4314,5.4314,5.4784,5.5408,-4.0485,-4.068,-4.0776,-4.0453,-4.0288,-4.007,-3.9662,-3.9206,-3.8914,-3.8914,-3.8711,-3.8616,-3.8616,-3.8821,-3.8843,-3.8463,-3.7895,-3.7429,-3.7087,-3.6507,-3.6289,-3.6492,-3.7074,-2.6512,-0.3235,-0.3349,0.6894,2.8637,3.0222,3.0986,3.0986,3.0986,3.0911,3.0773,3.1482,3.2128,3.2775,3.3339,3.3839,3.4128,3.3908,3.3756,3.3673,3.3865,3.4476,3.5204,3.5464,3.5943,3.6584,3.6947,3.7513,3.8183,3.9166,3.9875,4.044,4.1014,4.1127,4.111,4.1189,4.1228,4.1338,4.1825,4.2036,4.2261,4.2787,4.1885,4.1013,4.1389,4.1459,4.1613,4.2021,4.2517,4.2978,4.35,4.3997,4.4396,4.4731,4.4617,4.4456,4.4334,4.5479,4.6764,4.794,4.8456,4.8742,4.8742,4.8834,4.8909,4.8909,4.8714,4.8623,4.8587,4.842,4.8306,4.8306,4.8306,4.8495,4.8866,4.89,4.9394,5.0302,5.0302,5.0302,5.034,5.1104,5.1429,5.1486,5.2308,5.3072,5.3779,5.3874,5.4467,5.5231,5.5231,5.532,5.5408,-4.0485,-4.0583,-4.0583,-4.0337,-4.007,-3.9731,-3.9312,-3.8914,-3.8655,-3.8655,-3.856,-3.852,-3.852,-3.8415,-3.8383,-3.8278,-3.7546,-3.6966,-3.689,-3.6445,-3.6226,-3.6492,-3.0869,-1.9898,-0.3097,0.2953,1.4222,3.0986,3.0986,3.0986,3.0986,3.0986,3.0911,3.0773,3.185,3.2417,3.2561,3.3409,3.377,3.3908,3.3409,3.3325,3.3604,3.3919,3.4528,3.5314,3.6224,3.6941,3.7502,3.818,3.8464,3.8733,3.993,4.0464,4.0701,4.1238,4.1409,4.1352,4.1205,4.1033,4.1033,4.1455,4.1643,4.1933,4.2585,4.2346,4.2068,4.221,4.2125,4.2124,4.2289,4.2672,4.321,4.3722,4.4165,4.4739,4.5479,4.5398,4.5401,4.5721,4.631,4.7127,4.8174,4.8458,4.8642,4.8874,4.8909,4.8909,4.8909,4.8714,4.8587,4.8587,4.8402,4.8306,4.8306,4.8306,4.8458,4.8816,4.928,4.9562,4.9749,5.0423,5.0748,5.0786,5.1814,5.227,5.2346,5.3187,5.3741,5.4142,5.4639,5.5059,5.5403,5.5403,5.5409,5.5415]},{"header":{"parameterUnit":"m.s-1","parameterCategory":1,"la1":30.6,"la2":28.766,"lo1":-90.7593,"lo2":-88.6598,"dy":0.0162,"dx":0.0183,"nx":116,"ny":114,"refTime":"2024-02-20T06:00:00:Z","depth":0,"parameterNumber":3,"parameterNumberName":"V-component_of_WINDS"},"data":[0.0,0.0,0.0,0.0,0.0,0.0,0.0,0.0,0.0,0.0,0.0,0.0,0.0,0.0,0.0,0.0,0.0,0.0,0.0,0.0,0.0,0.0,0.0,0.0,0.0,0.0,0.0,0.0,0.0,0.0,0.0,0.0,0.0,0.0,0.0,0.0,0.0,0.0,0.0,0.0,0.0,0.0,0.0,0.0,0.0,0.0,0.0,0.0,0.0,0.0,0.0,0.0,0.0,0.0,0.0,0.0,0.0,0.0,0.0,0.0,0.0,0.0,0.0,0.0,0.0,0.0,0.0,0.0,0.0,0.0,0.0,0.0,0.0,0.0,0.0,0.0,0.0,0.0,0.0,0.0,0.0,0.0,0.0,0.0,0.0,0.0,0.0,0.0,0.0,0.0,0.0,0.0,0.0,0.0,0.0,0.0,0.0,0.0,0.0,0.0,0.0,0.0,0.0,0.0,0.0,0.0,0.0,0.0,0.0,0.0,0.0,0.0,0.0,0.0,0.0,0.0,0.0,0.0,0.0,0.0,0.0,0.0,0.0,0.0,0.0,0.0,0.0,0.0,0.0,0.0,0.0,0.0,0.0,0.0,0.0,0.0,0.0,0.0,0.0,0.0,0.0,0.0,0.0,0.0,0.0,0.0,0.0,0.0,0.0,0.0,0.0,0.0,0.0,0.0,0.0,0.0,0.0,0.0,0.0,0.0,0.0,0.0,0.0,0.0,0.0,0.0,0.0,0.0,0.0,0.0,0.0,0.0,0.0,0.0,0.0,0.0,0.0,0.0,0.0,0.0,0.0,0.0,0.0,0.0,0.0,0.0,0.0,0.0,0.0,0.0,0.0,0.0,0.0,0.0,0.0,0.0,0.0,0.0,0.0,0.0,0.0,0.0,0.0,0.0,0.0,0.0,0.0,0.0,0.0,0.0,0.0,0.0,0.0,0.0,0.0,0.0,0.0,0.0,0.0,0.0,0.0,0.0,0.0,0.0,0.0,0.0,0.0,0.0,0.0,0.0,0.0,0.0,0.0,0.0,0.0,0.0,0.0,0.0,0.0,0.0,0.0,0.0,0.0,0.0,0.0,0.0,0.0,0.0,0.0,0.0,0.0,0.0,0.0,0.0,0.0,0.0,0.0,0.0,0.0,0.0,0.0,0.0,0.0,0.0,0.0,0.0,0.0,0.0,0.0,0.0,0.0,0.0,0.0,0.0,0.0,0.0,0.0,0.0,0.0,0.0,0.0,0.0,0.0,0.0,0.0,0.0,0.0,0.0,0.0,0.0,0.0,0.0,0.0,0.0,0.0,0.0,0.0,0.0,0.0,0.0,0.0,0.0,0.0,0.0,0.0,0.0,0.0,0.0,0.0,0.0,0.0,0.0,0.0,0.0,0.0,0.0,0.0,0.0,0.0,0.0,0.0,0.0,0.0,0.0,0.0,0.0,0.0,0.0,0.0,0.0,0.0,0.0,0.0,0.0,0.0,0.0,0.0,0.0,0.0,0.0,0.0,0.0,0.0,0.0,0.0,0.0,0.0,0.0,0.0,0.0,0.0,0.0,0.0,0.0,0.0,0.0,0.0,0.0,0.0,0.0,0.0,0.0,0.0,0.0,0.0,0.0,0.0,0.0,0.0,0.0,0.0,0.0,0.0,0.0,0.0,0.0,0.0,0.0,0.0,0.0,0.0,0.0,0.0,0.0,0.0,0.0,0.0,0.0,0.0,0.0,0.0,0.0,0.0,0.0,0.0,0.0,0.0,0.0,0.0,0.0,0.0,0.0,0.0,0.0,0.0,0.0,0.0,0.0,0.0,0.0,0.0,0.0,0.0,0.0,0.0,0.0,0.0,0.0,0.0,0.0,0.0,0.0,0.0,0.0,0.0,0.0,0.0,0.0,0.0,0.0,0.0,0.0,0.0,0.0,0.0,0.0,0.0,0.0,0.0,0.0,0.0,0.0,0.0,0.0,0.0,0.0,0.0,0.0,0.0,0.0,0.0,0.0,0.0,0.0,0.0,0.0,0.0,0.0,0.0,0.0,0.0,0.0,0.0,0.0,0.0,0.0,0.0,0.0,0.0,0.0,0.0,0.0,0.0,0.0,0.0,0.0,0.0,0.0,0.0,0.0,0.0,0.0,0.0,0.0,0.0,0.0,0.0,0.0,0.0,0.0,0.0,0.0,0.0,0.0,0.0,0.0,0.0,0.0,0.0,0.0,0.0,0.0,0.0,0.0,0.0,0.0,0.0,0.0,0.0,0.0,0.0,0.0,0.0,0.0,0.0,0.0,0.0,0.0,0.0,0.0,0.0,0.0,0.0,0.0,0.0,0.0,0.0,0.0,0.0,0.0,0.0,0.0,0.0,0.0,0.0,0.0,0.0,0.0,0.0,0.0,0.0,0.0,0.0,0.0,0.0,0.0,0.0,0.0,0.0,0.0,0.0,0.0,0.0,0.0,0.0,0.0,0.0,0.0,0.0,0.0,0.0,0.0,0.0,0.0,0.0,0.0,0.0,0.0,0.0,0.0,0.0,0.0,0.0,0.0,0.0,0.0,0.0,0.0,0.0,0.0,0.0,0.0,0.0,0.0,0.0,0.0,0.0,0.0,0.0,0.0,0.0,0.0,0.0,0.0,0.0,0.0,0.0,0.0,0.0,0.0,0.0,0.0,0.0,0.0,0.0,0.0,0.0,0.0,0.0,0.0,0.0,0.0,0.0,0.0,0.0,0.0,0.0,0.0,0.0,0.0,0.0,0.0,0.0,0.0,0.0,0.0,0.0,0.0,0.0,0.0,0.0,0.0,0.0,0.0,0.0,0.0,0.0,0.0,0.0,0.0,0.0,0.0,0.0,0.0,0.0,0.0,0.0,0.0,0.0,0.0,0.0,0.0,0.0,0.0,0.0,0.0,0.0,0.0,0.0,0.0,0.0,0.0,0.0,0.0,0.0,0.0,0.0,0.0,0.0,0.0,0.0,0.0,0.0,0.0,0.0,0.0,0.0,0.0,0.0,0.0,0.0,0.0,0.0,0.0,0.0,0.0,0.0,0.0,0.0,0.0,0.0,0.0,0.0,0.0,0.0,0.0,0.0,0.0,0.0,0.0,0.0,0.0,0.0,0.0,0.0,0.0,0.0,0.0,0.0,0.0,0.0,0.0,0.0,0.0,0.0,0.0,0.0,0.0,0.0,0.0,0.0,0.0,0.0,0.0,0.0,0.0,0.0,0.0,0.0,0.0,0.0,0.0,0.0,0.0,0.0,0.0,0.0,0.0,0.0,0.0,0.0,0.0,0.0,0.0,0.0,0.0,0.0,0.0,0.0,0.0,0.0,0.0,0.0,0.0,0.0,0.0,0.0,0.0,0.0,0.0,0.0,0.0,0.0,0.0,0.0,0.0,0.0,0.0,0.0,0.0,0.0,0.0,0.0,0.0,0.0,0.0,0.0,0.0,0.0,0.0,0.0,0.0,0.0,0.0,0.0,0.0,0.0,0.0,0.0,0.0,0.0,0.0,0.0,0.0,0.0,0.0,0.0,0.0,0.0,0.0,0.0,0.0,0.0,0.0,0.0,0.0,0.0,0.0,0.0,0.0,0.0,0.0,0.0,0.0,0.0,0.0,0.0,0.0,0.0,0.0,0.0,0.0,0.0,0.0,0.0,0.0,0.0,0.0,0.0,0.0,0.0,0.0,0.0,0.0,0.0,0.0,0.0,0.0,0.0,0.0,0.0,0.0,0.0,0.0,0.0,0.0,0.0,0.0,0.0,0.0,0.0,0.0,0.0,0.0,0.0,0.0,0.0,0.0,0.0,0.0,0.0,0.0,0.0,0.0,0.0,0.0,0.0,0.0,0.0,0.0,0.0,0.0,0.0,0.0,0.0,0.0,0.0,0.0,0.0,0.0,0.0,0.0,0.0,0.0,0.0,0.0,0.0,0.0,0.0,0.0,0.0,0.0,0.0,0.0,0.0,0.0,0.0,0.0,0.0,0.0,0.0,0.0,0.0,0.0,0.0,0.0,0.0,0.0,0.0,0.0,0.0,0.0,0.0,0.0,0.0,0.0,0.0,0.0,0.0,0.0,0.0,0.0,0.0,0.0,0.0,0.0,0.0,0.0,0.0,0.0,0.0,0.0,0.0,0.0,0.0,0.0,0.0,0.0,0.0,0.0,0.0,0.0,0.0,0.0,0.0,0.0,0.0,0.0,0.0,0.0,0.0,0.0,0.0,0.0,0.0,0.0,0.0,0.0,0.0,0.0,0.0,0.0,0.0,0.0,0.0,0.0,0.0,0.0,0.0,0.0,0.0,0.0,0.0,0.0,0.0,0.0,0.0,0.0,0.0,0.0,0.0,0.0,0.0,0.0,0.0,0.0,0.0,0.0,0.0,0.0,0.0,0.0,0.0,0.0,0.0,0.0,0.0,0.0,0.0,0.0,0.0,0.0,0.0,0.0,0.0,0.0,0.0,0.0,0.0,0.0,0.0,0.0,0.0,0.0,0.0,0.0,0.0,0.0,0.0,0.0,0.0,0.0,0.0,0.0,0.0,0.0,0.0,0.0,0.0,0.0,0.0,0.0,0.0,0.0,0.0,0.0,0.0,0.0,0.0,0.0,0.0,0.0,0.0,0.0,0.0,0.0,0.0,0.0,0.0,0.0,0.0,0.0,0.0,0.0,0.0,0.0,0.0,0.0,0.0,0.0,0.0,0.0,0.0,0.0,0.0,0.0,0.0,0.0,0.0,0.0,0.0,0.0,0.0,0.0,0.0,0.0,0.0,0.0,0.0,0.0,0.0,0.0,0.0,0.0,0.0,0.0,0.0,0.0,0.0,0.0,0.0,0.0,0.0,0.0,0.0,0.0,0.0,0.0,0.0,0.0,0.0,0.0,0.0,0.0,0.0,0.0,0.0,0.0,0.0,0.0,0.0,0.0,0.0,0.0,0.0,0.0,0.0,0.0,0.0,0.0,0.0,0.0,0.0,0.0,0.0,0.0,0.0,0.0,0.0,0.0,0.0,0.0,0.0,0.0,0.0,0.0,0.0,0.0,0.0,0.0,0.0,0.0,0.0,0.0,0.0,0.0,0.0,0.0,0.0,0.0,0.0,0.0,0.0,0.0,0.0,0.0,0.0,0.0,0.0,0.0,0.0,0.0,0.0,0.0,0.0,0.0,0.0,0.0,0.0,0.0,0.0,0.0,0.0,0.0,0.0,0.0,0.0,0.0,0.0,0.0,0.0,0.0,0.0,0.0,0.0,0.0,0.0,0.0,0.0,0.0,0.0,0.0,0.0,0.0,0.0,0.0,0.0,0.0,0.0,0.0,0.0,0.0,0.0,0.0,0.0,0.0,0.0,0.0,0.0,0.0,0.0,0.0,0.0,0.0,0.0,0.0,0.0,0.0,0.0,0.0,0.0,0.0,0.0,0.0,0.0,0.0,0.0,0.0,0.0,0.0,0.0,0.0,0.0,0.0,0.0,0.0,0.0,0.0,0.0,0.0,0.0,0.0,0.0,0.0,0.0,0.0,0.0,0.0,0.0,0.0,0.0,0.0,0.0,0.0,0.0,0.0,0.0,0.0,0.0,0.0,0.0,0.0,0.0,0.0,0.0,0.0,0.0,0.0,0.0,0.0,0.0,0.0,0.0,0.0,0.0,0.0,0.0,0.0,0.0,0.0,0.0,0.0,0.0,0.0,0.0,0.0,0.0,0.0,0.0,0.0,0.0,0.0,0.0,0.0,0.0,0.0,0.0,0.0,0.0,0.0,0.0,0.0,0.0,0.0,0.0,0.0,0.0,0.0,0.0,0.0,0.0,0.0,0.0,0.0,0.0,0.0,0.0,0.0,0.0,0.0,0.0,0.0,0.0,0.0,0.0,0.0,0.0,0.0,0.0,0.0,0.0,0.0,0.0,0.0,0.0,0.0,0.0,0.0,0.0,0.0,0.0,0.0,0.0,0.0,0.0,0.0,0.0,0.0,0.0,0.0,0.0,0.0,0.0,0.0,0.0,0.0,0.0,0.0,0.0,0.0,0.0,0.0,0.0,0.0,0.0,0.0,0.0,0.0,0.0,0.0,0.0,0.0,0.0,0.0,0.0,0.0,0.0,0.0,0.0,0.0,-1.3264,0.0,0.0,0.0,0.0,0.0,0.0,0.0,0.0,0.0,0.0,0.0,0.0,0.0,0.0,0.0,0.0,0.0,0.0,0.0,0.0,0.0,0.0,0.0,0.0,0.0,0.0,0.0,2.1427,2.0032,1.7071,1.5273,1.3141,1.0487,0.9865,0.9309,0.8692,0.848,0.8156,0.7729,0.8633,0.9609,1.0679,0.9793,0.9125,0.8679,0.0,0.0,0.0,0.0,0.0,0.0,0.0,0.0,0.0,0.0,0.0,0.0,0.0,0.0,0.0,0.0,0.0,0.0,0.0,0.0,0.0,0.0,0.0,0.0,0.0,0.0,0.0,0.0,0.0,0.0,0.0,0.0,0.0,0.0,0.0,0.0,0.0,0.0,0.0,0.0,0.0,0.0,0.0,0.0,0.0,0.0,0.0,0.0,0.0,0.0,0.0,0.0,0.0,0.0,0.0,0.0,0.0,0.0,0.0,0.0,0.0,0.0,0.0,0.0,0.0,0.0,0.0,0.0,0.0,0.0,0.0,-1.3821,0.0,0.0,0.0,0.0,0.0,0.0,0.0,0.0,0.0,0.0,0.0,0.0,0.0,0.0,0.0,0.0,0.0,0.0,0.0,0.0,0.0,0.0,0.0,0.0,2.1715,2.1446,2.2048,2.1119,1.7995,1.6892,1.4876,1.162,1.0607,0.9799,0.9001,0.8633,0.8579,0.8898,1.0774,1.1844,1.2139,1.2315,1.2005,0.0,0.0,0.0,0.0,0.0,0.0,0.0,0.0,0.0,0.0,0.0,0.0,0.0,0.0,0.0,0.0,0.0,0.0,0.0,0.0,0.0,0.0,0.0,0.0,0.0,0.0,0.0,0.0,0.0,0.0,0.0,0.0,0.0,0.0,0.0,0.0,0.0,0.0,0.0,0.0,0.0,0.0,0.0,0.0,0.0,0.0,0.0,0.0,0.0,0.0,0.0,0.0,0.0,0.0,0.0,0.0,0.0,0.0,0.0,0.0,0.0,0.0,0.0,0.0,0.0,-1.386,-1.3898,-1.3507,-1.4029,-1.4542,-1.5036,-1.5057,-1.507,-1.506,-1.437,0.0,0.0,0.0,0.0,0.0,0.0,0.0,0.0,0.0,0.0,0.0,0.0,0.0,0.0,0.0,0.0,0.0,0.0,0.0,0.0,0.0,2.1277,2.1308,2.1165,2.0883,2.0107,1.8647,1.7773,1.5889,1.2746,1.2444,1.1317,0.9026,0.8738,0.9322,1.0841,1.4631,1.6686,1.702,1.5479,0.0,0.0,0.0,0.0,0.0,0.0,0.0,0.0,0.0,0.0,0.0,0.0,0.0,0.0,0.0,0.0,0.0,0.0,0.0,0.0,0.0,0.0,0.0,0.0,0.0,0.0,0.0,0.0,0.0,0.0,0.0,0.0,0.0,0.0,0.0,0.0,0.0,0.0,0.0,0.0,0.0,0.0,0.0,0.0,0.0,0.0,-1.083,-1.1358,0.0,0.0,0.0,0.0,0.0,0.0,0.0,0.0,0.0,0.0,0.0,0.0,0.0,-1.2648,-1.3702,-1.3727,-1.4223,-1.5154,-1.5219,-1.5477,-1.5843,-1.5956,-1.6012,-1.6115,-1.6618,0.0,-1.6277,-1.6165,0.0,0.0,0.0,0.0,0.0,0.0,0.0,0.0,0.0,0.0,0.0,0.0,0.0,0.0,0.0,0.0,0.0,0.0,0.0,0.0,0.0,1.9836,1.9909,1.9747,2.0218,2.0034,1.8883,1.8387,1.67,1.3484,1.2864,1.1341,0.8705,0.9583,1.1801,1.5355,1.7375,1.8783,1.9632,1.8974,0.0,0.0,0.0,0.0,0.8025,0.7224,0.0,0.0,0.0,0.0,0.0,0.0,0.0,0.0,0.0,0.0,0.0,0.0,0.0,0.0,0.0,0.0,0.0,0.0,0.0,0.0,0.0,0.0,0.0,0.0,0.0,0.0,0.0,0.0,0.0,0.0,0.0,0.0,0.0,0.0,0.0,0.0,0.0,0.0,0.0,-1.0246,-1.0872,-1.1015,-1.0951,-1.0874,0.0,0.0,0.0,0.0,0.0,0.0,0.0,0.0,0.0,-1.4353,-1.4082,-1.4383,-1.5179,-1.5192,-1.5351,-1.5838,-1.6039,-1.6327,-1.6507,-1.6507,-1.6678,-1.7028,-1.7326,-1.7723,-1.8089,-1.6819,-1.6104,-1.5842,0.0,0.0,0.0,0.0,-1.5691,-1.58,0.0,0.0,0.0,0.0,0.0,0.0,0.0,0.0,0.0,0.0,0.0,0.0,1.844,1.8611,1.8627,1.8622,1.9737,2.0053,1.9172,1.9315,1.8138,1.5129,1.4503,1.2764,0.9706,1.1563,1.4575,1.8692,1.9488,2.0461,0.0,0.0,0.0,0.0,0.0,0.0,0.0,0.933,0.8262,0.0,0.0,0.0,0.0,0.0,0.0,0.0,0.0,0.0,0.0,0.0,0.0,0.0,0.0,0.0,0.0,0.0,0.0,0.0,0.0,0.0,0.0,0.0,0.0,0.0,0.0,0.0,0.0,0.0,0.0,0.0,0.0,0.0,0.0,0.0,0.0,0.0,0.0,-1.1116,-1.1379,-1.1319,-1.1599,-1.1828,0.0,0.0,0.0,0.0,0.0,0.0,-1.4119,-1.4762,-1.5328,-1.577,-1.5752,-1.5979,-1.6372,-1.6307,-1.623,-1.624,-1.6572,-1.6665,-1.6738,-1.6855,-1.7159,-1.7585,-1.7585,-1.8301,-1.9374,-1.7528,-1.707,-1.7342,-1.6658,-1.6265,-1.6208,-1.6754,-1.7034,-1.7146,0.0,0.0,0.0,0.0,0.0,0.0,0.0,0.0,0.0,0.0,0.0,1.7234,1.8555,1.8264,1.8096,1.8387,1.9396,1.9936,1.9684,2.1024,2.0776,1.837,1.8825,1.7238,1.3132,1.513,1.7148,1.899,0.0,0.0,0.0,0.0,0.0,0.0,0.0,0.0,0.0,0.0,0.0,1.1559,0.0,0.0,0.0,0.0,0.0,0.0,0.0,0.0,0.0,0.0,0.0,0.0,0.0,0.0,0.0,0.0,0.0,0.0,0.0,0.0,0.0,0.0,0.0,0.0,0.0,0.0,0.0,0.0,0.0,0.0,0.0,0.0,0.0,0.0,0.0,0.0,0.0,0.0,0.0,-1.3151,-1.3566,0.0,0.0,0.0,0.0,-1.4278,-1.4681,-1.5288,-1.6108,-1.6107,-1.6191,-1.6621,-1.666,-1.666,-1.666,-1.6689,-1.6699,-1.6699,-1.6719,-1.6665,-1.6728,-1.7274,-1.7585,-1.7585,-1.7585,-1.8301,-1.9467,-1.8874,-1.8657,-1.8555,-1.8024,-1.7324,-1.6743,-1.7556,-1.7843,-1.7952,0.0,0.0,0.0,0.0,0.0,0.0,0.0,0.0,1.6225,1.6416,1.5928,1.599,1.7162,1.6705,1.6549,1.6967,1.7679,1.8345,1.8809,2.028,1.9876,1.7083,1.9097,1.9467,1.7702,1.8043,1.9636,2.2476,0.0,0.0,0.0,0.0,0.0,0.0,0.0,0.0,0.0,0.0,0.0,0.0,0.0,0.931,0.0,0.0,0.0,0.0,0.0,0.0,0.0,0.0,0.0,0.0,0.0,0.0,0.0,0.0,0.0,0.0,0.0,0.0,0.0,0.0,0.0,0.0,0.0,0.0,0.0,0.0,0.0,0.0,0.0,0.0,0.0,0.0,0.0,0.0,0.0,0.0,0.0,-1.319,-1.3825,0.0,-1.4181,-1.4735,-1.5294,-1.5704,-1.6168,-1.6537,-1.6723,-1.6556,-1.6562,-1.6728,-1.6665,-1.6665,-1.6665,-1.7275,-1.7559,-1.7559,-1.8115,-1.8379,-1.8379,-1.8577,-1.8715,-1.8695,-1.8339,-1.9003,-2.0233,-1.9437,-1.9239,-1.9297,-1.9114,-1.8861,-1.8735,-1.9389,-1.9639,-1.9696,0.0,0.0,0.0,0.0,0.0,0.0,0.0,0.0,1.5421,1.5106,1.4573,1.4527,1.5463,1.5163,1.5186,1.5913,1.6769,1.7652,1.8602,2.0,2.0025,1.8401,1.9558,2.0467,2.1033,2.0124,2.137,0.0,0.0,0.0,0.0,0.0,0.0,0.0,0.0,0.0,0.0,0.0,0.0,0.0,0.0,0.0,1.0823,0.0,0.0,0.0,0.0,0.0,0.0,0.0,0.0,0.0,0.0,0.0,0.0,0.0,0.0,0.0,0.0,0.0,0.0,0.0,0.0,0.0,0.0,0.0,0.0,0.0,0.0,0.0,0.0,0.0,0.0,0.0,0.0,0.0,0.0,0.0,-1.4266,-1.3849,-1.4696,-1.5369,-1.5449,-1.6048,-1.6576,-1.6911,-1.7123,-1.7362,-1.7526,-1.7352,-1.736,-1.7588,-1.7598,-1.7598,-1.7598,-1.8154,-1.8437,-1.8447,-1.9014,-1.9287,-1.9287,-1.9287,-1.9423,-1.9693,-1.9393,-2.0014,-2.133,-2.0686,-2.0699,-2.1038,-2.0275,-2.0006,-2.0065,-2.0483,-2.061,-2.061,0.0,0.0,0.0,0.0,0.0,0.0,0.0,1.3355,1.4492,1.3746,1.3117,1.2984,1.3606,1.37,1.4196,1.5433,1.6714,1.7977,1.9112,2.0347,2.1528,2.2645,2.0535,2.0468,2.2862,2.1422,0.0,0.0,0.0,0.0,0.0,0.0,0.0,0.0,0.0,0.0,0.0,0.0,0.0,0.0,0.0,0.0,1.2507,0.0,0.0,0.0,0.0,0.0,0.0,0.0,0.0,0.0,0.0,0.0,0.0,0.0,0.0,0.0,0.0,0.0,0.0,0.0,0.0,0.0,0.0,0.0,0.0,0.0,0.0,0.0,0.0,0.0,0.0,0.0,0.0,0.0,-1.3641,-1.4318,-1.5091,-1.5303,-1.6345,-1.7172,-1.7492,-1.7626,-1.7709,-1.7709,-1.7667,-1.7877,-1.8539,-1.8377,-1.8626,-1.9258,-1.9287,-1.9287,-1.9287,-1.9297,-1.9307,-1.9307,-1.9316,-1.9326,-1.9326,-1.9326,-1.9753,-2.0523,-2.0502,-2.1339,-2.265,-2.2639,-2.3056,-2.3568,-2.1512,-2.0706,-2.0706,-2.0682,-2.0682,-2.0706,0.0,0.0,0.0,0.0,0.0,0.0,0.0,1.1388,1.2358,1.2145,1.1644,1.1693,1.2503,1.3246,1.3932,1.454,1.586,1.7424,1.9085,1.9362,2.0377,2.2523,2.0709,0.0,2.3184,0.0,0.0,0.0,0.0,0.0,0.0,0.0,0.0,0.0,0.0,0.0,0.0,0.0,0.0,0.0,0.0,0.0,1.5705,0.0,0.0,0.0,0.0,0.0,0.0,0.0,0.0,0.0,0.0,0.0,0.0,0.0,0.0,0.0,0.0,0.0,0.0,0.0,0.0,0.0,0.0,0.0,0.0,0.0,0.0,0.0,0.0,0.0,0.0,0.0,-1.5612,-1.6425,-1.4844,-1.5796,-1.6636,-1.6524,-1.7133,-1.7523,-1.7657,-1.8319,-1.8637,-1.8506,-1.9053,-1.9453,-1.9475,-1.9353,-1.932,-1.9486,-1.936,-1.9287,-1.9287,-1.959,-1.9746,-1.9746,-2.0059,-2.0215,-2.0215,-2.0215,-2.0651,-2.1373,-2.0461,-2.0969,-2.2302,-2.1306,-2.1724,-2.2942,-2.2917,-2.2907,-2.2907,-2.2895,-2.2895,-2.2907,0.0,0.0,0.0,0.0,0.0,0.0,0.0,1.041,1.1089,1.0646,1.0367,1.041,1.0964,1.2087,1.301,1.3585,1.5382,1.7169,1.8854,1.9651,0.0,0.0,0.0,0.0,0.0,0.0,0.0,0.0,0.0,0.0,0.0,0.0,0.0,0.0,0.0,0.0,0.0,0.0,0.0,0.0,0.0,0.0,1.7664,1.4342,1.1358,0.8748,0.7613,0.599,0.421,0.3168,0.0,0.0,0.0,0.0,0.0,0.0,0.0,0.0,0.0,0.0,0.0,0.0,0.0,0.0,0.0,0.0,0.0,0.0,0.0,0.0,0.0,0.0,0.0,0.0,-1.6632,-1.7291,-1.6628,-1.7397,-1.7931,-1.7646,-1.8249,-1.867,-1.8568,-1.9554,-1.9975,-1.9507,-2.0,-2.0309,-2.0275,-2.0066,-2.0008,-2.0123,-1.9974,-1.9824,-1.9824,-2.0068,-2.0283,-2.0469,-2.0537,-2.0664,-2.084,-2.0654,-2.1011,0.0,-2.1035,-2.1362,-2.2448,-2.1731,-2.1973,0.0,0.0,0.0,0.0,0.0,-2.3482,-2.3773,0.0,0.0,0.0,0.0,0.0,0.0,0.0,0.9931,1.0171,0.9266,0.9117,0.9117,0.9058,1.0277,1.1541,1.2541,1.481,1.6844,1.8312,0.0,0.0,0.0,0.0,0.0,0.0,0.0,0.0,0.0,0.0,0.0,0.0,0.0,0.0,0.0,0.0,0.0,0.0,0.0,0.0,0.0,0.0,0.0,1.9065,1.8659,1.612,1.2319,0.9104,0.7235,0.5957,0.351,0.0,0.0,0.0,0.0,0.0,0.0,0.0,0.0,0.0,0.0,0.0,0.0,0.0,0.0,0.0,0.0,0.0,0.0,0.0,0.0,0.0,0.0,0.0,0.0,-1.7347,-1.8018,-1.8563,-1.9028,-1.9058,-1.8541,-1.9544,-2.0159,-1.9858,-2.0866,-2.1274,-2.0503,-2.0555,-2.071,-2.0951,0.0,0.0,0.0,0.0,-2.0791,-2.0791,-2.0791,-2.0918,-2.1309,-2.0908,-2.0918,-2.1299,-2.0898,-2.1171,-2.1921,-2.1845,-2.2303,-2.2971,-2.2896,-2.2896,-2.3023,-2.2711,-2.2674,-2.2674,-2.2743,-2.3232,-2.3874,0.0,0.0,0.0,0.0,0.0,0.0,0.0,0.8362,0.8249,0.761,0.7557,0.7337,0.6848,0.8136,0.9569,1.0937,1.2782,1.4779,0.0,0.0,0.0,0.0,0.0,0.0,0.0,0.0,0.0,0.0,0.0,0.0,0.0,0.0,0.0,0.0,0.0,0.0,0.0,0.0,0.0,0.0,0.0,0.0,2.1763,1.7575,1.4809,1.2773,0.9791,0.7845,0.6626,0.5658,0.4074,0.2061,-0.036,0.0,0.0,0.0,0.0,0.0,0.0,0.0,0.0,0.0,0.0,0.0,0.0,0.0,0.0,0.0,0.0,0.0,0.0,0.0,0.0,-1.6736,-1.8408,-1.9672,-1.9662,-2.0357,-2.0424,-1.9236,-1.9997,-2.0544,-2.0286,-2.0855,-2.1126,-2.0979,-2.1331,-2.1745,-2.2123,-2.1754,-2.1809,-2.2513,-2.1957,-2.1712,-2.1866,-2.1712,-2.167,-2.1758,0.0,0.0,-2.1758,-2.167,-2.2099,-2.2814,-2.218,-2.2342,-2.3043,-2.2423,-2.2493,-2.3029,-2.2981,-2.2904,-2.2966,-2.3618,-2.3904,-2.413,0.0,0.0,0.0,0.0,0.0,0.0,0.0,0.7025,0.6972,0.6701,0.6918,0.6977,0.6701,0.797,0.9188,0.9957,1.1507,0.0,0.0,0.0,0.0,0.0,0.0,0.0,0.0,0.0,0.0,0.0,0.0,0.0,0.0,0.0,0.0,0.0,0.0,0.0,0.0,0.0,0.0,0.0,0.0,0.0,2.365,1.8931,1.5561,1.2877,0.9785,0.7955,0.6889,0.5763,0.4007,0.1992,-0.0184,-0.2753,-0.4972,0.0,0.0,0.0,0.0,0.0,0.0,0.0,0.0,0.0,0.0,0.0,0.0,0.0,0.0,-1.4401,-1.5012,0.0,-1.708,-1.7983,-1.9214,-2.0125,-2.0357,-2.1101,-2.1224,-2.0144,-2.0983,-2.141,-2.0845,-2.1544,-2.1998,-2.1787,-2.2025,-2.2356,-2.2822,-2.2522,-2.2544,-2.2859,-2.2379,-2.2132,-2.2205,-2.1967,-2.1992,-2.2197,-2.1992,-2.1992,-2.2197,-2.1982,-2.2122,-2.2441,-2.204,-2.2122,-2.2441,-2.205,-2.2122,-2.2483,-2.2487,-2.2917,-2.3667,-2.4049,-2.4514,-2.4975,0.0,0.0,0.0,0.0,0.0,0.0,0.0,0.6209,0.6154,0.6046,0.6426,0.6701,0.6593,0.7688,0.8652,0.9088,1.0586,0.0,0.0,0.0,0.0,0.0,0.0,0.0,0.0,0.0,0.0,0.0,0.0,0.0,0.0,0.0,0.0,0.0,0.0,0.0,0.0,0.0,0.0,0.0,0.0,0.0,2.4919,2.0822,1.7205,1.3847,0.9904,0.7969,0.7172,0.5524,0.3862,0.2238,0.0563,-0.2735,-0.5883,-0.5337,-0.5567,0.0,0.0,0.0,0.0,0.0,0.0,0.0,0.0,0.0,-1.2692,-1.3886,-1.451,-1.5093,-1.6208,-1.6809,-1.7655,-1.9282,-1.9836,-2.0346,-2.1057,-2.1659,-2.1811,-2.1153,-2.1955,-2.2237,-2.1447,-2.2317,-2.2809,-2.2673,-2.2635,-2.2832,-2.3298,-2.3155,-2.3125,-2.3207,-2.2712,-2.2453,-2.2536,-2.2296,-2.2305,-2.2627,-2.2295,-2.2305,-2.2627,-2.2285,-2.2129,-2.2129,-2.2129,-2.2129,-2.2129,-2.2129,-2.2129,-2.2129,-2.2129,-2.2929,-2.4009,-2.4317,-2.4814,-2.5515,0.0,0.0,0.0,0.0,0.0,0.0,0.0,0.0,0.5987,0.5496,0.5441,0.5336,0.4846,0.4948,0.5927,0.8037,0.0,0.0,0.0,0.0,0.0,0.0,0.0,0.0,0.0,0.0,0.0,0.0,0.0,0.0,0.0,0.0,0.0,0.0,0.0,0.0,0.0,0.0,0.0,0.0,0.0,0.0,2.5654,2.1606,1.9267,1.7336,1.0939,0.8429,0.7907,0.665,0.4575,0.2513,0.2446,-0.1317,-0.5759,-0.595,0.0,-0.59,-0.5933,-0.7552,-0.9752,-1.1943,-1.2493,-1.3116,0.0,0.0,-1.4953,-1.6549,-1.6885,-1.7061,-1.7675,-1.8129,-1.8722,-1.9846,-2.0467,-2.1101,-2.2029,-2.2248,-2.2299,-2.2424,-2.2435,-2.2412,-2.2382,-2.2465,-2.2694,-2.308,-2.3111,-2.3318,-2.3774,-2.3535,-2.3719,-2.4289,-2.37,-2.3441,-2.3614,-2.3172,-2.3027,-2.3066,-2.3018,-2.3027,-2.3066,-2.3018,-2.2998,-2.2998,-2.2998,-2.2998,-2.2998,-2.2998,-2.2998,-2.2998,-2.2998,-2.3075,-2.3322,-2.4083,-2.4489,-2.4646,0.0,0.0,0.0,0.0,0.0,0.0,0.0,0.0,0.0,0.4846,0.5117,0.5226,0.5007,0.5281,0.5954,0.0,0.0,0.0,0.0,0.0,0.0,0.0,0.0,0.0,0.0,0.0,0.0,0.0,0.0,0.0,0.0,0.0,0.0,0.0,0.0,0.0,0.0,0.0,0.0,0.0,0.0,0.0,2.4329,2.2868,2.1152,1.87,1.2139,0.9747,0.0,0.0,0.4383,0.1265,0.2401,-0.0598,-0.474,-0.5104,-0.5799,0.0,-0.8183,-0.9328,-1.0677,-1.2769,-1.3321,-1.3614,-1.4845,-1.5021,-1.5332,-1.6974,-1.7244,-1.7539,-1.8599,-1.871,-1.9019,0.0,-2.097,-2.1527,-2.2226,-2.2553,-2.2818,-2.3069,-2.2894,-2.2738,-2.2715,-2.2818,-2.3091,-2.3557,-2.3588,-2.3784,-2.424,-2.4176,-2.4173,-2.4444,-2.3927,-2.3667,-2.3841,-2.3319,-2.3135,-2.3135,-2.3135,-2.3135,-2.3135,-2.3135,-2.3135,-2.3135,-2.3135,-2.3135,-2.3135,-2.3135,-2.3135,-2.3135,-2.3135,-2.3135,-2.3183,-2.4148,-2.4428,-2.4583,0.0,0.0,0.0,0.0,0.0,0.0,0.0,0.0,0.0,0.0,0.4846,0.5062,0.5062,0.5609,0.0,0.0,0.0,0.0,0.0,0.0,0.0,0.0,0.0,0.0,0.0,0.0,0.0,0.0,0.0,0.0,0.0,0.0,0.0,0.0,0.0,0.0,0.0,0.0,0.0,0.0,0.0,0.0,2.331,2.3276,2.2316,2.0192,1.3857,1.1138,0.0,0.0,0.4584,0.1199,0.3211,0.0399,-0.3671,-0.43,-0.5362,-0.685,-0.9064,-1.0071,-1.0954,-1.274,-1.3502,-1.3863,-1.4296,-1.4812,-1.5545,-1.7012,-1.7222,-1.7585,-1.8901,-1.8871,-1.9065,-2.0622,-2.1283,-2.18,-2.2422,-2.2794,-2.3112,-2.3437,-2.3388,-2.3281,-2.3261,-2.3335,-2.3567,-2.4022,-2.4064,-2.4198,-2.4519,-2.454,-2.454,-2.454,-2.4013,-2.3841,-2.3841,-2.3319,-2.3135,-2.3135,-2.3135,-2.3135,-2.3135,-2.3135,-2.3135,-2.3135,-2.3135,-2.3135,-2.3135,-2.3135,-2.3135,-2.3135,-2.3135,-2.3135,-2.3135,-2.3907,-2.4241,-2.4584,0.0,0.0,0.0,0.0,0.0,0.0,0.0,0.0,0.0,0.0,0.0,0.0,0.0,0.0,0.0,0.0,0.0,0.0,0.0,0.0,0.0,0.0,0.0,0.0,0.0,0.0,0.0,0.0,0.0,0.0,0.0,0.0,0.0,0.0,0.0,0.0,0.0,0.0,0.0,0.0,0.0,0.0,2.3295,2.2254,2.2462,2.2498,1.6368,0.0,0.0,0.0,0.5731,0.3458,0.5603,0.2207,0.0,-0.3969,-0.4834,-0.5734,-0.7149,-0.8745,-1.0342,-1.1571,-1.2948,-1.4052,-1.4364,-1.5115,-1.6055,-1.7095,-1.7159,-1.736,-1.8446,-1.8537,-1.8995,-2.0558,-2.122,-2.1909,-2.2848,-2.299,-2.3187,-2.3678,-2.3756,-2.3987,0.0,-2.4096,-2.4043,-2.4488,-2.4519,-2.4529,-2.454,-2.454,-2.454,-2.454,-2.4013,-2.3841,-2.3841,-2.3319,-2.3135,-2.3135,-2.3135,-2.3135,-2.3135,-2.3135,-2.3135,-2.3135,-2.3135,-2.3135,-2.3135,-2.3135,-2.3135,-2.3135,-2.3135,-2.3135,-2.3135,-2.3135,-2.3734,-2.4498,0.0,0.0,0.0,0.0,0.0,0.0,0.0,0.0,0.0,0.0,0.0,0.0,0.0,0.0,0.0,0.0,0.0,0.0,0.0,0.0,0.0,0.0,0.0,0.0,0.0,0.0,0.0,0.0,0.0,0.0,0.0,0.0,0.0,0.0,0.0,0.0,0.0,0.0,0.0,0.0,0.0,0.0,2.3051,2.4479,2.3179,2.0219,0.0,0.0,0.0,0.0,0.0,0.0,0.3954,0.1668,-0.2071,-0.382,-0.4489,-0.5137,-0.7455,-0.8989,-1.0405,-1.2066,-1.3067,-1.3817,-1.4224,-1.4899,-1.5714,-1.6909,-1.6599,-1.6541,-1.7972,-1.7571,-1.7789,-2.0022,-2.0776,-2.1482,-2.2796,-2.3001,-2.3231,-2.3881,-2.3881,0.0,0.0,0.0,0.0,-2.4529,-2.454,-2.454,-2.454,-2.454,-2.4176,-2.3551,-2.3927,-2.3657,-2.2843,-2.3222,-2.3319,-2.3135,-2.3135,-2.3135,-2.3135,-2.3135,-2.3135,-2.3135,-2.3135,-2.3135,-2.3135,-2.3135,-2.3057,-2.2882,-2.2882,-2.2882,-2.2882,-2.2882,-2.3135,-2.3309,0.0,0.0,0.0,0.0,0.0,0.0,0.0,0.0,0.0,0.0,0.0,0.0,0.0,0.0,0.0,0.0,0.0,0.0,0.0,0.0,0.0,0.0,0.0,0.0,0.0,0.0,0.0,0.0,0.0,0.0,0.0,0.0,0.0,0.0,0.0,0.0,0.0,0.0,0.0,0.0,0.0,0.0,2.3306,2.3971,2.2042,0.0,0.0,0.0,0.0,0.0,0.0,0.2861,0.3742,0.1802,-0.1203,-0.328,-0.4087,-0.4809,-0.7066,-0.8617,-0.9875,-1.1396,-1.2426,-1.314,-1.3518,-1.4212,-1.5138,-1.6411,-1.5895,-1.5644,-1.7357,-1.6904,-1.7012,-1.9226,-1.9971,-2.0803,-2.2414,-2.2542,-2.2809,-2.3939,-2.3897,-2.4108,0.0,0.0,0.0,-2.454,-2.454,-2.454,-2.454,-2.454,-2.409,-2.3096,-2.3377,-2.3028,-2.1943,-2.2227,-2.2413,-2.2599,-2.296,-2.3135,-2.3135,-2.3135,-2.3135,-2.3135,-2.3135,-2.3135,-2.3135,-2.3135,-2.3057,-2.2882,-2.2803,-2.2794,-2.2882,-2.2803,-2.2715,-2.2618,0.0,0.0,0.0,0.0,0.0,0.0,0.0,0.0,0.0,0.0,0.0,0.0,0.0,0.0,0.0,0.0,0.0,0.0,0.0,0.0,0.0,0.0,0.0,0.0,0.0,0.0,0.0,0.0,0.0,0.0,0.0,0.0,0.0,0.0,0.0,0.0,0.0,0.0,0.0,0.0,0.0,0.0,2.3992,2.1039,0.0,0.0,0.0,0.0,0.0,0.0,0.0,0.5606,0.496,0.2811,-0.0067,-0.2477,-0.3685,-0.455,-0.5986,-0.7497,-0.8874,-0.9718,-1.1061,-1.2153,-1.2325,-1.3187,-1.4324,-1.568,-1.4985,-1.4799,0.0,0.0,-1.6669,-1.8165,-1.8874,-1.9909,-2.1814,-2.1766,-2.2097,0.0,0.0,0.0,0.0,0.0,0.0,-2.454,0.0,-2.454,-2.454,-2.454,-2.409,-2.3096,-2.2658,-2.1943,-2.0953,-2.0413,-2.0692,-2.1606,-2.2599,-2.296,-2.296,-2.3047,-2.3047,-2.3047,-2.3047,-2.3135,-2.3135,-2.3135,-2.3057,-2.3047,-2.2882,-2.2882,-2.3057,-2.2794,-2.2618,-2.2441,0.0,0.0,0.0,0.0,0.0,0.0,0.0,0.0,0.0,0.0,0.0,0.0,0.0,0.0,0.0,0.0,0.0,0.0,0.0,0.0,0.0,0.0,0.0,0.0,0.0,0.0,0.0,0.0,0.0,0.0,0.0,0.0,0.0,0.0,0.0,0.0,0.0,0.0,0.0,0.0,0.0,0.0,2.3067,0.0,0.0,0.0,0.0,0.0,0.0,0.0,0.0,0.0,0.4989,0.3029,0.0336,-0.2618,-0.362,-0.4074,-0.5917,-0.7281,-0.8302,-0.8969,-1.0143,-1.1364,-1.1844,-1.2813,-1.3833,-1.46,-1.3958,-1.3513,0.0,0.0,0.0,-1.7086,-1.8718,0.0,-2.1899,-2.2392,0.0,-2.378,0.0,-2.4027,-2.4532,-2.454,0.0,0.0,-2.454,-2.454,-2.454,-2.454,-2.3744,-2.2138,-2.2658,-2.1943,-1.9886,-2.0059,-2.0322,-2.0602,-2.1596,-2.1686,-2.0962,-2.2413,-2.2687,-2.2059,-2.2775,-2.3135,-2.3135,-2.3135,-2.2872,-2.2608,-2.253,-2.253,-2.252,-2.2362,-2.2362,-2.2353,0.0,0.0,0.0,0.0,0.0,0.0,0.0,0.0,0.0,0.0,0.0,0.0,0.0,0.0,0.0,0.0,0.0,0.0,0.0,0.0,0.0,0.0,0.0,0.0,0.0,0.0,0.0,0.0,0.0,0.0,0.0,0.0,0.0,0.0,0.0,0.0,0.0,0.0,0.0,0.0,0.0,0.0,0.0,0.0,0.0,0.0,0.0,0.0,0.0,0.0,0.0,0.6109,0.411,0.2559,0.0872,-0.2546,-0.3549,-0.3939,-0.5862,-0.7136,-0.7996,-0.8437,-0.9422,-1.0442,-1.0834,-1.1414,-1.1964,-1.2604,-1.1877,0.0,-1.2698,-1.3194,0.0,0.0,0.0,0.0,-2.1169,-2.1642,-2.2189,0.0,-2.3189,0.0,-2.3543,-2.3796,-2.3907,0.0,-2.4272,-2.454,-2.454,-2.454,-2.3647,-2.1784,-2.1933,-2.0944,-1.8519,-1.9247,-1.9604,-1.9604,-2.0602,-2.0782,-2.0232,-2.132,-2.1507,-2.106,0.0,-2.2511,-2.2511,-2.296,-2.296,-2.2608,-2.2059,-2.2148,-2.2608,-2.1713,-2.1891,-2.2353,0.0,0.0,0.0,0.0,0.0,0.0,0.0,0.0,0.0,0.0,0.0,0.0,0.0,0.0,0.0,0.0,0.0,0.0,0.0,0.0,0.0,0.0,0.0,0.0,0.0,0.0,0.0,0.0,0.0,0.0,0.0,0.0,0.0,0.0,0.0,0.0,0.0,0.0,0.0,0.0,0.0,0.0,0.0,0.0,0.0,0.0,0.0,0.0,0.0,0.0,0.7175,0.6436,0.282,0.1814,0.1273,-0.2339,-0.3409,-0.3811,-0.5774,-0.692,-0.766,-0.7934,-0.8707,-0.9422,-0.9622,-0.9593,-0.9739,-1.0387,0.0,-0.9588,-1.1575,-1.2291,-1.3193,-1.5054,0.0,-1.8163,-2.0153,-2.0417,-2.0995,-2.2564,-2.2271,-2.2036,-2.2233,-2.2669,-2.3008,-2.3096,-2.3734,-2.4272,-2.4454,-2.4368,-2.3464,-2.1606,-2.0863,-1.9497,-1.7419,-1.8241,-1.8603,-1.8611,-1.9604,-1.996,-1.9778,-2.0051,-2.0141,-2.0051,-2.1239,0.0,-2.1784,-2.2687,-2.3047,-2.2872,-2.1686,-2.1961,-2.2784,-2.1329,-2.1427,-2.2353,0.0,0.0,0.0,0.0,0.0,0.0,0.0,0.0,0.0,0.0,0.4024,0.0,0.0,0.0,0.0,0.0,0.0,0.0,0.0,0.0,0.0,0.0,0.0,0.0,0.0,0.0,0.0,0.0,0.0,0.0,0.0,0.0,0.0,0.0,0.0,0.0,0.0,0.0,0.0,0.0,0.0,0.0,0.0,0.0,0.0,0.0,0.0,0.0,0.0,0.0,0.5609,0.44,0.2016,0.1213,0.074,-0.1878,-0.2744,-0.3286,-0.5222,-0.6278,-0.6881,-0.7049,-0.7891,-0.8562,-0.8452,-0.9064,0.0,0.0,-0.9145,-0.9301,-1.0132,-1.1069,-1.2325,-1.4387,-1.637,-1.7959,-1.9089,-2.0589,-2.1326,0.0,-2.1523,-2.187,-2.1474,-2.172,0.0,0.0,0.0,-2.2853,-2.4454,-2.3734,-2.2473,-2.061,-1.9255,-1.835,-1.7994,-1.7699,-1.7606,-1.7598,-1.8603,-1.8603,-1.787,-1.9505,-1.9786,-1.9155,-2.097,0.0,-2.1784,-2.2687,-2.2872,-2.252,-2.2255,-2.2344,-2.2432,-2.1722,-2.19,-2.2353,0.0,0.0,0.0,0.0,0.0,0.0,0.0,0.0,0.0,0.0,0.4128,0.434,0.0,0.0,0.0,0.0,0.0,0.0,0.0,0.0,0.0,0.0,0.0,0.0,0.0,0.0,0.0,0.0,0.0,0.0,0.0,0.0,0.0,0.0,0.0,0.0,0.0,0.0,0.0,0.0,0.0,0.0,0.0,0.0,0.0,0.0,0.0,0.0,0.0,0.0,0.5862,0.3588,0.1679,0.1079,0.0674,-0.141,-0.2076,-0.2557,-0.4428,-0.5544,-0.6126,-0.6279,-0.704,-0.7706,-0.7548,0.0,0.0,0.0,-0.7633,-0.794,-0.9084,-1.0203,0.0,-1.3901,-1.601,-1.7661,-1.8497,-1.9735,0.0,-2.001,-2.0264,-2.038,0.0,-2.0633,0.0,0.0,0.0,-2.2492,-2.4368,-2.3115,-2.1854,-2.0863,-1.9072,-1.7994,-1.79,-1.752,-1.7326,-1.7333,-1.7785,-1.7785,-1.7326,-1.8234,-1.8419,-1.8064,-1.9513,0.0,-2.0962,-2.1961,-2.2511,-2.2608,-2.1418,-2.1606,-2.2432,-2.0799,-2.1078,-2.2176,0.0,0.0,0.0,0.0,0.0,0.0,0.0,0.3638,0.3747,0.407,0.4391,0.5085,0.6396,0.6561,0.0,0.0,0.0,0.0,0.0,0.0,0.0,0.0,0.0,0.0,0.0,0.0,0.0,0.0,0.0,0.0,0.0,0.0,0.0,0.0,0.0,0.0,0.0,0.0,0.0,0.0,0.0,0.0,0.0,0.0,0.0,0.0,0.0,0.0,0.0,0.0,0.6449,0.3713,0.2278,0.1482,0.0808,-0.0738,-0.1346,-0.1972,-0.3704,-0.4662,-0.5292,-0.5579,-0.6232,-0.6788,-0.6788,-0.6788,0.0,-0.6563,-0.6412,-0.6721,-0.8169,-0.9386,-1.091,0.0,-1.5242,-1.6876,-1.7657,-1.8556,-1.9134,0.0,-1.9016,0.0,-1.881,-1.9554,0.0,0.0,0.0,0.0,-2.356,-2.2403,-2.1418,-2.0764,-1.9072,-1.7994,-1.7815,-1.7426,-1.7326,-1.7326,-1.7326,-1.7326,-1.7326,-1.7326,-1.7326,-1.7326,-1.8334,0.0,0.0,-2.0962,-2.1784,-2.2236,-2.0232,-2.0602,-2.1802,-1.9613,-2.0076,-2.1722,0.0,0.0,0.0,0.0,0.0,0.0,0.0,0.3691,0.3635,0.3796,0.4976,0.6348,0.7862,0.7189,0.0,0.0,0.0,0.0,0.0,0.0,0.0,0.0,0.0,0.0,0.0,0.0,0.0,0.0,0.0,0.0,0.0,0.0,0.0,0.0,0.0,0.0,0.0,0.0,0.0,0.0,0.0,0.0,0.0,0.0,0.0,0.0,0.0,0.0,0.0,0.0,0.0,0.4979,0.4268,0.2681,0.101,0.0469,0.0,0.0,-0.3018,-0.3685,-0.4152,-0.5104,-0.5375,-0.5619,-0.6254,0.0,-0.6563,-0.6338,-0.6338,-0.6567,-0.7484,-0.8476,-0.9855,-1.1704,0.0,-1.537,-1.5936,-1.7607,-1.8336,-1.7131,0.0,0.0,-1.8032,-1.8497,0.0,0.0,0.0,0.0,-2.0701,-2.1329,-2.0889,-1.9096,-1.845,-1.8087,-1.8087,-1.752,-1.7326,-1.7326,-1.7326,-1.7326,-1.7326,-1.7326,-1.7326,-1.7326,-1.8334,0.0,0.0,-1.9968,-2.024,-2.0167,-1.9704,-1.9621,-1.9712,-1.9063,-1.9604,-2.0692,0.0,0.0,0.0,0.0,0.0,0.0,0.0,0.3638,0.3691,0.4015,0.4772,0.6157,0.8391,0.841,0.9151,0.0,0.0,0.0,0.0,0.0,0.0,0.0,0.0,0.0,0.0,0.0,0.0,0.0,0.0,0.0,0.0,0.0,0.0,0.0,0.0,0.0,0.0,0.0,0.0,0.0,0.0,0.0,0.0,0.0,0.0,0.0,0.0,0.0,0.0,0.0,0.0,0.0,0.5661,0.3946,0.0,0.0,-0.0068,-0.0985,-0.2169,-0.2817,-0.3266,-0.3653,-0.4528,-0.5309,-0.5473,0.0,-0.6563,-0.6338,-0.6338,-0.6567,-0.733,-0.8497,-0.9902,0.0,0.0,0.0,-1.5606,-1.6293,-1.6706,-1.673,-1.7342,0.0,0.0,0.0,0.0,0.0,0.0,0.0,-2.0339,-2.061,-2.052,-1.972,-1.8635,-1.8087,-1.8087,-1.7613,-1.7326,-1.7326,-1.7326,-1.7326,-1.7326,-1.7326,-1.7326,-1.7326,-1.7692,0.0,0.0,-1.9239,-1.9604,-1.9968,-1.8964,-1.8972,-1.9347,-1.8334,-1.8603,-1.9637,0.0,0.0,0.0,0.0,0.0,0.0,0.3585,0.3585,0.3694,0.3962,0.4725,0.6054,0.8397,0.9195,1.0367,1.2412,0.0,0.0,0.0,0.0,0.0,0.0,0.0,0.0,0.0,0.0,0.0,1.6312,1.7018,0.0,0.0,0.0,0.0,0.0,0.0,0.0,0.0,0.0,0.0,0.0,0.0,0.0,0.0,0.0,0.0,0.0,0.0,0.0,0.0,0.0,0.0,0.0,0.0,0.0,0.0,0.0,0.0619,-0.0285,-0.1233,-0.1866,-0.2381,-0.2652,-0.3597,-0.4533,0.0,0.0,-0.6173,-0.6257,-0.6338,-0.6493,-0.7022,-0.8405,-0.9877,0.0,0.0,-1.4378,-1.4977,-1.5151,-1.5394,0.0,0.0,0.0,0.0,0.0,0.0,0.0,0.0,0.0,-1.9903,-1.9903,-1.9903,-1.9903,-1.8719,-1.8087,-1.8087,-1.7613,-1.7326,-1.7326,-1.7326,-1.7326,-1.7326,-1.7326,-1.7326,-1.7326,-1.7326,0.0,0.0,-1.8334,-1.8696,-1.9147,-1.8041,-1.8048,-1.8535,-1.7428,-1.7834,-1.9172,0.0,0.0,0.0,0.0,0.0,0.0,0.0,0.3585,0.3585,0.3585,0.4925,0.6455,0.7868,0.9233,1.0713,1.2166,0.0,0.0,0.0,0.0,0.0,0.0,0.0,0.0,0.0,0.0,0.0,1.7475,1.7949,1.8202,1.8202,1.8055,0.0,0.0,0.0,0.0,0.0,0.0,0.0,0.0,0.0,0.0,0.0,0.0,0.0,0.0,0.0,0.0,0.0,0.0,0.0,0.0,0.0,0.0,0.0,0.0,0.1673,0.0291,-0.0291,-0.0832,-0.1492,-0.2275,-0.2511,-0.2978,0.0,0.0,-0.524,-0.6103,-0.6338,-0.6338,-0.6338,-0.8087,-0.9476,-0.9552,0.0,0.0,-1.3737,-1.4314,0.0,0.0,0.0,0.0,0.0,0.0,0.0,0.0,0.0,0.0,-1.8827,-1.8827,-1.8827,-1.8827,-1.8365,-1.8087,-1.8087,-1.7613,-1.7326,-1.7326,-1.7326,-1.7326,-1.7326,-1.7326,-1.7326,0.0,0.0,0.0,0.0,-1.7239,-1.7246,-1.6979,-1.6683,-1.6581,-1.6623,-1.6353,-1.7594,-1.9439,0.0,0.0,0.0,0.0,0.0,0.0,0.0,0.3802,0.3694,0.3962,0.4446,0.5562,0.7763,0.8625,0.99,1.2116,0.0,0.0,0.0,0.0,0.0,0.0,0.0,0.0,0.0,0.0,1.7975,1.7828,1.8002,1.8201,1.8475,1.8397,1.8729,0.0,0.0,0.0,0.0,0.0,0.0,0.0,0.0,0.0,0.0,0.0,0.0,0.0,0.0,0.0,0.0,0.0,0.0,0.0,0.0,0.0,0.0,0.402,0.2717,0.1164,0.0655,0.0076,-0.047,-0.0705,-0.2113,-0.3521,-0.4066,0.0,-0.5948,-0.6257,-0.6338,-0.6338,-0.6338,-0.8087,-0.9476,-0.9476,-1.1511,0.0,0.0,0.0,0.0,-1.669,0.0,0.0,0.0,0.0,0.0,0.0,0.0,0.0,-1.9812,-1.918,-1.8743,-1.8566,-1.8272,-1.7994,-1.7815,-1.752,-1.7326,-1.7326,-1.7326,-1.7326,-1.7326,-1.7326,-1.7326,0.0,0.0,0.0,0.0,-1.7066,-1.6972,-1.6683,-1.6407,-1.6443,-1.6636,-1.6434,-1.7364,-1.8851,0.0,0.0,0.0,0.0,0.0,0.0,0.0,0.3747,0.3747,0.4125,0.4553,0.5621,0.7939,0.8743,1.0003,1.2264,0.0,0.0,0.0,0.0,0.0,0.0,0.0,0.0,0.0,1.8135,1.8293,1.8187,1.8344,1.8553,1.8784,1.8846,1.8902,1.8942,1.9295,0.0,0.0,0.0,0.0,0.0,0.0,0.0,1.4735,0.0,0.0,0.0,0.0,0.0,0.0,0.0,0.0,0.0,0.0,0.0,0.0,0.0,0.3344,0.1745,0.109,0.0226,-0.047,-0.047,-0.188,-0.3365,-0.3752,0.0,-0.5867,-0.6261,-0.6338,-0.6278,-0.6332,-0.8053,-0.95,-0.9582,-1.1321,0.0,0.0,0.0,0.0,-1.7223,0.0,0.0,0.0,0.0,0.0,0.0,0.0,0.0,-1.972,-1.9104,-1.8566,-1.8381,-1.8187,-1.7994,-1.7721,-1.7426,-1.7326,-1.7326,-1.7326,-1.7326,-1.7326,-1.7326,-1.7326,0.0,0.0,0.0,0.0,-1.6979,-1.6784,-1.64,-1.6319,-1.6409,-1.669,-1.6498,-1.7301,-1.8703,0.0,0.0,0.0,0.0,0.0,0.0,0.0,0.0,0.0,0.0,0.5035,0.6313,0.818,0.9268,1.062,0.0,0.0,0.0,0.0,0.0,0.0,0.0,0.0,0.0,0.0,1.8422,1.863,1.8553,1.8936,1.9139,1.9124,1.9349,1.9026,1.8359,1.9393,0.0,0.0,0.0,0.0,0.0,1.5633,1.4472,0.0,0.0,0.0,0.0,0.0,0.0,0.0,0.0,0.0,0.0,0.0,0.0,0.0,0.0,0.0,0.0,0.0,-0.0076,-0.1257,-0.1257,-0.1962,-0.2821,-0.3677,0.0,0.0,0.0,0.0,-0.6305,-0.6444,-0.8124,-0.9548,-0.968,-1.142,-1.3045,0.0,-1.3899,0.0,0.0,0.0,0.0,0.0,0.0,0.0,0.0,0.0,0.0,-1.8735,-1.8566,-1.8381,-1.8087,-1.8087,-1.79,-1.7628,-1.7426,-1.7326,-1.7326,-1.7326,-1.7326,-1.7326,-1.7326,-1.7326,0.0,0.0,0.0,0.0,-1.6878,-1.6697,-1.613,-1.6245,-1.6436,-1.6744,-1.6733,-1.7622,-1.8825,0.0,0.0,0.0,0.0,0.0,0.0,0.0,0.0,0.0,0.0,0.0,0.5202,0.7026,0.818,0.0,0.0,0.0,0.0,0.0,0.0,0.0,0.0,0.0,0.0,0.0,1.8784,1.8988,1.895,1.9273,1.942,1.9398,1.905,1.8781,1.8588,1.8239,0.0,0.0,0.0,0.0,0.0,1.5049,1.4301,0.0,0.0,0.0,0.0,1.0989,1.0358,0.0,0.0,0.0,0.0,0.0,0.0,0.0,0.0,0.2788,0.1236,0.1018,0.0,-0.047,-0.1096,-0.2347,-0.3677,0.0,0.0,0.0,0.0,0.0,0.0,0.0,-0.8124,-0.9548,-0.968,-1.1843,-1.373,-1.4398,0.0,0.0,0.0,0.0,0.0,0.0,0.0,0.0,0.0,0.0,-1.8735,-1.8574,-1.8574,-1.8381,-1.8087,-1.7908,-1.7714,-1.7426,-1.7326,-1.7326,-1.7326,-1.7326,-1.7326,-1.7326,-1.7326,-1.7326,0.0,0.0,0.0,-1.6588,-1.6683,-1.64,-1.5953,-1.6175,-1.6451,-1.674,-1.7042,-1.7935,-1.9133,0.0,0.0,0.0,0.0,0.0,0.0,0.0,0.0,0.0,0.0,0.0,0.0,0.0,0.0,0.0,0.0,0.0,0.0,0.0,0.0,0.0,0.0,0.0,0.0,1.8745,1.8764,1.8905,1.9273,1.8799,1.8784,1.9131,1.8583,1.8137,1.7744,1.7034,0.0,0.0,0.0,0.0,1.6103,1.4386,0.0,0.0,0.0,0.0,0.0,1.0863,1.0238,0.0,0.8964,0.8441,0.7787,0.0,0.0,0.0,0.0,0.286,0.1454,0.109,0.0226,-0.0706,-0.1175,-0.2271,-0.3444,-0.4222,0.0,0.0,0.0,0.0,0.0,0.0,0.0,0.0,0.0,-1.2511,0.0,0.0,0.0,0.0,0.0,0.0,0.0,0.0,0.0,0.0,0.0,0.0,-1.8566,-1.8288,-1.8195,-1.8102,-1.79,-1.7621,-1.7426,-1.7326,-1.7326,-1.7326,-1.7326,-1.7326,-1.7326,-1.7326,-1.7326,-1.7326,0.0,0.0,0.0,-1.6588,-1.6588,-1.6298,-1.5858,-1.6159,-1.6446,-1.674,-1.7041,-1.7743,-1.8506,0.0,0.0,0.0,0.0,0.0,0.0,0.0,0.0,0.0,0.0,0.0,0.0,0.0,0.0,0.0,0.0,0.0,0.0,0.0,0.0,0.0,0.0,0.0,1.7854,1.9026,1.8564,1.8603,1.9272,1.8124,1.7903,1.8572,1.8037,1.734,1.6526,1.5866,1.5995,0.0,0.0,1.4869,1.4082,1.3714,0.0,0.0,0.0,0.0,0.0,0.0,0.0,0.0,0.8835,0.8376,0.7787,0.6531,0.0,0.0,0.0,0.0,0.0,0.1163,-0.0151,-0.1335,-0.1649,-0.2196,-0.2978,-0.3988,0.0,0.0,0.0,0.0,0.0,0.0,-0.938,0.0,0.0,0.0,0.0,0.0,0.0,0.0,0.0,0.0,0.0,0.0,0.0,0.0,0.0,0.0,-1.8288,-1.8087,-1.7815,-1.7721,-1.7721,-1.7434,-1.7326,-1.7326,-1.7326,-1.7326,-1.7326,-1.7326,-1.7326,-1.7326,-1.7239,-1.7239,-1.7239,0.0,0.0,-1.6494,-1.6494,-1.6211,-1.5865,-1.6206,-1.6486,-1.6747,-1.7088,-1.7368,-1.7582,0.0,0.0,0.0,0.0,0.0,0.0,0.0,0.0,0.0,0.0,0.0,0.0,0.0,0.0,0.0,0.0,0.0,0.0,0.0,0.0,0.0,0.0,1.7639,1.8461,1.8822,1.8483,1.827,1.8243,1.7979,1.7904,1.801,1.7475,1.6763,1.5881,1.4956,1.4597,1.465,1.3641,1.3233,1.3266,1.2899,0.0,0.0,0.0,0.0,0.0,0.0,0.0,0.0,0.8441,0.8052,0.7652,0.5672,0.0,0.0,0.0,0.0,0.0,0.1018,-0.0151,-0.1649,-0.3052,-0.3521,-0.3988,0.0,0.0,0.0,0.0,0.0,0.0,0.0,-0.9299,-1.0182,0.0,0.0,0.0,0.0,0.0,0.0,0.0,0.0,0.0,0.0,0.0,0.0,0.0,0.0,-1.8001,-1.7815,-1.7721,-1.7721,-1.7721,-1.7434,-1.7326,-1.7326,-1.7326,-1.7326,-1.7326,-1.7326,-1.7326,-1.7326,-1.716,-1.7073,-1.7066,0.0,-1.6494,-1.6218,-1.6218,-1.6123,-1.5885,-1.6426,-1.6667,-1.6774,-1.7315,-1.7542,-1.7582,0.0,0.0,0.0,0.0,0.0,0.0,0.0,0.0,0.0,0.0,0.0,0.0,0.0,0.0,0.0,0.0,0.0,0.0,0.0,0.0,0.0,1.6384,1.7959,1.8723,1.854,1.8091,1.7901,1.7951,1.7145,1.702,1.7433,1.6174,1.5371,1.4926,1.3903,1.3527,1.3622,1.3137,1.2891,1.2814,0.0,0.0,0.0,0.0,0.0,0.0,0.0,0.0,0.0,0.0,0.7852,0.7321,0.5408,0.0,0.0,0.0,0.0,0.0,0.1745,0.083,-0.047,-0.2734,-0.3207,-0.3522,0.0,0.0,0.0,0.0,0.0,0.0,0.0,0.0,-1.1535,-1.4282,0.0,0.0,0.0,0.0,0.0,0.0,0.0,0.0,0.0,0.0,0.0,0.0,0.0,0.0,-1.7527,-1.752,-1.752,-1.752,-1.7333,-1.7326,-1.7326,-1.7326,-1.7326,-1.7326,-1.7326,-1.7326,-1.7326,-1.7066,-1.6979,-1.6979,0.0,-1.6407,-1.6224,-1.6224,-1.6028,-1.5885,-1.6473,-1.6707,-1.6774,-1.7368,-1.7582,-1.7582,0.0,0.0,0.0,0.0,0.0,0.0,0.0,0.0,0.0,0.0,0.0,0.0,0.0,0.0,0.0,0.0,0.0,0.0,0.0,0.0,1.6693,1.6709,1.8249,1.8843,1.8235,1.775,1.7519,1.7537,1.6358,1.6075,1.6608,1.5032,1.425,1.4054,1.2946,1.2561,1.2715,1.2676,1.2406,1.2132,0.0,0.0,0.0,0.0,0.0,0.0,0.0,0.0,0.0,0.0,0.0,0.0,0.0,0.0,0.0,0.3724,0.3578,0.335,0.2564,0.1744,0.0626,-0.1796,0.0,0.0,0.0,0.0,0.0,0.0,0.0,0.0,0.0,0.0,0.0,-1.5846,0.0,0.0,0.0,0.0,0.0,0.0,0.0,0.0,0.0,0.0,0.0,0.0,0.0,0.0,-1.7333,-1.7326,-1.7326,-1.7326,-1.7326,-1.7326,-1.7326,-1.7326,-1.7326,-1.7326,-1.7326,-1.7239,-1.7239,-1.6972,-1.6885,-1.6791,-1.6494,-1.6305,-1.6123,-1.6123,-1.6028,-1.5885,-1.6473,-1.6787,-1.6967,-1.7415,-1.7582,-1.7582,0.0,0.0,0.0,0.0,0.0,0.0,0.0,0.0,0.0,0.0,0.0,0.0,0.0,0.0,0.0,0.0,0.0,0.0,0.0,0.0,1.6915,1.7572,1.8588,1.8749,1.8039,1.768,1.7151,1.643,1.5989,1.5608,1.5242,1.4608,1.4018,1.349,1.2239,1.1706,1.1683,1.1289,1.0931,1.0647,1.1422,0.0,0.0,0.0,0.0,0.0,0.0,0.0,0.0,0.0,0.0,0.0,0.0,0.0,0.4241,0.3806,0.327,0.2847,0.2916,0.1919,0.0548,-0.0625,-0.2343,0.0,-0.5789,-0.6261,0.0,-0.7253,0.0,0.0,0.0,-1.3212,0.0,0.0,0.0,0.0,0.0,0.0,0.0,0.0,0.0,0.0,0.0,0.0,0.0,0.0,0.0,0.0,-1.7326,-1.7326,-1.7326,-1.7326,-1.7326,-1.7326,-1.7326,-1.7326,-1.7326,-1.7326,-1.7326,-1.7246,-1.6979,-1.6777,-1.6494,-1.6224,-1.5927,-1.5825,-1.5832,-1.5832,-1.5832,-1.5885,-1.6473,-1.7041,-1.7522,-1.7569,-1.7582,-1.7582,0.0,0.0,0.0,0.0,0.0,0.0,0.0,0.0,0.0,0.0,0.0,0.0,0.0,0.0,0.0,0.0,0.0,0.0,0.0,0.0,1.6705,1.6889,1.821,1.8534,1.7713,1.7557,1.699,1.5987,1.5223,1.4994,1.521,1.3679,1.31,1.3273,1.2419,1.2133,1.2262,1.2094,1.2185,1.2431,1.2439,1.2503,0.0,0.0,0.0,0.0,0.0,0.0,0.0,0.0,0.6994,0.692,0.0,0.0,0.4448,0.4367,0.3987,0.3657,0.3984,0.2304,0.0312,-0.0469,-0.2656,0.0,0.0,-0.7107,-0.7561,-0.6872,-0.8256,0.0,0.0,0.0,0.0,0.0,0.0,0.0,0.0,0.0,0.0,0.0,0.0,0.0,0.0,0.0,0.0,0.0,0.0,0.0,-1.7326,-1.7326,-1.7326,-1.7326,-1.7326,-1.7326,-1.7326,-1.7326,-1.7326,-1.7326,-1.7326,-1.7153,-1.6979,-1.6683,-1.6494,-1.6224,-1.5927,-1.5832,-1.5832,-1.5832,-1.5832,-1.5885,-1.6473,-1.7061,-1.7582,-1.7582,-1.7582,-1.7582,0.0,0.0,0.0,0.0,0.0,0.0,0.0,0.0,0.0,0.0,0.0,0.0,0.0,0.0,0.0,0.0,0.0,0.0,0.0,1.5772,1.6608,1.6806,1.8092,1.8393,1.7516,1.744,1.6882,1.5792,1.4983,1.4709,1.5028,1.3263,1.2706,1.3155,1.2642,1.2534,1.2688,1.294,1.3046,1.3136,1.2915,1.2742,0.0,0.0,0.0,0.0,0.0,0.0,0.0,0.0,0.7055,0.0,0.0,0.0,0.0,0.0,0.4541,0.4218,0.4261,0.2471,0.0312,-0.086,0.0,0.0,-0.6116,-0.7342,-0.8111,-0.7324,-0.9279,0.0,0.0,0.0,0.0,0.0,0.0,0.0,0.0,0.0,0.0,0.0,0.0,0.0,0.0,0.0,0.0,0.0,0.0,0.0,0.0,-1.6662,-1.685,-1.685,-1.7138,-1.7326,-1.7326,-1.7326,-1.7239,-1.7239,-1.7239,-1.7059,-1.6878,-1.6683,-1.64,-1.6028,-1.5927,-1.5832,-1.5832,-1.5832,-1.5939,-1.6146,-1.6547,-1.7061,-1.7582,-1.7582,-1.7582,-1.7582,0.0,0.0,0.0,0.0,0.0,0.0,0.0,0.0,0.0,0.0,0.0,0.0,0.0,0.0,0.0,0.0,0.0,0.0,0.0,1.6009,1.6793,1.7652,1.8394,1.8393,1.7516,1.7284,1.6741,1.5792,1.5334,1.488,1.4501,1.3447,1.3047,1.309,1.2842,1.2706,1.2729,1.3426,1.307,1.2051,1.2377,1.171,1.0548,0.0,0.0,0.0,0.0,0.0,0.0,0.0,0.7507,0.0,0.0,0.0,0.0,0.0,0.4727,0.4378,0.3567,0.2347,0.0704,0.0,0.0,0.0,-0.6038,-0.688,-0.7842,-0.889,0.0,-1.2391,-1.2656,0.0,0.0,0.0,0.0,0.0,0.0,0.0,0.0,0.0,0.0,0.0,0.0,0.0,0.0,0.0,0.0,0.0,0.0,-1.5222,-1.5798,-1.5798,-1.6756,-1.7326,-1.7326,-1.7326,-1.7246,-1.6979,-1.6979,-1.6878,-1.6588,-1.6588,-1.6298,-1.5832,-1.5832,-1.5832,-1.5832,-1.5832,-1.6172,-1.67,-1.6707,-1.7061,-1.7575,-1.7582,-1.7582,-1.7582,0.0,0.0,0.0,0.0,0.0,0.0,0.0,0.0,0.0,0.0,0.0,0.0,0.0,0.0,0.0,0.0,0.0,0.0,1.4258,1.5616,1.6469,1.6566,1.7867,1.8182,1.7314,1.668,1.6225,1.5957,1.4687,1.4329,1.4777,1.3716,1.3299,1.3455,1.4068,1.4134,1.3839,1.4023,1.3832,1.3476,1.2777,1.2266,1.1772,0.0,0.0,0.0,0.0,0.0,0.0,0.0,0.0,0.0,0.0,0.0,0.0,0.6168,0.5757,0.4991,0.2871,0.1169,0.0,-0.2821,0.0,0.0,0.0,-0.6479,0.0,0.0,-1.092,-1.1712,-1.2571,0.0,0.0,0.0,0.0,0.0,0.0,0.0,0.0,0.0,0.0,0.0,0.0,0.0,0.0,0.0,0.0,0.0,0.0,-1.4555,-1.5032,-1.5798,-1.6082,-1.656,-1.7326,-1.7326,-1.7239,-1.7239,-1.7066,-1.6791,-1.6312,-1.6312,-1.6123,-1.5832,-1.5832,-1.5832,-1.5832,-1.5832,-1.6052,-1.642,-1.6627,-1.6839,-1.6996,-1.7403,-1.7483,-1.7279,0.0,0.0,0.0,0.0,0.0,0.0,0.0,0.0,0.0,0.0,1.1166,1.1642,0.0,0.0,0.0,0.0,0.0,0.0,1.3821,1.5061,1.5922,1.6108,1.7286,1.7685,1.7134,1.6367,1.6032,1.6175,1.4778,1.4365,1.4869,1.4006,1.3718,1.3935,1.4646,1.4714,1.4264,1.4209,1.3941,1.3502,1.307,1.2451,1.1779,0.0,0.0,0.0,0.0,0.0,0.0,0.0,0.0,0.0,0.0,0.0,0.0,0.6099,0.537,0.4208,0.1868,0.0234,0.0,-0.329,-0.4543,-0.5329,-0.5535,0.0,0.0,0.0,0.0,-1.1494,-1.2498,-1.3222,0.0,0.0,0.0,0.0,0.0,0.0,0.0,0.0,0.0,0.0,0.0,0.0,0.0,0.0,0.0,0.0,0.0,-1.3403,-1.3878,-1.4351,-1.493,-1.5412,-1.5981,-1.6466,-1.6567,-1.6473,-1.6683,-1.6595,-1.6028,-1.6123,-1.6028,-1.5832,-1.5832,-1.5832,-1.5832,-1.5832,-1.6005,-1.6299,-1.6593,-1.6685,-1.6782,-1.7272,-1.7384,-1.7173,0.0,0.0,0.8199,0.9275,0.0,0.0,0.0,0.0,0.0,0.0,1.2382,1.2421,0.0,0.0,0.0,1.3563,1.3716,1.3763,1.3773,1.4641,1.5419,1.6022,1.6753,1.7077,1.7007,1.6379,1.6148,1.6392,1.5254,1.4823,1.4983,1.4433,1.4194,1.4326,1.4769,1.4659,1.413,1.413,1.3563,1.2634,1.3199,1.2466,1.1052,1.1553,0.0,0.0,0.0,0.0,0.0,0.0,0.0,0.0,0.0,0.0,0.7056,0.5635,0.4356,0.288,0.086,0.0,0.0,-0.3443,-0.3995,0.0,-0.6134,-0.7252,-0.8482,-1.0257,0.0,-1.1585,-1.2443,0.0,0.0,0.0,0.0,0.0,0.0,0.0,0.0,0.0,0.0,0.0,0.0,0.0,0.0,0.0,0.0,0.0,0.0,-1.2058,-1.2436,-1.2339,-1.3494,-1.407,-1.3878,-1.5026,-1.5419,-1.4949,-1.5818,-1.6015,-1.554,-1.6028,-1.6028,-1.5832,-1.5832,-1.5832,-1.5832,-1.5832,-1.5985,-1.6266,-1.658,-1.6671,-1.6639,-1.7062,-1.7179,-1.7067,0.0,0.0,0.8088,0.9172,0.0,0.0,0.0,0.0,0.0,0.0,0.0,0.0,0.0,0.0,0.0,1.3716,1.3773,1.3763,1.3668,1.5173,1.6009,1.5784,1.6769,1.7241,1.7004,1.6709,1.6488,1.6392,1.5355,1.5096,1.5588,1.5071,1.4613,1.4334,1.4754,1.4446,1.3631,1.3631,1.3502,1.326,1.3017,1.2704,1.2274,1.1461,1.1163,0.0,0.0,0.0,0.0,0.0,0.0,0.0,0.8284,0.818,0.7982,0.7207,0.6186,0.4655,0.156,-0.0156,0.0,0.0,-0.5154,-0.6058,-0.6535,-0.6934,-0.7473,-0.8603,-1.0128,-1.1322,-1.158,0.0,0.0,0.0,0.0,0.0,0.0,0.0,0.0,0.0,0.0,0.0,0.0,0.0,0.0,0.0,0.0,0.0,-1.1194,-1.1385,-1.177,-1.2242,-1.2533,-1.3011,-1.3584,-1.3866,-1.3968,0.0,-1.3884,-1.3794,-1.3698,-1.5248,-1.5832,-1.5832,-1.5832,-1.5832,-1.5832,-1.5832,-1.5865,-1.5979,-1.6216,-1.6251,-1.6158,-1.6657,-1.6636,-1.643,0.0,0.0,0.0,0.0,0.0,0.0,0.0,0.0,0.0,0.0,0.0,0.0,0.0,1.3064,0.0,0.0,1.3716,1.3668,1.3621,1.4481,1.5184,1.562,1.6781,1.7305,1.7101,1.6854,1.6619,1.6436,1.5712,1.5475,0.0,0.0,0.0,1.4308,1.4713,1.435,1.3511,1.3511,1.339,1.3199,1.3268,1.2773,1.205,1.1888,1.1518,1.1104,1.0922,0.0,0.0,0.0,0.0,0.0,0.0,0.0,0.7735,0.674,0.5906,0.4663,0.1405,0.0,0.0,-0.3597,0.0,-0.6512,-0.6664,-0.6817,-0.7032,-0.7613,-0.9247,-1.0799,0.0,0.0,0.0,0.0,0.0,0.0,0.0,0.0,0.0,0.0,0.0,0.0,0.0,0.0,0.0,0.0,0.0,-1.1194,-1.1194,-1.1194,-1.1292,-1.1375,-1.1473,-1.1663,-1.1853,-1.2431,-1.2721,-1.263,-1.2926,-1.3318,-1.3709,-1.4675,-1.535,-1.5825,-1.573,-1.5642,-1.5635,-1.5547,-1.5452,-1.5497,-1.5842,-1.5789,-1.5752,-1.6179,-1.6312,-1.6324,0.0,0.0,0.0,0.0,0.0,0.0,0.0,0.0,0.0,0.0,0.0,0.0,0.0,1.317,1.3362,0.0,0.0,0.0,1.3621,1.3742,1.44,1.5752,1.6879,1.7421,1.7301,1.6953,1.6738,1.6607,1.6149,0.0,0.0,0.0,0.0,1.4525,0.0,1.441,1.3631,1.3511,1.3321,1.3025,1.3649,1.3116,1.1977,1.2636,1.2239,1.1427,1.1404,1.0622,0.9757,1.0242,0.0,0.0,0.0,0.0,0.7322,0.5992,0.5217,0.4206,0.1563,0.0,-0.0782,-0.3377,-0.528,0.0,-0.6705,-0.6773,-0.6914,-0.7031,-0.8448,0.0,0.0,0.0,0.0,0.0,0.0,0.0,0.0,0.0,0.0,0.0,0.0,0.0,0.0,0.0,0.0,0.0,0.0,-1.1096,-1.1096,-1.1096,-1.0904,-1.0314,-1.0605,-1.0511,-0.992,-1.0984,-1.1375,-1.1292,-1.2063,-1.2931,-1.3806,-1.3908,-1.4675,-1.5825,-1.5635,-1.554,-1.5445,-1.5172,-1.5083,-1.5108,-1.5388,-1.5457,-1.5531,-1.5712,-1.599,-1.6217,0.0,0.0,0.0,0.0,0.0,0.0,0.0,0.0,0.0,0.0,1.2529,1.2715,1.3266,1.3266,1.3314,1.3621,1.361,1.3621,1.3621,0.0,0.0,1.6693,1.7458,1.7801,1.7714,1.7335,1.711,1.7115,0.0,0.0,0.0,0.0,0.0,1.5477,0.0,1.4597,1.407,1.3692,1.3571,1.3726,1.4241,1.4444,1.4363,1.3705,1.338,1.3114,1.188,1.1451,1.1449,1.0879,1.0171,0.0,0.0,0.0,0.7868,0.6938,0.5996,0.4905,0.0,0.0,-0.2348,0.0,-0.5825,-0.6709,0.0,0.0,-0.6861,0.0,0.0,0.0,0.0,0.0,0.0,0.0,0.0,0.0,0.0,0.0,0.0,0.0,0.0,0.0,0.0,0.0,0.0,0.0,-1.0998,-1.0806,-1.0806,-1.0806,-1.0609,-1.0117,-1.0314,-1.0216,-0.9628,-0.9821,-0.992,-0.9821,-1.0019,-1.0596,-1.1658,-1.2533,-1.3992,-1.5825,-1.5635,-1.554,-1.5445,-1.5172,-1.5083,-1.5108,-1.5187,-1.5258,-1.5524,-1.55,-1.5773,-1.5998,0.0,0.0,0.0,0.0,0.0,0.0,0.0,0.0,0.0,0.0,0.0,1.2987,1.3266,1.3372,1.3467,1.3573,1.3621,1.3515,1.3372,1.4812,1.5828,1.6065,1.7242,1.7868,1.7791,1.7418,1.7202,1.7199,0.0,0.0,0.0,1.6519,1.6299,0.0,0.0,0.0,0.0,0.0,1.3952,1.4417,1.4648,1.4719,1.4629,1.4547,1.3946,1.308,1.2699,1.2063,1.1376,1.101,1.0484,0.982,0.915,0.0,0.0,0.0,0.6542,0.0,0.2724,-0.0156,-0.2662,0.0,-0.5933,-0.6739,-0.6718,0.0,-0.6792,-0.6612,0.0,0.0,0.0,0.0,0.0,0.0,0.0,0.0,0.0,0.0,0.0,0.0,0.0,0.0,0.0,0.0,0.0,0.0,-1.09,-1.0708,-1.0605,-1.0609,-1.0413,-1.0019,-1.0117,-1.0019,-0.9628,-0.9628,-0.9628,-0.9628,-0.9628,-1.0109,-1.0974,-1.1463,-1.2727,-1.4771,-1.5166,-1.5166,-1.507,-1.4783,-1.4688,-1.4604,-1.4618,-1.4924,-1.5316,-1.524,-1.5535,-1.5891,0.0,0.0,0.0,0.0,0.0,0.0,0.0,0.0,0.0,0.0,0.0,1.3266,1.3314,0.0,0.0,0.0,1.3621,1.3467,1.3218,1.4664,1.5475,1.5386,1.6938,1.7797,1.7791,1.7418,1.7278,0.0,0.0,0.0,1.6621,1.7237,1.6874,0.0,1.5186,1.4883,0.0,0.0,0.0,1.4934,1.507,1.5056,1.4887,0.0,1.4236,1.3211,1.3165,1.2439,1.1409,1.1409,1.0726,0.982,0.9226,0.9236,0.0,0.0,0.0,0.0,0.0,0.0,-0.1881,-0.4288,-0.5542,-0.6331,0.0,0.0,-0.6346,0.0,0.0,0.0,0.0,0.0,0.0,0.0,0.0,0.0,0.0,0.0,0.0,0.0,0.0,0.0,0.0,0.0,0.0,0.0,-1.0708,-1.0605,-1.0314,-1.0314,-1.0216,-0.992,-0.992,-0.9821,-0.9628,-0.9628,-0.9628,-0.9628,-0.9529,-0.9817,-1.0395,-1.0587,-1.1463,-1.2926,-1.41,-1.4496,-1.4298,-1.4298,-1.4298,-1.4298,-1.4298,-1.463,-1.5107,-1.5107,-1.5439,-1.5891,0.0,0.0,0.0,0.0,0.0,0.0,0.0,0.0,0.0,0.0,0.0,1.3372,1.3716,1.3668,1.3621,1.3621,1.3621,1.3467,1.3218,1.4343,1.5163,1.5386,1.6714,0.0,1.7791,1.7418,0.0,0.0,0.0,0.0,1.726,1.7817,1.7191,1.5672,1.5362,1.5167,1.5137,0.0,0.0,1.4979,1.5534,1.5914,1.6053,0.0,0.0,0.0,0.0,1.2298,1.2224,1.2224,1.1174,0.9895,0.982,0.9074,0.7944,0.0,0.0,0.0,0.0,0.1634,0.0,-0.3121,-0.4511,0.0,0.0,0.0,0.0,0.0,0.0,0.0,0.0,0.0,0.0,0.0,0.0,0.0,0.0,0.0,0.0,0.0,0.0,0.0,0.0,0.0,0.0,0.0,-1.0609,-1.0314,-1.0019,-1.0019,-0.9924,-0.9628,-0.9821,-0.9821,-0.9628,-0.9628,-0.9628,-0.9628,-0.9331,-0.9236,-0.9331,-1.01,-1.0391,-1.0293,-1.2339,-1.3221,-1.3216,-1.4004,-1.4298,-1.4298,-1.4298,-1.463,-1.5107,-1.5107,-1.5439,-1.5891,0.0,0.0,0.0,0.0,0.0,0.0,0.0,0.0,0.0,0.0,0.0,0.0,0.0,1.4593,1.4547,1.4444,1.4351,1.4247,1.4071,1.5141,1.5852,1.584,1.7034,1.7883,1.8248,1.8239,0.0,0.0,0.0,1.8573,1.7294,1.7863,1.739,1.6144,1.5468,1.5498,1.589,1.5142,0.0,1.6465,1.6108,1.6043,1.6225,0.0,0.0,0.0,0.0,0.0,0.0,0.0,0.0,0.0,0.0,0.0,0.0,0.0,0.0,0.0,0.0,0.0,0.0,-0.2306,-0.334,-0.381,0.0,-0.5557,0.0,0.0,0.0,0.0,0.0,0.0,0.0,0.0,0.0,0.0,0.0,0.0,0.0,0.0,0.0,0.0,0.0,0.0,0.0,0.0,0.0,-1.0216,-0.9727,-0.9723,-0.9727,-0.9628,-0.9727,-0.9727,-0.9628,-0.9628,-0.9628,-0.9628,-0.9335,-0.9133,-0.8928,-0.9023,-0.892,-0.8825,-1.0194,-1.1268,-1.195,-1.2926,-1.3318,-1.3318,-1.4004,-1.463,-1.5107,-1.5107,-1.5439,-1.5891,0.0,0.0,0.0,0.0,0.0,1.2793,0.0,0.0,0.0,0.0,0.0,0.0,0.0,0.0,1.496,1.4858,1.472,1.4617,1.4663,1.5543,1.6126,1.6262,1.7269,1.8071,1.8589,0.0,0.0,0.0,0.0,0.0,0.0,1.7932,1.739,1.6155,1.5918,1.6138,0.0,0.0,0.0,1.7353,1.6691,1.6515,1.6412,0.0,0.0,0.0,0.0,0.0,0.0,0.0,0.0,0.0,0.0,0.0,0.0,0.0,0.0,0.0,0.4737,0.0,0.0,0.0,0.0,-0.1352,-0.3186,0.0,0.0,0.0,0.0,0.0,0.0,0.0,0.0,0.0,0.0,0.0,0.0,0.0,0.0,0.0,0.0,0.0,0.0,0.0,0.0,0.0,0.0,0.0,-0.9628,-0.9628,-0.9628,-0.9628,-0.9628,-0.9529,-0.943,-0.943,-0.9426,-0.9327,-0.9031,-0.8832,-0.8627,-0.8432,-0.8137,-0.8038,-0.8726,-0.9706,-1.0783,-1.2145,-1.2727,-1.2829,-1.3902,-1.463,-1.5107,-1.5107,-1.5439,-1.5891,0.0,1.1728,1.1669,1.1377,1.2021,1.2908,0.0,0.0,0.0,0.0,0.0,0.0,0.0,0.0,0.0,1.4755,1.4628,1.4674,1.4982,1.541,1.5947,1.6632,1.7368,1.8107,1.8845,0.0,0.0,0.0,0.0,0.0,0.0,0.0,1.7279,1.577,1.6711,1.7165,1.7207,0.0,1.759,1.7458,0.0,1.7148,1.6691,0.0,0.0,0.0,1.384,1.3178,0.0,1.2966,0.0,0.0,0.0,0.0,0.0,0.0,0.0,0.0,0.0,0.0,0.0,0.0,0.0,0.0,-0.1324,0.0,-0.0893,0.0,0.0,0.0,0.0,0.0,0.0,0.0,0.0,0.0,0.0,0.0,0.0,0.0,0.0,0.0,0.0,0.0,0.0,0.0,-0.9217,-0.932,-0.9529,-0.9628,-0.9628,-0.9628,-0.9628,-0.943,-0.9236,-0.9236,-0.9031,-0.8825,-0.8531,-0.8432,-0.8432,-0.8137,-0.8038,-0.8038,-0.8038,-0.8627,-0.9706,-1.1755,-1.263,-1.2732,-1.3806,-1.463,-1.5107,-1.5107,-1.5439,-1.5891,1.2638,1.2628,1.254,1.2157,1.1999,1.2463,0.0,0.0,0.0,0.0,0.0,0.0,0.0,0.0,1.568,1.5623,1.5501,1.5468,1.5591,1.6552,1.7299,1.7661,1.8767,1.9631,0.0,0.0,0.0,0.0,0.0,0.0,0.0,0.0,0.0,0.0,1.7445,1.81,1.8685,1.7869,0.0,1.8471,1.7298,1.6673,0.0,0.0,0.0,0.0,0.0,1.3331,1.376,0.0,1.2365,1.1422,0.0,0.0,0.0,0.0,0.0,0.0,0.7608,0.0,0.0,0.0,0.0,0.0,0.365,0.1611,-0.0269,0.0,0.0,0.0,0.0,0.0,0.0,0.0,0.0,0.0,0.0,0.0,0.0,0.0,0.0,0.0,0.0,0.0,0.0,0.0,-0.8418,-0.8616,-0.8421,-0.9225,-0.9628,-0.9628,-0.943,-0.9232,-0.9236,-0.9031,-0.8825,-0.8825,-0.8531,-0.8432,-0.8432,-0.8137,-0.8038,-0.8038,-0.8038,-0.8137,-0.8528,-0.9899,-1.0877,-1.1755,-1.2732,-1.3929,-1.5107,-1.5107,-1.5439,-1.5891,1.2871,1.2812,1.2725,1.2304,1.2008,1.2384,0.0,0.0,0.0,0.0,0.0,0.0,0.0,0.0,0.0,1.6691,1.6628,1.6772,1.713,1.796,1.8579,1.8888,1.9783,2.0556,0.0,0.0,0.0,0.0,0.0,0.0,0.0,0.0,0.0,0.0,1.8333,1.9127,1.9596,0.0,0.0,0.0,1.7482,0.0,0.0,1.5409,1.5267,0.0,0.0,0.0,1.3977,1.368,1.2875,0.0,0.0,0.0,0.0,0.0,0.0,0.0,0.0,0.0,0.0,0.0,0.0,0.0,0.5641,0.3952,0.1883,0.0,0.0,0.0,0.0,0.0,0.0,0.0,0.0,0.0,0.0,0.0,0.0,0.0,0.0,0.0,0.0,-0.6399,-0.6329,-0.6734,-0.7027,-0.7425,-0.8021,-0.8623,-0.9126,-0.9628,-0.9335,-0.9133,-0.9031,-0.873,-0.8531,-0.8432,-0.8333,-0.8233,-0.8233,-0.8038,-0.8038,-0.8038,-0.8038,-0.8038,-0.8038,-0.8627,-0.9801,-1.1268,-1.2339,-1.3726,-1.5107,-1.5107,-1.5439,-1.5891,0.0,1.2764,1.2618,1.2246,1.2147,0.0,0.0,0.0,0.0,0.0,0.0,0.0,0.0,0.0,0.0,0.0,1.7804,1.82,1.8952,1.9394,0.0,0.0,0.0,0.0,0.0,0.0,0.0,0.0,0.0,0.0,0.0,0.0,0.0,0.0,1.9454,2.0138,2.0093,0.0,0.0,1.8911,1.7745,1.7001,0.0,0.0,1.5551,1.6132,1.5188,1.4545,1.4266,1.4513,1.3548,0.0,0.0,0.0,0.0,0.0,1.0213,0.0,0.0,0.0,0.0,0.0,0.5742,0.0,0.573,0.5665,0.458,0.1166,0.0,0.0,0.0,0.0,0.0,0.0,0.0,0.0,0.0,0.0,0.0,0.0,0.0,0.0,-0.4592,-0.4573,-0.4824,-0.5334,-0.5436,-0.6132,-0.7723,-0.7822,-0.8322,-0.9327,-0.9232,-0.9031,-0.8726,-0.8531,-0.8233,-0.8038,-0.8038,-0.8038,-0.8038,-0.8038,-0.8038,-0.8038,-0.8038,-0.8038,-0.8038,-0.7942,-0.9217,-1.1072,-1.195,-1.3325,-1.4796,-1.4796,-1.5231,-1.5678,1.3716,1.3621,1.3515,1.3324,0.0,0.0,0.0,0.0,0.0,0.0,0.0,0.0,0.0,0.0,0.0,0.0,0.0,1.8686,1.8543,0.0,0.0,0.0,0.0,0.0,0.0,0.0,0.0,0.0,0.0,0.0,0.0,0.0,0.0,0.0,2.0407,2.0792,2.106,0.0,0.0,1.87,1.7345,0.0,1.6342,1.5991,1.5859,1.5788,1.4974,1.4982,1.5333,1.4576,1.3889,1.3158,0.0,0.0,0.0,1.0288,0.0,0.0,0.0,0.0,0.0,0.0,0.0,0.0,0.6171,0.5275,0.4374,0.0,0.3124,0.0,0.0,0.0,0.0,0.0,0.0,0.0,0.0,0.0,0.0,0.0,0.0,0.0,-0.4002,-0.364,-0.3671,-0.4228,-0.4531,-0.5129,-0.6329,-0.7024,-0.7422,-0.7621,-0.823,-0.8531,-0.8432,-0.8237,-0.8038,-0.8038,-0.8038,-0.8038,-0.8038,-0.8038,-0.8038,-0.8038,-0.8038,-0.8038,-0.7939,-0.7743,-0.8528,-0.9899,-0.9899,-1.123,-1.3141,-1.2936,-1.354,-1.4493,1.4104,1.401,1.3868,1.3716,0.0,0.0,0.0,0.0,0.0,0.0,0.0,0.0,0.0,0.0,0.0,0.0,0.0,0.0,0.0,0.0,0.0,0.0,0.0,0.0,0.0,0.0,0.0,0.0,0.0,0.0,0.0,0.0,0.0,0.0,0.0,0.0,0.0,0.0,1.9639,1.8767,1.7482,0.0,1.6202,1.6,1.5867,1.5752,1.5555,1.5883,1.6085,1.4516,1.4314,0.0,1.2499,1.1891,1.1849,0.0,1.0626,0.9927,0.0,0.0,0.0,0.7228,0.0,0.0,0.0,0.5908,0.5547,0.5636,0.5549,0.5371,0.0,0.0,0.0,0.0,0.0,0.0,0.0,0.0,0.0,0.0,0.0,0.0,-0.3422,-0.32,-0.3264,-0.3527,-0.363,-0.4028,-0.5129,-0.5427,-0.6124,-0.712,-0.7428,-0.7832,-0.8432,-0.8137,-0.8038,-0.8038,-0.8038,-0.8038,-0.8038,-0.8038,-0.8038,-0.8038,-0.8038,-0.7942,-0.7743,-0.7646,-0.7939,-0.8421,-0.8814,-1.0217,-1.1892,-1.2206,-1.2805,-1.3619,1.4129,1.3999,1.3868,1.3821,0.0,0.0,0.0,0.0,0.0,0.0,0.0,0.0,0.0,0.0,0.0,0.0,0.0,0.0,0.0,0.0,0.0,0.0,0.0,2.2422,0.0,0.0,0.0,0.0,0.0,0.0,0.0,0.0,0.0,0.0,0.0,0.0,0.0,0.0,0.0,1.8967,0.0,1.7185,1.6316,1.6183,1.6165,1.6269,1.6572,1.6854,1.6716,1.4766,1.4743,1.5337,1.3632,1.3213,0.0,0.0,0.0,0.0,0.0,0.0,0.0,0.0,0.0,0.6352,0.0,0.0,0.0,0.0,0.0,0.0,0.0,0.0,0.0,0.0,0.0,0.0,0.0,0.0,0.0,0.0,0.0,0.0,0.0,-0.2866,-0.3049,-0.3007,-0.2812,-0.3015,-0.3927,-0.3925,-0.4624,-0.642,-0.6628,-0.7132,-0.8031,-0.8038,-0.8038,-0.8038,-0.8038,-0.8038,-0.8038,-0.8038,-0.8038,-0.8038,-0.7939,-0.7842,-0.7547,-0.7447,-0.7344,-0.7238,-0.812,-0.9307,-1.0642,-1.1272,-1.1847,-1.2304,1.361,1.3563,1.3515,1.3763,0.0,0.0,0.0,0.0,0.0,0.0,0.0,0.0,0.0,0.0,0.0,0.0,0.0,0.0,1.8089,0.0,0.0,0.0,0.0,0.0,2.3583,0.0,0.0,0.0,0.0,0.0,0.0,0.0,0.0,0.0,2.3173,0.0,0.0,0.0,2.0666,0.0,1.91,1.8262,0.0,1.7297,1.7597,1.7898,1.7814,1.7623,1.7164,0.0,1.5478,1.5584,0.0,1.2595,1.2528,1.1235,0.0,0.0,0.0,0.0,0.0,0.0,0.8456,0.0,0.0,0.0,0.6887,0.7058,0.0,0.0,0.0,0.0,0.0,0.0,0.0,0.0,0.0,0.0,0.0,0.0,0.0,0.0,0.0,-0.2263,-0.2698,-0.2456,-0.2265,-0.2184,-0.2221,-0.2924,-0.3423,-0.3624,-0.5432,-0.6534,-0.6637,-0.7537,-0.8038,-0.8038,-0.8038,-0.8038,-0.8038,-0.8038,-0.8038,-0.7939,-0.7743,-0.7646,-0.7547,-0.7045,-0.6845,-0.6845,-0.6942,-0.7709,-0.879,-0.8678,-0.919,-1.0123,1.3671,1.362,1.3691,1.4255,0.0,0.0,0.0,0.0,0.0,0.0,0.0,0.0,0.0,0.0,0.0,0.0,0.0,1.8048,0.0,0.0,0.0,0.0,0.0,0.0,0.0,0.0,0.0,0.0,2.3284,0.0,0.0,0.0,0.0,0.0,2.3271,0.0,2.2714,0.0,2.1506,0.0,0.0,0.0,0.0,1.8247,1.8109,1.8288,1.8221,1.802,1.7553,0.0,1.5763,0.0,0.0,0.0,0.0,1.1671,0.0,0.0,0.0,0.0,0.0,0.0,0.0,0.0,0.6432,0.0,0.6612,0.0,0.0,0.0,0.0,0.0,0.0,0.0,0.3221,0.0,0.0,0.0,0.0,0.0,0.0,0.0,0.0,0.0,0.0,0.0,-0.216,-0.1982,-0.2019,-0.2222,-0.2521,-0.3224,-0.4026,-0.5131,-0.6437,-0.6836,-0.7341,-0.7743,-0.7743,-0.7643,-0.7537,-0.7537,-0.7537,-0.7537,-0.7441,-0.7241,-0.7144,-0.6845,-0.6742,-0.6539,-0.6539,-0.6995,-0.7536,-0.7947,-0.8555,-0.914,1.3782,1.375,1.3915,0.0,0.0,0.0,0.0,0.0,0.0,0.0,0.0,0.0,1.879,1.8573,0.0,0.0,1.7698,1.7794,0.0,0.0,1.9935,0.0,0.0,0.0,0.0,0.0,0.0,0.0,0.0,0.0,0.0,0.0,0.0,0.0,0.0,2.2957,2.2763,0.0,2.2232,2.1674,2.141,2.105,2.0609,1.9419,1.8854,1.8843,1.8843,1.8496,1.7781,1.6198,1.5876,0.0,1.4237,0.0,0.0,0.0,0.0,0.0,1.0982,0.0,0.0,0.0,0.0,0.0,0.0,0.0,0.0,0.0,0.0,0.0,0.0,0.0,0.0,0.0,0.0,0.3224,0.0,0.0,0.0,0.0,0.0,0.0,0.0,0.0,0.0,-0.1746,-0.185,-0.1872,-0.1917,-0.1718,-0.1919,-0.2723,-0.3022,-0.3925,-0.5532,-0.5832,-0.6334,-0.7141,-0.7141,-0.7141,-0.7238,-0.7238,-0.7238,-0.7238,-0.7138,-0.6942,-0.6845,-0.6742,-0.6539,-0.6437,-0.6437,-0.6586,-0.6907,-0.7533,-0.7914,-0.826,1.3829,1.3902,0.0,0.0,0.0,0.0,0.0,0.0,0.0,0.0,0.0,0.0,0.0,0.0,0.0,0.0,0.0,1.6198,1.7026,0.0,1.8065,0.0,0.0,2.2504,0.0,0.0,0.0,0.0,0.0,0.0,0.0,0.0,0.0,0.0,0.0,2.2836,2.2457,2.2841,2.2803,2.2462,2.2151,2.1669,2.1092,0.0,2.0585,1.9875,1.9875,0.0,0.0,1.6198,1.5876,0.0,0.0,0.0,0.0,0.0,0.0,0.0,0.0,0.0,0.0,0.8982,0.0,0.0,0.0,0.0,0.652,0.0,0.0,0.0,0.0,0.0,0.0,0.0,0.0,0.0,0.0,0.0,0.0,0.0,0.0,0.0,0.0,0.0,0.0,-0.019,-0.105,-0.1553,-0.1613,-0.1617,-0.1617,-0.1617,-0.2622,-0.3224,-0.3324,-0.4325,-0.5225,-0.6029,-0.6029,-0.6431,-0.7238,-0.7238,-0.7238,-0.7138,-0.6942,-0.6845,-0.6745,-0.6539,-0.6437,-0.6437,-0.6437,-0.6586,-0.6801,-0.6801,-0.7058,-0.7265,1.4424,1.435,0.0,0.0,1.5325,0.0,0.0,1.6842,0.0,0.0,1.7429,0.0,0.0,1.776,1.7643,0.0,0.0,1.7812,1.8438,1.9094,0.0,0.0,0.0,2.3033,0.0,0.0,0.0,0.0,0.0,0.0,0.0,0.0,0.0,0.0,0.0,2.3704,0.0,0.0,0.0,0.0,0.0,2.2219,2.104,0.0,0.0,1.9904,1.9904,1.9045,0.0,1.696,1.6378,1.5891,1.4908,1.3984,1.3137,1.279,1.2528,0.0,0.0,0.0,1.1763,1.0448,0.0,0.0,0.0,0.0,0.0,0.0,0.0,0.0,0.0,0.0,0.0,0.0,0.0,0.0,0.0,0.0,0.0,0.0,0.0,0.0,0.0,0.0,0.0,-0.0095,-0.0954,-0.1553,-0.1613,-0.1617,-0.1617,-0.1617,-0.1919,-0.2521,-0.3224,-0.3827,-0.4632,-0.5639,-0.6348,-0.6653,-0.6656,-0.6642,-0.6637,-0.6637,-0.6537,-0.6539,-0.6539,-0.6437,-0.6437,-0.6445,-0.6526,-0.6657,-0.6801,-0.6801,-0.695,-0.7154,1.4883,1.4834,1.4902,0.0,0.0,0.0,0.0,0.0,0.0,0.0,1.7026,0.0,1.8094,0.0,1.7936,0.0,1.8501,1.8628,1.9382,1.988,0.0,2.0051,2.1663,2.2461,0.0,0.0,0.0,0.0,0.0,2.4073,0.0,0.0,0.0,0.0,0.0,2.406,2.4235,2.4449,2.4667,0.0,0.0,2.2542,0.0,0.0,2.0867,1.9599,0.0,1.9045,1.787,1.7212,1.6542,1.5801,1.5159,1.4068,1.3045,1.3137,1.296,1.2705,1.2784,1.2528,0.0,1.1219,0.9749,0.0,0.7316,0.0,0.0,0.0,0.0,0.0,0.0,0.0,0.0,0.0,0.0,0.0,0.0,0.43,0.0,0.0,0.0,0.0,0.0,0.0,0.0547,-0.0095,-0.0954,-0.1553,0.0,0.0,-0.1617,-0.1617,-0.1617,-0.1919,-0.2622,-0.2925,-0.353,-0.464,-0.4736,-0.5345,-0.6366,-0.6353,-0.6445,-0.6445,-0.6439,-0.6437,-0.6437,-0.6437,-0.6437,-0.6448,-0.657,-0.6695,-0.6806,-0.6853,-0.6989,-0.7154,1.5196,1.5283,1.541,0.0,1.6222,0.0,0.0,0.0,1.6678,0.0,1.7026,1.7302,1.8427,1.7666,1.781,1.9628,1.871,1.8576,1.9802,1.9473,0.0,0.0,2.054,2.0873,2.0751,0.0,0.0,0.0,0.0,0.0,0.0,0.0,0.0,0.0,2.403,0.0,2.3845,2.4374,2.4578,2.4465,2.3464,2.2553,2.1807,2.1807,2.0634,1.9152,1.9756,1.9125,1.7951,1.7115,1.6363,1.5703,1.4977,1.4321,1.3822,1.3997,1.3828,1.3483,1.3652,1.296,1.1923,1.1305,0.0,0.0,0.0,0.0,0.6257,0.0,0.0,0.0,0.0,0.0,0.0,0.0,0.0,0.0,0.0,0.0,0.0,0.0,0.0,0.0,0.3047,0.2597,0.1731,0.0095,-0.0954,-0.1553,0.0,0.0,-0.1617,-0.1617,-0.1617,-0.1617,-0.1617,-0.1617,-0.2121,-0.313,-0.1513,-0.2622,-0.607,-0.6163,-0.6261,-0.6364,-0.6445,-0.6437,-0.6437,-0.6437,-0.6437,-0.6448,-0.6578,-0.6706,-0.6834,-0.695,-0.7062,-0.7154,1.571,1.6618,1.7154,0.0,1.6968,1.7381,0.0,0.0,0.0,0.0,1.616,1.6054,1.642,1.6784,1.7358,1.8432,1.8721,0.0,0.0,0.0,0.0,1.9075,1.9488,2.0232,2.1274,2.2051,2.28,2.3539,0.0,0.0,2.4243,0.0,0.0,0.0,0.0,0.0,2.4915,2.5059,2.5107,2.5049,2.4146,2.3095,0.0,0.0,2.0934,1.9756,2.0382,1.9844,1.8674,1.8505,1.7764,1.678,1.5966,1.5394,1.4817,1.425,1.4159,1.423,1.4398,1.3633,1.2784,1.2784,1.1144,0.9506,0.0,0.0,0.0,0.0,0.0,0.0,0.0,0.0,0.0,0.0,0.0,0.0,0.0,0.0,0.0,0.4569,0.0,0.3494,0.421,0.2685,0.1548,0.1234,-0.0476,0.0,0.0,0.0,0.0,-0.1617,-0.1617,-0.1617,-0.1617,-0.1617,-0.1718,-0.202,-0.0807,-0.0705,-0.1713,-0.3324,-0.4843,-0.6372,-0.6369,-0.6361,-0.6356,-0.6356,-0.6448,-0.6458,-0.6671,-0.688,-0.7067,-0.71,-0.713,-0.7154,1.6114,1.7144,1.7884,1.7726,0.0,0.0,1.803,1.7767,0.0,1.6759,1.6233,0.0,1.6192,1.6321,1.6862,1.7901,1.8375,0.0,1.9396,0.0,0.0,1.9142,1.9341,1.9787,2.0502,2.1595,0.0,2.3198,0.0,0.0,2.4833,0.0,0.0,0.0,0.0,2.5314,2.5052,2.5028,2.4933,2.4719,2.3913,2.3106,0.0,2.1949,2.1328,2.0769,2.1175,2.0469,1.9371,1.9073,1.8407,1.7504,1.646,1.5718,1.5061,1.4328,1.4166,1.4321,1.465,1.3808,1.296,1.3307,1.1666,0.9859,0.9859,0.9419,0.8711,0.0,0.0,0.0,0.0,0.0,0.0,0.0,0.0,0.0,0.0,0.0,0.0,0.0,0.4121,0.4032,0.4926,0.316,0.2025,0.1992,0.048,0.0,0.0,0.0,0.0,-0.1617,-0.1415,-0.1212,-0.1212,-0.1516,-0.1617,-0.1617,-0.0505,0.0,-0.0,-0.1209,-0.2418,-0.3632,-0.4643,-0.5046,-0.5044,-0.606,-0.6364,-0.6377,-0.5765,-0.6077,-0.6707,-0.6371,-0.6596,-0.7154,1.6268,1.7269,0.0,0.0,0.0,0.0,0.0,1.7901,0.0,1.7434,0.0,1.6515,1.6862,1.6376,1.6585,1.7901,0.0,1.8576,1.9736,1.9341,1.9208,1.9473,1.9536,1.9557,1.9526,2.1361,2.2463,0.0,0.0,0.0,0.0,0.0,0.0,0.0,0.0,0.0,0.0,2.4874,2.4707,2.4337,2.3497,2.3139,2.3065,2.2101,2.1807,2.1807,2.1807,2.1011,1.9904,1.9301,1.8727,1.7971,1.6535,1.5711,1.5047,1.4328,1.4088,1.425,1.4573,1.3802,1.296,1.3307,1.1843,1.0207,1.012,0.9506,0.8803,0.8097,0.8006,0.7834,0.0,0.0,0.0,0.0,0.0,0.0,0.0,0.0,0.0,0.0,0.0,0.0,0.5374,0.3919,0.279,0.2561,0.0,0.0,0.0,0.0,0.0,-0.1516,-0.101,0.0,-0.0707,0.0,-0.1415,-0.1415,-0.0404,0.0,0.0,0.0,0.0,-0.0101,-0.2015,-0.2821,-0.2922,-0.505,-0.5984,-0.5821,-0.4414,-0.4557,-0.5588,-0.492,-0.5477,-0.6705,1.6138,1.7453,0.0,0.0,0.0,1.8073,1.7387,1.7474,1.7512,1.7394,1.7019,1.6821,1.6862,1.7345,1.7687,1.7969,1.8586,0.0,0.0,0.0,0.0,1.8942,1.9175,1.976,2.0797,2.2019,2.3072,0.0,0.0,0.0,0.0,0.0,0.0,0.0,0.0,0.0,2.5241,2.5535,0.0,2.5943,2.4492,2.3902,2.3756,2.2317,2.1807,2.1807,2.1807,2.1328,2.0624,1.9991,1.9441,1.8727,1.6698,1.6139,1.5891,1.4496,1.4243,1.4405,1.465,1.4314,1.3802,1.3476,1.2705,1.1763,1.117,1.1257,1.0901,0.9323,0.9226,0.9052,0.7401,0.0,0.0,0.0,0.0,0.0,0.0,0.0,0.0,0.0,0.0,0.4295,0.0,0.4312,0.3564,0.0,0.0,0.0,0.0,0.0,0.0,0.0,-0.0606,0.0,0.0,0.0,-0.0303,-0.0303,-0.0101,0.0,0.0,0.0,0.0,-0.0,-0.0404,-0.0605,-0.0705,-0.2925,-0.3799,-0.3793,-0.3817,-0.3145,-0.2122,-0.2794,-0.3242,-0.3799,1.651,0.0,0.0,0.0,0.0,0.0,0.0,1.7055,1.7339,1.7666,1.7622,1.7614,1.7815,1.8356,1.8693,1.8693,1.9342,1.9768,1.9768,1.9768,1.971,1.9512,1.9856,2.0508,2.1439,2.2268,2.3496,2.5231,0.0,0.0,0.0,0.0,0.0,0.0,0.0,2.5441,0.0,0.0,0.0,2.5734,2.4552,2.4108,2.3891,2.2381,2.1807,2.1807,2.1807,2.1645,2.1252,2.0216,1.9835,1.945,1.7432,1.6632,1.6229,1.5068,1.4489,1.4321,1.4657,1.4314,1.3815,1.3476,1.2881,1.2198,1.1435,1.1435,1.117,0.9497,0.9405,0.9061,0.7584,0.7323,0.0,0.0,0.0,0.0,0.0,0.0,0.5891,0.0,0.0,0.0,0.0,0.0,0.0,0.0,0.0,0.0,0.0,0.0,0.0,0.0,0.0,0.0,0.0,0.0,0.0,0.0,0.0,0.0,0.0,0.0,0.0303,0.0808,0.0808,0.0707,0.0303,-0.102,-0.1766,-0.2126,-0.161,-0.1423,-0.1566,-0.1454,-0.179,-0.2573,0.0,1.6742,0.0,0.0,1.6515,1.6751,1.6474,1.6768,1.7305,1.8046,1.8216,1.8456,1.8962,1.933,1.9538,1.9538,2.0053,2.042,2.042,2.0359,2.0288,2.0165,2.0534,2.1137,2.1959,2.2408,2.3738,0.0,0.0,0.0,0.0,0.0,0.0,0.0,0.0,0.0,0.0,0.0,2.5758,2.5453,2.448,2.4108,2.3891,2.2381,2.1807,2.1807,2.1807,2.1807,2.1645,2.0294,1.9991,1.9835,1.7997,1.687,1.6221,1.556,1.4817,1.4243,1.4573,1.4321,1.3906,1.3646,1.3215,1.2619,1.1774,1.1602,1.116,0.9497,0.8973,0.854,0.768,0.7238,0.0,0.0,0.0,0.0,0.0,0.0,0.0,0.0,0.0,0.0,0.6079,0.0,0.0,0.0,0.0,0.0,0.0,0.0,0.0,0.0,0.0,0.0,0.0,0.0,0.0,0.0,0.0,0.0,0.0,0.0,0.0606,0.1617,0.1617,0.1313,0.0809,0.0515,-0.0105,-0.0639,0.0651,0.0221,-0.0896,-0.0224,-0.0448,-0.1232,0.0,0.0,0.0,0.0,0.0,0.0,1.5844,1.6802,1.7701,1.8533,1.8586,1.8971,2.0145,2.0247,2.0278,2.0278,2.0349,2.042,2.042,2.0216,2.0145,2.0073,2.0186,2.0978,2.249,2.2827,2.3669,0.0,0.0,2.5991,0.0,0.0,0.0,0.0,0.0,0.0,0.0,2.584,2.6119,2.6233,2.4696,2.4108,2.3891,2.2381,2.1807,2.1807,2.1807,2.1807,2.1645,2.0294,1.9904,1.9659,1.7908,1.6788,1.6057,1.556,1.4894,1.4398,1.465,1.4824,1.4831,1.4398,1.4223,1.3886,1.2619,1.2619,1.218,0.9666,0.8185,0.7316,0.7503,0.768,0.7676,0.0,0.0,0.0,0.0,0.0,0.7531,0.9745,0.0,0.0,0.0,0.6525,0.0,0.0,0.6063,0.0,0.0,0.0,0.0,-0.0101,0.0,0.0,0.0,0.0,0.0,0.0,0.0,0.0,0.0,0.0,0.0606,0.1617,0.1617,0.1313,0.081,0.134,0.126,0.0748,0.1412,0.1658,0.1458,0.157,0.157,0.1458,0.0,0.0,0.0,0.0,0.0,0.0,0.0,1.7009,1.776,1.8602,1.9115,1.9807,2.0689,2.1093,2.1248,2.1248,2.1248,2.1248,2.1248,2.1036,2.0961,2.0961,2.121,2.1902,2.301,2.3447,2.4682,0.0,0.0,0.0,0.0,0.0,0.0,0.0,0.0,2.6633,2.6258,2.6258,2.6314,2.6383,2.5288,2.4564,2.3975,2.2905,2.2252,2.1807,2.1807,2.1807,2.1645,2.0294,1.9904,1.9668,1.8505,1.761,1.6862,1.6944,1.6269,1.5517,1.5764,1.5747,1.5561,1.512,1.5026,1.4589,1.3169,1.2967,1.2586,1.0647,0.9486,0.8707,0.8544,0.8277,0.8105,0.0,0.0,0.0,0.0,0.0,0.0,1.0327,0.0,0.8106,0.0,0.0,0.0,0.0,0.0,0.0,0.0,0.0,0.0,0.0101,0.0,0.1311,0.0,0.0,0.0,0.0,0.0,0.0,0.0,0.0707,0.101,0.1111,0.1415,0.1516,0.1317,0.1565,0.159,0.139,0.1648,0.1784,0.1795,0.1795,0.1795,0.1795,1.5267,0.0,1.5158,0.0,1.6029,1.6615,1.7114,1.7441,1.796,1.9093,1.965,2.0183,2.0852,2.1449,2.1807,2.1807,2.1807,2.1807,2.1807,2.1578,2.1436,2.1436,2.1797,0.0,2.3213,2.3768,2.4986,2.6882,2.6429,0.0,0.0,0.0,0.0,0.0,2.7829,2.7377,2.6782,2.6589,2.6533,2.6452,2.5594,2.4791,2.4047,2.3276,2.2478,2.1807,2.1807,2.189,2.185,2.0566,2.0248,2.0174,1.9209,1.8357,1.7704,1.7878,1.7183,1.6369,1.6275,1.6104,1.5938,1.5754,1.5658,1.5294,1.3851,1.3619,1.3218,1.1684,1.0483,0.9669,0.9402,0.8783,0.8251,0.8446,0.0,0.0,0.0,1.037,0.0,1.0636,0.9588,0.8961,0.9317,0.8247,0.0,0.0,0.0,0.0,0.0,0.0,0.0,0.0,0.0,0.0,0.0,0.0605,0.0,0.0,0.0,0.0,0.0,0.1111,0.1415,0.101,0.1415,0.1622,0.1635,0.1686,0.1711,0.1722,0.1775,0.1795,0.1795,0.1795,0.1795,0.1795,1.6035,1.5964,1.575,1.6049,1.6581,1.7097,1.7545,1.7847,1.8688,2.0343,2.0138,2.006,2.045,2.1252,2.1807,2.1807,2.1807,2.1807,2.1807,2.1436,2.1205,0.0,0.0,2.2209,2.2957,2.3745,2.4158,2.4255,0.0,0.0,2.6061,0.0,2.8648,2.8427,2.7802,2.7484,2.7417,2.6782,2.6533,2.6452,2.5594,2.4791,2.4047,2.3276,2.2478,2.1807,2.1807,2.2097,2.2323,2.1172,2.113,2.1244,1.9788,1.8828,1.8213,1.7776,1.7288,1.6617,1.5924,1.5842,1.6027,1.6286,1.6367,1.6013,1.4488,1.4584,1.4308,1.2472,1.0546,0.9351,0.9811,0.8979,0.8236,0.8041,0.0,0.0,0.0,0.0,0.0,1.0744,0.8993,0.8178,0.9469,0.7602,0.0,0.0,0.0,0.0,0.0,0.0,0.0,0.6361,0.4334,0.0,0.6274,0.2116,0.0,0.0,0.0,0.0,0.0,0.1111,0.1617,0.1617,0.1617,0.1634,0.1664,0.1692,0.1722,0.1752,0.1783,0.1795,0.1795,0.1795,0.1795,0.1795,1.5327,1.5537,1.5937,1.696,1.7397,1.7926,1.861,1.8655,1.8858,1.9825,1.9913,2.0138,2.0615,2.1328,2.1807,0.0,2.1807,2.1807,0.0,2.1436,2.1205,2.1205,2.208,2.2734,2.3021,2.4276,2.5435,2.6444,0.0,0.0,0.0,2.9063,2.9296,2.9219,2.903,2.839,2.7484,2.7297,2.6905,2.6452,2.5594,2.4791,2.4047,2.3276,2.268,2.2273,2.2273,2.2573,2.2886,2.2362,2.2046,2.17,2.1352,2.0539,1.9592,1.9613,1.8969,1.8201,1.7943,1.7394,1.6934,1.7026,1.7026,1.665,1.5351,1.4458,1.3811,1.3173,1.2586,1.2124,1.1935,1.1655,1.1099,0.9992,1.0959,0.0,0.0,0.0,1.2076,1.2149,1.1606,1.1332,1.176,0.9849,0.0,0.0,0.0,0.0,0.0,0.0,0.0,0.0,0.5741,0.0,0.698,0.4541,0.2317,0.0503,0.0504,0.0505,0.0606,0.1313,0.1617,0.1618,0.1639,0.1653,0.1666,0.1715,0.1741,0.1752,0.1783,0.1795,0.1795,0.1795,0.1795,0.1795,1.5313,1.5751,1.6373,1.7576,1.817,1.8647,1.9222,1.8922,1.9002,2.0001,1.9982,2.0216,2.1155,2.1568,0.0,2.1807,2.1807,2.1807,2.1807,2.1436,2.1359,2.1655,2.2521,2.3106,2.339,2.485,0.0,2.6949,2.7375,2.8388,3.0007,3.0007,3.0007,2.9931,2.9685,2.9107,2.826,2.7736,2.7297,2.6837,2.6082,2.5195,2.4322,2.3839,2.3329,2.2749,2.2749,2.313,2.3667,2.332,2.3176,2.3036,2.2627,2.1931,2.1219,2.0694,1.9903,1.902,1.8749,1.7995,1.7326,1.7326,1.7326,1.7044,1.6285,1.51,1.4266,1.4383,1.3797,1.3333,1.3141,1.2856,1.2291,1.1065,1.1657,1.2045,1.1183,0.0,1.2462,0.0,0.0,0.0,0.0,1.0293,0.9209,0.0,0.0,0.0,0.0,0.0,0.0,0.6453,0.6442,0.0,0.7068,0.5754,0.393,0.1709,0.1311,0.1111,0.1111,0.1415,0.1617,0.1619,0.1649,0.1668,0.1682,0.173,0.1756,0.1768,0.1788,0.1795,0.1795,0.1795,0.1795,0.1795,1.5823,1.646,1.7025,0.0,1.8727,0.0,1.9301,1.9002,1.924,2.0634,2.0304,2.0527,2.1873,2.1959,2.1807,2.1807,0.0,0.0,0.0,2.1512,2.1655,2.2402,2.282,2.339,2.412,2.5499,2.6226,2.6307,2.7955,2.9386,3.0568,3.0568,3.0568,3.0568,2.9931,2.9623,2.9484,2.813,2.7564,2.7469,2.6764,2.5887,2.4923,2.486,2.4271,2.3317,2.3317,2.3832,2.4448,2.4106,2.4483,2.4935,2.3617,2.3183,2.2736,2.1221,2.0158,1.9438,1.8796,1.8064,1.7419,1.7419,1.7326,1.7333,1.7326,1.6365,1.5501,1.5792,1.4459,1.3318,1.3607,1.3022,1.2242,1.1463,1.1755,1.1863,1.1292,0.0,1.1873,0.0,0.0,0.0,0.0,0.9399,0.8517,0.0,0.0,0.0,0.0,0.0,0.6936,0.6437,0.6437,0.6539,0.6842,0.5851,0.4638,0.3217,0.2219,0.1718,0.1617,0.1617,0.1618,0.1622,0.1755,0.1786,0.171,0.1849,0.188,0.1795,0.1795,0.1795,0.1795,0.1795,0.1795,0.1795,0.0,0.0,1.7359,1.8736,1.9134,1.9301,1.9301,1.9222,1.946,2.0245,2.0547,2.0944,2.1578,2.1883,2.1959,2.1807,2.1807,2.1807,2.1807,2.2035,2.2241,2.2596,2.339,2.3963,2.4337,2.5569,2.6825,2.8152,2.8982,2.9787,3.0568,3.0568,3.0568,3.0568,3.0447,3.0068,2.9546,2.8634,2.8173,2.8001,2.6677,2.6287,2.6348,2.5768,2.5239,2.4724,2.4724,2.4873,2.503,2.5292,2.5284,2.5105,2.4402,2.3704,2.2921,2.198,2.1266,2.0628,2.061,1.9521,1.8427,1.8427,1.7878,1.7419,1.7777,1.6734,1.5697,1.5798,1.5051,1.4394,1.4688,1.4771,1.4184,1.263,1.2829,1.264,1.1389,1.1683,0.0,0.0,1.2462,1.2462,1.2462,1.0493,0.9312,0.0,0.0,0.0,0.0,0.7042,0.7039,0.6742,0.6742,0.6842,0.7138,0.6039,0.4732,0.3222,0.2922,0.2422,0.1617,0.1617,0.1629,0.1756,0.2627,0.2566,0.185,0.2764,0.2679,0.1795,0.1795,0.1795,0.1795,0.1795,0.1795,0.1795,1.6202,1.6904,1.7603,1.8437,1.927,1.9861,1.9861,1.9861,2.0177,2.1133,2.1372,2.1778,2.2507,2.2673,2.2673,2.2439,2.2352,2.2327,2.2327,2.2681,2.3106,2.361,2.3902,2.4337,2.4791,2.5721,2.7066,2.8798,2.9645,3.023,3.0568,3.0568,3.0568,3.0582,3.0872,3.0805,3.0449,2.9669,2.9242,2.9072,2.7607,2.7139,2.72,2.6753,2.6131,2.553,2.5705,2.5644,2.5633,2.6052,2.5863,2.5348,2.4669,2.3973,2.3105,2.2432,2.1633,2.1078,2.1427,2.0512,1.9422,1.9155,1.8527,1.8172,1.8619,1.7576,1.6546,1.6648,1.5724,1.4981,1.5267,1.5452,1.5057,1.3312,1.3318,1.3028,1.178,1.1785,0.0,1.2764,1.2764,1.2764,1.2764,1.1277,1.0096,0.9608,0.8329,0.0,0.7042,0.7241,0.7241,0.7042,0.6942,0.7141,0.7341,0.6437,0.5231,0.3924,0.3924,0.3624,0.3024,0.3152,0.3182,0.332,0.4045,0.4003,0.3388,0.3556,0.3246,0.2576,0.2019,0.1795,0.1795,0.1795,0.1795,0.1795,1.5612,1.6771,1.7755,1.8102,1.9478,2.0521,2.0521,2.0521,2.0931,2.2237,2.2319,2.2574,2.3577,2.3577,2.3426,2.3184,2.3305,2.3337,2.3036,2.3434,2.3963,2.4636,2.4409,2.4636,2.5312,2.6013,2.7144,2.8798,2.9998,3.063,3.0727,3.0814,3.0872,3.0887,3.1424,3.1671,3.1575,3.0699,3.0364,3.0308,2.8779,2.8089,2.792,2.792,2.716,2.6152,2.6505,2.6373,2.6052,2.6362,2.6257,2.5841,2.4829,2.4145,2.3541,2.2696,2.19,2.1356,2.1784,2.115,2.015,1.953,1.918,1.9096,1.9554,1.8419,1.739,1.7684,1.6298,1.5172,1.5445,1.5642,1.5248,1.3607,1.3414,1.313,1.2073,0.0,1.2175,1.2764,1.2764,1.2764,1.2764,1.1863,1.0779,0.9899,0.9118,0.8329,0.7434,0.7739,0.764,0.7338,0.7238,0.7341,0.7646,0.6939,0.6132,0.5024,0.5024,0.4933,0.4847,0.5029,0.5081,0.5116,0.5489,0.546,0.5259,0.4446,0.4026,0.3804,0.2688,0.2353,0.2353,0.213,0.2018,0.2018,1.7407,1.7715,1.8189,1.9827,2.0343,2.0521,2.0521,2.0521,2.0764,2.1598,2.2165,2.2564,2.2991,2.3496,2.3587,2.3265,2.4425,2.47,2.3405,2.409,2.4564,2.4707,2.4933,2.5229,2.5535,2.6427,2.7488,2.8798,2.9956,3.0812,3.138,3.1946,3.2222,3.2222,3.2324,3.2367,3.224,3.0893,3.0539,3.0845,2.9369,2.9063,2.9487,2.9487,2.8639,2.7476,2.7557,2.708,2.6445,2.6445,2.6704,2.6715,2.5253,2.4659,2.4317,2.3135,2.2618,2.253,2.2784,2.1882,2.0538,1.9279,1.9188,1.9646,2.0102,1.8696,1.739,1.7684,1.6298,1.5172,1.5445,1.5642,1.5153,1.3119,1.3216,1.3033,1.1487,0.0,1.2175,1.2764,1.2764,1.2764,1.2764,1.1863,1.117,1.0974,1.0194,0.941,0.8627,0.8821,0.8627,0.7939,0.7643,0.7547,0.7646,0.7739,0.7235,0.6134,0.6134,0.5778,0.5043,0.506,0.5151,0.5302,0.6413,0.626,0.5454,0.6251,0.6033,0.5139,0.4916,0.4804,0.4693,0.3692,0.3357,0.3135,1.8306,1.8806,1.9381,2.0272,2.0815,2.1172,2.1172,2.1519,2.2026,2.2699,2.3365,2.3877,2.4137,2.4386,2.4397,2.3919,2.5187,2.5565,2.4735,2.5622,2.6239,2.6239,2.6178,2.619,2.6263,2.7733,2.8737,2.9275,3.0825,3.1742,3.2063,3.2382,3.2513,3.2527,3.2875,3.3035,3.2985,3.1765,3.1422,3.1537,2.9958,2.9553,2.9792,2.9792,2.8961,2.781,2.8075,2.7418,2.6528,2.6787,2.6798,2.6445,2.5094,2.4573,2.4145,2.296,2.2794,2.2872,2.2422,2.1704,2.0817,1.9828,1.9646,1.9737,2.0201,1.9255,1.8411,1.8603,1.7311,1.6103,1.6386,1.6211,1.5635,1.437,1.4472,0.0,0.0,1.2845,1.2948,1.2861,1.2764,1.2764,1.2764,1.236,1.1863,1.1268,1.1082,1.069,0.9706,1.0096,1.0096,0.9706,0.8531,0.7842,0.7842,0.7942,0.7739,0.7238,0.7415,0.7175,0.6824,0.6956,0.7079,0.7191,0.781,0.7764,0.726,0.7152,0.6816,0.6255,0.5586,0.5361,0.525,0.4026,0.358,0.3469,1.9117,1.9791,2.0348,2.0619,2.1186,2.1741,2.1909,2.2451,2.3135,2.3973,2.4594,2.4946,2.52,2.52,2.5031,2.454,2.5502,2.6176,2.6037,2.7014,2.7478,2.7384,2.7073,2.6935,2.6935,2.8563,2.9526,2.9691,3.1555,3.2548,3.2745,3.289,3.2962,3.2977,3.347,3.3607,3.3355,3.2469,3.2001,3.1709,3.0368,2.9792,2.9792,2.9869,2.904,2.7983,2.8407,2.7765,2.6704,2.7056,2.688,2.6268,2.5094,2.4573,2.4221,2.295,2.2784,2.2872,2.1695,2.1248,2.0997,2.0102,1.9828,1.9828,2.0201,1.972,1.9247,1.9438,1.8141,1.6936,1.7232,1.6683,1.6028,1.5337,0.0,0.0,0.0,1.3806,1.3619,1.2861,1.2764,1.2764,1.2764,1.2764,1.2462,1.1668,1.2068,1.1873,1.0788,1.1272,1.1365,1.0877,0.9217,0.8237,0.8038,0.8075,0.8092,0.8096,0.8248,0.834,0.8381,0.8608,0.873,0.8771,0.8886,0.894,0.8826,0.7931,0.7598,0.7487,0.6589,0.6253,0.6031,0.4583,0.4026,0.3804,2.0288,2.0404,2.0529,2.1463,2.1642,2.1909,2.2618,2.2803,2.3319,2.4594,2.4861,2.4946,2.52,2.52,2.5031,2.454,2.5316,2.6179,2.693,2.7475,2.7518,2.6971,2.6935,2.6935,2.6935,2.8087,2.903,2.9691,3.152,3.2753,3.3412,3.3993,3.4269,3.4269,3.4327,3.3891,3.3157,3.242,3.1709,3.0895,3.0139,2.9792,2.9792,3.0011,2.9378,2.8498,2.8724,2.8099,2.7149,2.7149,2.729,2.7103,2.5611,2.5263,2.5062,2.3474,2.3057,2.2687,2.0773,2.0988,2.1195,1.9371,1.9554,2.0292,2.0292,1.972,1.9247,1.9438,1.8141,1.6936,1.7232,1.6683,1.5927,1.4949,0.0,0.0,1.3409,1.3613,1.3619,1.2861,1.2764,1.2764,1.2764,1.2764,1.2764,1.2662,1.3147,1.2953,1.1975,1.2349,1.1755,0.9801,0.9608,0.9019,0.8038,0.818,0.8252,0.8255,0.8397,0.854,0.8679,0.8699,0.8788,0.8923,0.9265,0.9158,0.894,0.9158,0.9047,0.8716,0.8716,0.8602,0.8377,0.6142,0.525,0.4916,2.1257,2.1266,2.1275,2.1642,2.1454,2.1356,2.1624,2.2413,2.3202,2.3714,2.4765,2.5464,2.52,2.52,2.5031,2.454,2.5263,2.5913,2.6091,2.7151,2.7806,2.7921,2.7909,2.7765,2.753,2.9407,3.0392,3.038,3.2577,3.3772,3.4051,3.4298,3.4414,3.4414,3.4414,3.3962,3.3143,3.2434,3.1636,3.082,3.0075,2.9792,2.9792,3.0011,2.9443,2.851,2.8724,2.8167,2.7371,2.7371,2.7615,2.7592,2.5757,2.5411,2.5316,2.3647,2.3232,2.3047,2.1676,2.1526,2.1284,1.9737,1.9828,2.0382,2.0473,2.0456,2.0348,2.0645,1.9255,1.8141,1.8419,1.7412,1.64,1.6204,0.0,1.5622,1.4472,1.4094,1.3619,1.2861,1.2764,1.2764,1.2764,1.2764,1.2861,1.2953,1.3346,1.3443,1.3152,1.3522,1.2732,1.0681,1.0708,0.9879,0.8184,0.8241,0.8316,0.8404,0.8554,0.8655,0.8713,0.8808,0.8882,0.894,0.9268,0.9379,0.9268,0.9489,0.9489,0.9158,0.9158,0.9047,0.8602,0.6253,0.5361,0.5027,2.1998,2.182,2.1741,2.1741,2.1454,2.1266,2.1535,2.2501,2.329,2.3531,2.4754,2.5549,2.5115,2.5115,2.4946,2.454,2.502,2.5505,2.5852,2.7313,2.8235,2.851,2.851,2.8351,2.8122,3.0094,3.1094,3.1022,3.3055,3.4171,3.4414,3.4414,3.4414,3.4414,3.4414,3.3962,3.3143,3.2434,3.1636,3.082,3.0075,2.9869,2.9934,3.0152,2.9521,2.8657,2.8791,2.8235,2.7441,2.7522,2.7765,2.7846,2.6235,2.5568,2.5073,2.3647,2.3319,2.3319,2.258,2.2059,2.1544,2.0275,2.0102,2.0382,2.0654,2.0826,2.0997,2.0925,1.9812,1.8788,1.8696,1.7598,1.6683,1.6979,1.677,1.6285,1.5527,1.4765,1.4004,1.3238,1.2953,1.2861,1.2861,1.2861,1.2958,1.3244,1.3443,1.3732,1.4022,1.4292,1.3442,1.1368,1.1472,1.0604,0.8616,0.8512,0.8459,0.8557,0.871,0.8781,0.8784,0.8893,0.894,0.894,0.9379,0.9489,0.9379,0.9816,0.9816,0.9489,0.9379,0.9268,0.8823,0.67,0.5919,0.559,2.2441,2.1998,2.1741,2.1741,2.1741,2.1909,2.2715,2.3154,2.3754,2.4413,2.4935,2.5115,2.4946,2.4861,2.4786,2.454,2.454,2.5189,2.673,2.8051,2.8724,2.851,2.851,2.851,2.851,2.9718,3.0692,3.1495,3.2716,3.369,3.4414,3.4414,3.4414,3.4414,3.4414,3.3962,3.3143,3.2434,3.1636,3.082,3.0075,2.9934,3.0152,3.0292,2.9729,2.8791,2.9015,2.8315,2.7231,2.7441,2.7696,2.7788,2.6999,2.5735,2.4327,2.3667,2.3503,2.3416,2.3144,2.2599,2.1882,2.0898,2.0464,2.0382,2.0654,2.0826,2.0808,2.0076,1.9338,1.8611,1.787,1.7138,1.6683,1.6979,1.7153,1.7044,1.6285,1.5527,1.4765,1.3998,1.3238,1.2861,1.3147,1.3147,1.3244,1.3443,1.3738,1.4027,1.4304,1.457,1.3706,1.1491,1.169,1.0963,0.9244,0.8925,0.871,0.8713,0.8866,0.894,0.894,0.894,0.894,0.8937,0.9485,0.9596,0.9489,1.0036,1.0147,0.9816,0.9489,0.9379,0.9265,0.7709,0.7154,0.6723,2.2185,2.1919,2.1741,2.1741,2.1463,2.1266,2.1535,2.2059,2.2755,2.3444,2.4413,2.5031,2.5115,2.5115,2.4956,2.454,2.454,2.5115,2.6517,2.7568,2.8223,2.851,2.851,2.8179,2.7592,2.99,3.0932,3.0513,3.2915,3.4169,3.4414,3.4414,3.4414,3.4414,3.4414,3.3687,3.2434,3.2218,3.1429,3.0355,3.0075,3.0152,3.0292,3.0037,2.9419,2.8803,2.8724,2.8259,2.7719,2.7938,2.8099,2.8018,2.6577,2.5495,2.4584,2.3754,2.3764,2.3937,2.3851,2.3125,2.2138,2.1347,2.0916,2.0645,2.0826,2.1105,2.1293,2.1186,2.0619,1.9877,1.9072,1.8334,1.7692,1.7239,1.6857,1.6473,1.619,1.5527,1.5146,1.5229,1.4382,1.401,1.4376,1.3817,1.3443,1.3738,1.4199,1.4496,1.4594,1.4841,1.4375,1.2934,1.3257,1.2465,1.0416,0.9244,0.8872,0.9198,0.9027,0.894,0.894,0.894,0.9047,0.9268,0.9596,0.9926,1.0036,1.0476,1.0363,1.0147,1.0036,0.9926,0.9496,0.8139,0.7607,0.7398,2.2264,2.1909,2.1741,2.1741,2.1722,2.1713,2.1713,2.2403,2.3173,2.3627,2.4413,2.4946,2.5031,2.4946,2.4786,2.454,2.4711,2.5285,2.6445,2.7174,2.7822,2.851,2.8363,2.803,2.7522,2.9963,3.0966,3.0382,3.2942,3.4217,3.4414,3.4414,3.4414,3.4414,3.4414,3.3687,3.2506,3.2218,3.1516,3.0508,3.0228,3.0139,3.0114,2.996,2.9341,2.8645,2.8657,2.8271,2.7962,2.8099,2.8339,2.8167,2.6412,2.5579,2.5094,2.3917,2.3851,2.4206,2.4292,2.3387,2.2315,2.2069,2.1365,2.0736,2.0907,2.1195,2.1392,2.1186,2.0881,2.024,1.9171,1.8619,1.8156,1.7419,1.6951,1.6662,1.6662,1.6001,1.5717,1.6177,1.5051,1.458,1.5134,1.4292,1.3779,1.4175,1.4622,1.4871,1.4871,1.5119,1.4841,1.3795,1.4129,1.3614,1.2014,1.1048,1.0248,0.9599,0.9379,0.9268,0.9268,0.9268,0.9379,0.9599,0.9816,1.0147,1.0366,1.0582,1.0582,1.0472,1.0366,1.0189,0.9924,0.8994,0.872,0.8558,2.2441,2.1998,2.1741,2.1741,2.2274,2.2706,2.2706,2.3647,2.4413,2.4413,2.468,2.4861,2.4946,2.47,2.454,2.454,2.5031,2.5695,2.6445,2.7021,2.7672,2.851,2.8122,2.7921,2.8004,2.9925,3.0902,3.093,3.2873,3.4041,3.4414,3.4414,3.4414,3.4414,3.4414,3.3894,3.3073,3.2362,3.1723,3.1084,3.0444,3.005,2.9871,2.9985,2.9443,2.859,2.8724,2.8419,2.7962,2.8179,2.8339,2.8179,2.6412,2.6008,2.5935,2.4348,2.4024,2.4282,2.4368,2.3474,2.2492,2.2608,2.1722,2.0736,2.0997,2.1195,2.1203,2.0619,2.0602,2.024,1.8719,1.8434,1.8334,1.7606,1.7326,1.7326,1.7326,1.6756,1.6567,1.703,1.5547,1.4802,1.554,1.4641,1.4199,1.4733,1.4992,1.5143,1.5143,1.539,1.521,1.4356,1.4674,1.4572,1.3809,1.3588,1.2299,1.0033,0.9923,0.9923,0.9816,0.9816,0.9816,0.9816,1.0147,1.0257,1.0366,1.0582,1.0704,1.0716,1.0496,1.0385,1.0541,1.0318,1.0307,1.0113,2.2441,2.1998,2.1741,2.1741,2.183,2.1909,2.1909,2.2618,2.3396,2.3887,2.4327,2.4765,2.5115,2.4946,2.47,2.454,2.5841,2.667,2.6528,2.7914,2.8645,2.851,2.8122,2.8206,2.8959,3.0188,3.1209,3.1971,3.3514,3.434,3.4414,3.4414,3.4414,3.4414,3.4414,3.3604,3.2376,3.2318,3.1676,3.0583,3.0533,3.0609,3.0659,2.9806,2.9431,2.9118,2.8566,2.8259,2.8179,2.8351,2.8431,2.8259,2.6599,2.6268,2.6113,2.4529,2.4282,2.4368,2.3851,2.3038,2.2315,2.2059,2.1436,2.1006,2.1293,2.1472,2.1651,2.1731,2.19,2.1704,2.0791,2.015,1.9513,1.8603,1.7785,1.7326,1.7326,1.7512,1.7893,1.8357,1.726,1.6636,1.7184,1.5776,1.4861,1.5016,1.527,1.5415,1.5415,1.5878,1.6019,1.5807,1.6387,1.6092,1.5007,1.5215,1.4024,1.1551,1.1219,1.068,0.9816,0.9816,0.9926,1.0147,1.0257,1.0476,1.0582,1.0692,1.0777,1.0911,1.0907,1.0904,1.1069,1.0864,1.0821,1.0757,2.2441,2.2087,2.183,2.1741,2.2255,2.2677,2.2677,2.356,2.4433,2.4765,2.4935,2.5115,2.538,2.5115,2.4786,2.454,2.5516,2.6257,2.6528,2.7592,2.8247,2.851,2.7938,2.8457,3.0296,3.0423,3.1076,3.2283,3.3716,3.4414,3.4414,3.4414,3.4414,3.4414,3.4128,3.3339,3.2245,3.2028,3.1394,3.0609,3.0836,3.0672,3.0203,2.9947,2.9406,2.8791,2.8498,2.8339,2.8339,2.8431,2.8578,2.8327,2.6682,2.6434,2.634,2.47,2.4378,2.4454,2.411,2.356,2.3173,2.3096,2.2394,2.1704,2.1472,2.1571,2.1741,2.2008,2.2264,2.2157,2.1427,2.0692,1.9869,1.8972,1.7971,1.7384,1.7538,1.804,1.8573,1.9209,1.8119,1.7043,1.6552,1.5727,1.5294,1.5294,1.5535,1.5686,1.5686,1.6031,1.6324,1.653,1.6961,1.6955,1.6405,1.6617,1.5429,1.295,1.2304,1.1332,1.0253,1.0253,1.0366,1.0472,1.0472,1.0582,1.07,1.0789,1.0883,1.0976,1.1057,1.12,1.1366,1.1228,1.1197,1.1156,2.2441,2.2185,2.2008,2.1909,2.2862,2.3627,2.379,2.4935,2.5728,2.5728,2.5644,2.5559,2.5559,2.5211,2.4861,2.47,2.5189,2.5852,2.6682,2.7255,2.7846,2.851,2.7684,2.8569,3.1448,3.0571,3.0931,3.2666,3.3809,3.4414,3.4414,3.4414,3.4414,3.4414,3.3839,3.3199,3.2403,3.1809,3.1246,3.0849,3.1198,3.0722,2.9947,3.0317,2.9704,2.8566,2.8657,2.8578,2.8522,2.8607,2.871,2.8458,2.699,2.668,2.6501,2.493,2.4605,2.4767,2.4681,2.4563,2.437,2.4467,2.3662,2.2701,2.1852,2.1662,2.1848,2.219,2.2377,2.2387,2.1896,2.1157,2.0337,1.9426,1.8419,1.7771,1.7956,1.8474,1.9166,1.9933,1.8617,1.7175,1.5642,1.5542,1.5565,1.5565,1.5765,1.5891,1.5891,1.6211,1.6424,1.673,1.706,1.7378,1.7582,1.7582,1.6505,1.4352,1.3491,1.22,1.0692,1.0692,1.0692,1.0692,1.0724,1.0741,1.0753,1.0936,1.1029,1.1074,1.1216,1.1382,1.1545,1.1545,1.1395,1.1273,2.2441,2.2087,2.1909,2.2539,2.2794,2.3135,2.3714,2.4498,2.5031,2.5031,2.538,2.5559,2.5559,2.5211,2.5105,2.5579,2.6412,2.7069,2.7568,2.8395,2.8736,2.851,2.7684,2.8555,3.1436,3.0579,3.142,3.4128,3.431,3.4414,3.4414,3.4414,3.4481,3.4631,3.3908,3.3269,3.2632,3.2055,3.1556,3.1272,3.1482,3.1616,3.1676,3.1442,3.0771,2.9935,2.9626,2.9106,2.8582,2.9258,2.8915,2.8254,2.8066,2.7533,2.6767,2.5878,2.5699,2.5689,2.5488,2.5388,2.5208,2.4392,2.4026,2.3668,2.287,2.2154,2.1922,2.2825,2.2981,2.3186,2.3895,2.3205,2.2254,2.1216,2.0166,1.9419,1.8987,1.94,1.991,2.0555,1.9422,1.8186,1.733,1.6449,1.5837,1.5837,1.5867,1.5891,1.5891,1.6418,1.6624,1.673,1.7265,1.7582,1.7582,1.7582,1.6935,1.5642,1.5535,1.3814,1.0692,1.0692,1.0692,1.07,1.0863,1.0932,1.0944,1.1118,1.1281,1.1431,1.1451,1.1577,1.174,1.174,1.1507,1.1273,2.2441,2.2264,2.2264,2.2706,2.3135,2.3637,2.4327,2.5031,2.5464,2.5464,2.5644,2.5738,2.5738,2.579,2.5768,2.5819,2.6905,2.773,2.7799,2.8474,2.8816,2.851,2.841,2.9362,3.1449,3.1385,3.2322,3.4414,3.4414,3.4414,3.4414,3.4414,3.4481,3.4631,3.3563,3.2988,3.2846,3.1982,3.1629,3.1482,3.1982,3.2042,3.175,3.1355,3.0683,2.9896,2.9596,2.9516,2.9564,2.9297,2.9117,2.8792,2.783,2.7293,2.6939,2.6145,2.5875,2.5965,2.6124,2.6394,2.6394,2.5653,2.527,2.4824,2.3849,2.3112,2.2722,2.3277,2.3591,2.3832,2.4293,2.3653,2.2614,2.1562,2.0594,1.9802,1.9422,1.9857,2.0333,2.0716,2.0257,1.928,1.7772,1.716,1.663,1.5998,1.5891,1.5891,1.5891,1.6418,1.673,1.673,1.7259,1.7582,1.7582,1.7582,1.7041,1.5861,1.6012,1.4916,1.2635,1.2105,1.1833,1.1842,1.1368,1.111,1.1126,1.1305,1.1423,1.1508,1.1614,1.1703,1.1776,1.1776,1.1651,1.1526]}]]